GFSSE_sfc_thetae_000.txt.gz
Theta_e
324 331 339 341 343 344 347 348 348 348 348 348 348 348 349 349 349 349 350 350 348 348 349 349 350 350 350 349 349 349 349 349 348 348 347 344 350 354 354 355 354 352 355
324 330 337 338 340 341 343 344 346 347 347 347 347 346 346 346 346 345 345 346 347 348 348 348 349 350 349 349 349 350 349 351 351 350 349 347 346 354 355 355 354 353 354
322 330 330 334 336 337 338 340 341 342 343 344 345 344 343 344 344 344 343 343 343 345 346 347 348 347 347 348 348 348 348 350 350 349 348 344 336 353 355 355 354 354 353
321 324 325 332 332 334 336 336 336 338 338 340 340 340 338 336 336 337 338 337 338 339 341 341 342 340 341 343 345 346 346 347 348 346 341 342 335 349 353 354 355 354 355
319 322 324 329 329 330 331 330 331 333 333 334 336 333 331 333 333 333 332 331 332 333 335 337 337 335 335 337 340 342 344 346 346 341 337 337 340 345 349 350 352 353 350
317 319 323 326 325 326 325 325 325 326 326 329 327 325 323 324 324 324 324 323 323 324 326 330 330 329 329 330 333 335 336 336 338 337 333 336 340 349 347 348 349 350 350
313 315 316 322 322 322 322 322 321 320 321 322 321 319 318 318 318 318 318 319 319 319 319 322 321 321 321 323 326 327 327 327 327 333 335 333 335 347 346 347 348 348 350
311 313 313 317 319 318 318 319 318 318 317 316 315 315 314 314 314 314 316 316 317 317 317 317 317 317 317 318 318 319 320 320 319 322 331 333 338 346 345 348 348 348 348
305 308 308 308 311 314 313 313 314 314 314 312 311 310 310 309 310 310 310 313 314 314 315 315 316 316 316 315 315 314 314 316 312 314 324 331 336 343 342 345 346 346 345
301 302 303 304 306 305 304 310 311 311 310 308 307 305 304 308 307 307 306 309 310 311 312 312 313 313 313 314 314 318 316 316 308 315 324 328 337 340 343 344 344 343 343
300 300 301 301 301 303 302 305 307 307 306 306 305 304 307 301 300 302 305 306 308 308 309 310 311 311 310 310 313 315 315 304 303 305 309 322 332 331 336 341 343 343 343
296 297 298 299 299 300 300 299 300 301 300 300 301 300 300 300 299 302 305 308 306 306 307 307 308 307 306 301 301 307 302 303 302 303 304 319 319 322 327 331 336 339 341
296 297 297 298 298 298 296 299 298 299 298 298 298 298 299 299 298 297 297 297 298 302 298 299 299 299 299 299 300 300 301 301 301 302 305 315 314 317 319 322 325 331 335
298 297 296 297 297 298 298 298 298 297 297 297 296 296 296 296 295 294 295 295 295 295 294 294 295 296 296 298 298 299 299 300 300 301 303 311 313 314 317 318 320 322 325
298 297 296 295 296 298 296 296 297 295 296 296 296 294 294 294 292 293 293 293 293 293 292 292 293 293 294 296 297 297 296 297 297 299 300 308 312 312 314 317 318 320 322
299 297 296 295 296 297 296 295 295 295 295 295 294 292 293 292 290 291 291 291 291 291 291 291 291 291 292 294 295 295 295 295 296 297 298 300 310 311 311 314 316 318 320
300 297 295 295 296 295 295 295 295 294 294 293 293 292 291 291 290 289 290 289 290 290 290 290 290 291 291 292 292 293 294 295 295 296 297 298 300 307 310 311 313 315 317
298 296 295 296 295 294 293 294 294 292 292 291 292 291 291 290 289 288 288 288 289 289 288 288 288 288 289 289 289 290 292 293 294 294 295 296 298 300 304 308 309 311 313
297 295 294 293 293 293 293 293 292 291 290 290 289 289 289 290 290 288 288 287 288 288 287 288 287 287 287 287 289 290 289 290 291 293 294 296 297 299 298 304 310 311 311
296 294 293 293 292 292 292 291 290 290 289 288 288 288 289 289 289 287 287 287 287 286 286 287 286 287 287 287 290 289 289 290 291 291 292 295 296 297 298 300 301 303 311
295 293 293 292 291 292 290 288 287 288 287 287 288 288 288 288 288 286 286 286 286 285 285 286 286 286 285 287 286 286 287 288 289 291 293 294 296 295 295 297 299 299 301
294 293 292 292 291 292 291 289 288 288 287 287 288 288 288 287 287 286 285 284 284 284 284 285 285 284 285 286 283 283 281 284 288 288 288 290 292 294 296 297 295 296 298
293 292 292 292 292 291 290 289 287 286 286 285 285 285 287 287 286 286 285 284 284 284 283 284 284 283 282 283 284 283 280 279 283 286 287 288 288 289 290 292 295 295 294
292 292 292 292 291 291 290 288 286 284 282 284 285 286 286 286 285 285 285 284 283 283 283 283 285 283 282 281 283 286 284 283 280 280 284 286 287 288 289 291 292 294 293
292 292 291 291 291 290 289 288 286 283 284 285 285 284 283 284 284 284 284 283 282 282 283 283 282 282 282 281 281 281 281 282 283 281 278 281 285 286 288 289 290 290 292
291 291 291 290 290 290 288 287 286 285 284 283 282 282 282 282 282 283 283 282 281 281 281 282 282 281 281 281 281 281 281 280 279 279 279 279 280 283 286 287 287 289 290

GFSSE_sfc_thetae_003.txt.gz
Theta_e
325 332 345 345 346 348 350 350 349 349 350 349 349 349 350 349 348 348 349 350 350 350 350 350 351 351 350 349 350 350 350 350 351 350 350 349 344 351 354 354 353 352 355
327 333 341 342 344 345 347 349 349 348 348 348 348 348 348 347 346 346 345 346 347 349 349 350 349 348 348 349 349 349 349 349 350 350 350 348 348 346 356 354 353 353 353
328 331 334 340 341 341 343 345 346 346 347 347 346 345 343 341 341 342 341 340 341 343 344 345 344 343 343 345 347 348 348 348 349 348 345 342 339 353 354 354 354 353 353
325 326 328 337 338 340 340 340 341 341 341 342 342 340 338 337 338 338 338 336 337 338 340 340 338 337 337 340 343 344 346 346 347 345 337 338 339 348 350 352 353 353 352
320 323 328 334 335 336 336 337 338 338 337 339 336 335 335 334 332 331 330 329 329 330 333 335 333 332 332 333 336 338 339 339 340 342 337 334 337 347 348 348 349 351 350
318 321 329 331 332 331 331 332 334 333 335 331 329 327 328 326 325 323 323 322 322 323 324 325 324 323 323 325 328 331 332 332 334 334 336 336 335 343 346 348 349 348 347
314 316 321 329 328 328 327 327 327 327 329 325 323 321 321 320 320 320 320 320 320 320 320 321 320 320 320 320 321 321 322 322 319 323 330 333 333 344 347 348 348 348 348
312 313 315 323 326 325 325 324 323 323 322 321 319 318 317 317 316 316 317 317 317 317 318 319 318 318 318 318 318 316 315 317 312 309 315 326 334 341 344 348 347 345 345
311 310 309 311 317 321 322 322 321 320 318 317 316 314 313 312 312 311 312 314 315 316 316 316 316 316 316 316 316 316 319 320 310 309 313 322 336 339 343 346 346 345 343
306 307 306 306 307 306 308 318 318 316 314 312 311 310 311 310 309 308 308 311 312 314 314 314 314 314 311 312 313 313 315 310 302 304 307 311 324 327 334 339 343 344 342
301 301 302 303 303 302 303 309 313 313 310 309 308 308 307 299 300 302 307 308 309 310 310 310 310 309 308 308 309 310 309 302 302 303 304 316 319 321 324 328 333 337 341
296 298 300 299 299 300 303 302 300 302 300 300 300 298 299 297 299 302 306 307 306 305 306 306 306 305 302 299 299 303 300 300 301 301 302 312 314 317 320 321 323 326 330
295 296 298 298 297 298 297 298 297 297 296 297 296 297 297 297 296 296 295 295 295 299 294 296 296 296 295 296 297 297 298 298 298 300 303 310 312 314 317 319 320 322 323
294 296 296 297 297 295 296 297 296 296 295 295 295 296 295 294 293 293 293 293 292 292 291 291 292 293 293 295 296 296 296 295 296 297 300 307 309 312 315 318 319 320 321
295 295 295 296 295 296 296 296 295 295 295 295 293 294 294 292 291 292 291 291 290 290 290 290 290 291 292 293 294 294 294 294 294 296 297 304 306 308 311 315 317 319 320
297 295 295 296 295 296 294 294 294 294 294 294 291 291 292 291 290 290 290 290 289 289 289 289 289 289 290 291 292 293 292 293 294 294 295 296 304 306 308 311 314 316 318
298 296 294 294 294 296 294 294 294 293 294 292 291 290 290 290 289 289 288 288 288 288 288 288 288 289 288 290 289 291 291 292 293 293 293 295 297 303 306 308 310 312 313
296 294 294 296 295 294 294 293 294 292 291 291 290 289 289 289 289 287 287 287 287 287 287 287 287 287 286 287 287 288 289 290 290 291 292 293 294 297 301 307 308 309 311
297 295 293 294 293 293 291 292 291 290 290 289 289 288 288 289 288 287 287 286 287 286 286 286 286 285 285 286 287 288 289 288 289 291 291 293 294 296 296 302 307 309 310
297 295 293 293 292 292 292 290 289 288 287 287 287 287 287 287 288 286 286 286 286 286 285 285 284 285 285 285 287 288 287 288 288 287 289 293 294 295 296 296 298 300 308
294 292 291 291 292 292 291 289 288 287 285 285 286 287 286 286 287 286 285 285 285 285 285 285 285 285 284 285 284 284 285 287 287 288 287 287 289 292 294 296 296 297 298
292 292 291 291 291 292 292 291 287 287 285 285 286 286 286 286 286 286 285 284 284 284 284 284 284 283 284 284 282 281 280 284 286 287 287 289 287 290 291 292 292 294 294
291 290 291 291 291 291 291 289 286 286 284 284 284 284 285 286 286 285 284 284 283 283 283 283 283 283 281 282 283 282 279 278 283 285 286 286 286 287 288 290 293 292 292
291 291 291 291 291 291 289 289 286 287 285 286 286 285 285 285 285 285 284 284 283 283 282 282 284 282 282 280 282 285 283 282 279 278 283 285 286 287 287 287 289 291 291
291 290 290 290 290 290 289 289 287 286 286 283 284 284 284 283 284 283 284 283 282 282 282 282 282 281 282 281 281 281 281 281 282 279 277 279 283 284 285 287 288 288 289
289 290 289 289 289 290 289 288 287 285 283 283 284 283 283 283 282 282 283 281 281 281 281 281 281 281 280 280 280 280 280 279 279 278 278 278 279 281 283 285 285 286 287

GFSSE_sfc_thetae_006.txt.gz
Theta_e
326 333 346 346 349 349 348 349 348 349 350 349 349 350 349 348 347 347 348 348 349 350 351 350 349 349 349 349 348 348 348 348 349 348 347 348 349 346 353 353 352 349 352
328 333 343 346 347 348 349 349 349 350 348 348 348 348 347 346 345 345 344 344 345 346 347 346 345 344 345 346 348 347 347 347 346 346 345 345 346 346 352 353 352 351 352
329 333 337 344 344 345 348 348 348 349 348 347 345 343 342 342 343 341 341 341 342 343 343 342 340 339 339 342 343 346 347 346 346 345 342 336 338 353 352 352 352 352 353
328 329 332 340 342 341 341 341 344 344 344 341 341 340 338 339 340 339 336 335 336 337 340 339 336 334 334 336 338 340 340 340 340 341 336 335 337 348 344 348 348 350 350
322 325 329 338 340 340 340 340 340 340 341 341 338 336 335 334 333 331 328 327 327 329 331 329 327 326 325 328 330 333 334 333 333 332 334 334 335 340 345 347 346 346 346
319 323 331 336 338 337 337 338 337 337 338 336 334 333 330 328 325 324 323 323 322 323 323 323 322 322 321 321 322 323 323 321 320 317 323 330 332 341 346 347 347 346 345
316 320 325 335 334 334 335 336 335 336 332 329 328 326 324 322 321 321 321 320 320 320 321 320 320 319 318 319 318 317 316 317 311 307 307 312 322 336 342 346 346 346 345
315 316 320 328 331 331 331 330 330 331 327 325 323 322 321 320 319 319 318 317 318 318 318 318 318 317 317 318 318 316 316 315 307 305 308 312 324 332 342 344 346 344 342
312 312 313 317 322 327 328 327 326 326 324 322 320 319 317 316 314 315 315 315 317 317 317 317 316 313 313 314 313 313 312 312 299 302 305 307 322 326 332 337 340 343 341
308 309 308 309 311 312 316 323 323 323 321 319 317 316 315 312 310 311 311 313 315 315 314 313 312 310 310 310 311 310 309 307 300 301 302 307 317 322 325 327 329 333 337
306 306 306 306 305 305 307 313 319 319 318 316 314 313 308 299 301 303 310 310 311 311 310 310 308 306 305 306 307 306 304 299 299 299 301 310 314 318 320 322 323 324 327
302 302 304 304 302 301 306 306 305 306 303 301 300 301 298 296 298 302 306 307 306 305 306 306 304 303 299 295 296 300 296 296 297 297 298 308 311 314 317 319 320 321 323
301 301 302 302 301 299 301 300 298 298 297 298 296 297 296 297 297 295 294 294 293 296 292 294 293 293 293 293 294 294 294 294 293 295 298 305 307 311 315 317 318 320 321
294 298 299 299 299 297 296 298 296 296 295 295 295 296 294 293 292 292 292 291 290 290 289 289 290 291 291 292 293 292 292 292 292 294 295 302 304 308 312 314 316 318 319
293 296 297 298 297 297 295 295 294 294 295 294 294 295 294 292 291 291 290 290 288 289 288 288 289 289 290 291 291 291 291 291 291 292 293 299 302 306 309 311 314 316 317
295 295 295 297 296 296 294 295 295 294 294 293 291 292 293 291 290 290 289 289 288 288 287 288 288 288 288 289 289 290 290 290 291 291 292 292 300 303 306 309 311 313 314
296 296 294 296 296 295 295 295 294 294 294 292 290 291 291 290 289 288 288 287 287 287 287 287 287 287 287 288 287 289 289 290 290 290 290 291 293 299 303 307 309 310 312
296 295 295 297 295 295 295 294 294 293 293 292 289 289 290 289 289 287 287 286 287 286 286 286 286 285 285 286 285 286 287 289 289 289 290 290 291 293 298 304 307 308 309
297 296 294 295 294 295 293 293 292 291 291 291 289 287 288 288 288 287 286 286 286 286 285 286 285 284 284 285 286 286 287 287 287 290 289 290 291 293 293 300 304 305 308
297 296 295 294 294 294 293 290 289 289 289 289 288 287 287 287 287 286 285 286 286 285 285 284 284 284 284 284 286 286 285 286 286 286 287 289 289 290 292 294 295 296 302
295 294 293 292 292 293 291 290 289 289 288 286 286 287 286 286 286 285 285 285 285 284 284 284 284 283 283 283 283 283 284 285 285 286 285 286 288 289 289 290 291 292 294
294 293 292 292 292 293 293 293 290 289 285 287 287 287 287 286 285 285 284 284 284 283 283 283 283 282 283 283 281 281 279 282 285 285 285 285 285 286 288 289 290 290 289
292 292 291 292 292 293 292 290 285 285 283 283 284 284 285 285 285 285 284 283 283 283 282 282 282 282 281 281 282 281 278 277 280 284 284 285 284 285 286 286 287 287 290
291 291 292 292 291 292 291 289 287 289 286 286 286 284 283 285 284 284 284 283 282 282 282 282 283 282 281 280 281 284 282 281 278 277 281 282 284 284 284 284 285 287 287
289 290 290 290 291 290 290 290 288 288 288 283 283 283 283 283 284 283 283 282 282 282 282 282 281 281 281 280 280 280 280 280 279 278 277 279 282 282 283 283 284 285 286
287 288 289 289 289 288 289 288 288 288 284 284 283 283 283 283 283 282 282 281 281 281 281 281 281 281 281 280 280 280 280 278 278 277 277 277 277 280 282 283 283 284 285

GFSSE_sfc_thetae_009.txt.gz
Theta_e
325 332 346 348 348 349 349 349 348 348 349 349 350 350 349 349 348 348 348 348 350 350 349 347 346 346 346 348 347 347 347 346 345 344 344 347 347 346 351 352 350 348 352
328 334 345 348 348 348 348 348 347 349 349 348 349 348 347 346 346 346 344 344 345 346 345 344 342 342 343 344 346 347 347 346 345 344 342 341 344 352 352 352 351 349 352
331 334 340 346 349 349 350 349 349 348 348 348 346 345 344 343 343 341 341 341 342 342 342 340 338 336 337 338 340 341 341 339 339 341 340 334 334 348 349 352 351 350 350
330 332 334 343 347 347 349 349 349 349 347 345 343 341 339 341 341 338 336 336 336 337 339 335 332 330 330 331 333 334 334 333 332 330 331 334 335 342 346 347 347 346 347
326 329 332 341 343 343 343 343 342 342 343 342 338 337 339 337 334 332 330 328 330 331 329 327 326 324 324 324 325 325 323 321 319 313 316 323 328 336 345 346 345 345 345
321 325 332 339 341 342 341 341 340 339 339 339 336 336 335 332 329 326 325 324 325 324 324 323 322 321 321 321 320 319 319 319 314 306 306 309 315 335 341 344 345 345 345
318 321 327 338 338 339 339 339 337 337 337 336 335 333 330 326 324 324 323 322 322 322 321 321 320 320 320 320 318 318 317 313 304 303 307 310 316 331 342 343 345 344 343
317 319 323 331 335 337 337 337 336 336 335 332 330 327 325 323 322 321 320 320 320 320 320 319 319 318 318 317 315 315 314 311 301 300 302 306 322 329 334 337 339 343 342
315 316 318 322 326 330 334 334 335 334 330 327 325 323 321 320 319 318 317 318 319 319 318 318 315 315 314 314 313 312 310 309 297 299 302 305 318 325 328 328 330 332 334
311 312 313 315 317 318 320 327 328 330 327 325 322 321 320 316 315 316 316 318 317 317 316 314 312 311 311 311 309 308 306 304 296 297 299 305 316 321 323 324 324 326 327
308 309 309 310 311 311 312 316 322 324 323 322 319 318 313 302 303 305 312 316 314 313 313 311 308 306 305 305 306 305 302 295 295 295 297 309 313 317 319 320 321 322 323
306 306 307 306 306 306 309 310 310 311 309 307 305 304 298 297 298 302 308 311 309 309 309 307 305 302 297 293 294 298 293 293 293 294 295 306 310 314 317 318 319 320 321
307 306 305 306 304 303 304 304 303 302 300 299 298 298 295 296 298 296 295 293 292 296 291 293 292 291 291 291 292 291 291 291 290 292 296 303 307 311 314 315 317 319 319
301 305 304 304 303 300 299 302 300 299 296 296 295 296 294 294 292 292 291 290 289 289 288 289 289 290 290 291 290 290 289 289 289 291 293 300 304 309 312 313 315 317 318
296 302 302 302 302 300 297 299 297 296 297 295 294 295 294 292 291 291 290 289 288 288 288 287 288 288 288 289 289 289 288 289 289 290 290 297 302 306 310 312 314 315 316
295 296 299 301 301 299 297 297 298 296 295 294 292 293 293 292 290 290 289 288 287 287 287 287 287 287 287 288 288 288 288 288 289 289 289 290 299 303 307 310 312 313 315
296 295 296 299 299 298 296 296 295 295 295 294 292 292 292 291 289 288 288 287 286 286 287 286 286 286 285 287 286 287 288 288 288 288 289 289 291 298 304 308 309 310 311
296 294 295 298 297 297 296 295 295 294 294 293 291 290 291 290 289 288 287 286 286 286 285 285 285 284 284 284 284 285 286 287 288 288 289 289 290 293 296 305 307 308 309
296 296 294 295 296 296 296 295 294 293 293 293 289 289 289 289 288 288 286 286 286 285 285 285 284 283 283 284 285 285 285 285 286 288 288 288 289 290 291 298 300 302 305
295 296 295 295 295 295 294 292 291 291 290 290 290 288 288 288 288 286 285 285 285 284 284 284 283 284 283 283 285 284 284 285 285 286 285 287 288 288 288 290 290 291 297
293 294 294 293 294 294 292 290 291 291 290 289 288 288 288 287 287 285 285 284 284 284 283 283 283 282 283 282 281 282 283 285 284 284 284 285 286 286 287 288 287 288 288
294 294 294 293 292 294 294 294 291 292 287 289 288 287 287 286 286 285 284 284 283 283 283 283 283 282 282 282 280 280 279 281 284 284 284 285 283 285 285 286 286 286 287
291 292 293 293 292 294 293 290 285 284 283 283 284 286 286 286 285 285 284 284 283 283 282 282 282 282 281 281 281 280 277 277 279 282 283 283 283 283 283 284 285 286 287
292 291 292 292 291 293 292 290 288 289 288 288 289 287 285 285 284 284 284 283 283 282 281 281 282 281 281 280 281 283 281 280 278 276 280 281 282 282 282 282 283 285 285
289 289 290 290 291 292 291 291 289 290 290 284 283 283 284 283 284 283 283 282 282 281 281 282 281 281 280 280 280 280 280 279 279 278 276 278 280 281 282 282 282 283 284
286 287 288 289 290 290 290 290 289 290 286 285 283 284 284 283 283 283 283 282 281 281 281 281 281 281 280 280 280 280 279 278 278 277 276 276 276 278 281 281 281 282 284

GFSSE_sfc_thetae_012.txt.gz
Theta_e
322 329 347 348 349 350 349 349 347 347 348 349 349 350 350 349 349 349 348 349 350 349 347 345 346 346 346 347 347 347 346 345 344 344 344 345 350 349 352 351 350 348 351
324 331 346 349 348 349 350 348 347 347 348 349 350 349 348 347 347 346 345 345 346 347 345 343 341 343 343 343 343 343 342 340 339 341 341 339 342 350 351 351 350 348 350
327 333 340 347 349 350 350 349 348 348 349 349 348 347 346 346 344 343 342 343 343 344 342 339 336 336 336 336 338 338 337 334 332 332 335 332 334 347 348 350 349 347 348
329 333 336 345 349 350 350 350 349 350 348 347 345 342 342 343 341 339 338 337 338 338 337 333 331 330 330 330 331 329 327 325 321 319 315 319 324 340 347 347 346 345 345
328 331 334 343 348 348 349 349 349 349 347 345 343 341 338 338 336 334 333 333 335 333 330 329 326 325 324 325 323 323 323 320 316 310 307 311 316 332 343 346 344 344 345
324 328 335 342 344 344 344 344 344 343 344 341 337 337 338 335 334 330 328 328 328 327 326 325 323 322 322 321 321 320 317 315 310 304 307 314 317 335 344 345 345 345 344
320 323 329 340 343 341 342 342 341 341 342 338 336 336 335 332 329 327 325 325 324 323 323 321 322 322 321 319 318 317 315 312 300 300 303 308 317 334 337 339 341 344 343
318 320 325 333 338 338 341 342 341 340 340 337 336 334 331 327 325 323 322 322 322 322 321 321 320 319 318 317 316 314 312 308 300 299 301 306 321 330 331 331 333 334 336
316 318 320 325 329 333 336 337 337 338 336 335 333 330 326 324 323 321 320 321 321 321 320 317 317 316 316 314 313 311 309 306 294 297 302 305 321 325 327 327 328 329 330
313 315 316 318 321 322 324 331 332 334 334 332 329 326 324 322 322 320 321 321 320 320 317 315 313 313 312 311 309 307 304 302 294 295 298 306 316 320 322 324 324 325 327
310 311 312 314 315 316 317 320 326 328 328 326 323 320 313 304 306 307 312 320 318 317 314 312 310 308 307 307 306 304 300 292 292 293 296 308 314 317 319 320 321 322 323
307 309 310 310 311 311 314 313 314 316 314 311 309 306 301 299 300 304 310 316 315 314 311 310 307 304 297 292 292 296 290 291 291 292 294 306 311 314 316 317 319 320 321
310 309 309 309 308 308 308 308 307 307 305 304 303 299 297 296 299 299 298 296 295 299 293 294 291 290 290 290 290 289 289 289 289 290 295 304 309 312 314 315 317 318 320
305 308 308 307 306 305 305 306 305 304 301 300 298 296 293 293 294 294 291 290 289 289 288 288 289 289 289 289 289 288 288 288 288 289 291 301 307 311 314 315 317 317 318
301 306 306 306 307 305 302 303 302 302 301 298 296 295 293 293 291 291 289 288 287 287 287 287 287 287 287 288 288 287 287 288 288 288 288 299 304 309 313 315 315 316 317
299 302 305 304 306 305 303 302 303 302 298 296 294 295 292 293 291 290 289 287 286 287 286 286 286 286 286 287 287 287 287 287 287 288 288 290 302 306 310 312 312 314 315
297 297 301 304 305 303 303 301 302 300 297 295 294 292 292 292 290 289 288 286 286 286 286 286 285 285 285 286 285 286 287 287 287 288 288 289 291 300 308 310 311 313 314
298 295 297 302 303 303 302 300 299 297 297 296 293 293 292 291 290 288 287 286 286 285 285 284 284 283 284 284 284 284 285 286 287 288 287 288 290 291 299 304 306 308 308
297 297 295 297 300 301 301 298 297 295 295 295 292 292 291 291 289 289 287 286 285 284 284 284 283 283 282 283 284 284 284 285 286 287 286 287 288 288 288 294 296 298 301
296 297 296 295 297 298 299 295 292 291 293 291 291 291 290 291 289 287 286 285 285 284 283 283 283 283 283 282 284 283 283 284 284 284 284 287 286 287 286 286 286 288 296
292 293 294 293 295 296 295 292 291 292 291 290 291 290 290 289 288 287 286 285 284 284 283 282 282 282 282 282 281 282 282 284 283 283 284 283 284 285 285 285 285 286 288
293 293 293 293 293 295 295 295 292 294 290 292 290 288 289 288 287 287 286 285 284 283 282 282 283 281 281 281 280 280 279 280 283 284 284 283 282 283 284 285 285 285 286
291 290 292 293 293 294 294 292 285 285 284 284 285 286 286 287 287 287 285 285 284 283 283 282 282 282 281 280 280 281 278 278 279 281 282 282 281 282 282 283 284 285 285
293 291 291 292 291 293 293 291 290 290 289 290 291 290 288 287 286 285 285 285 284 283 282 282 282 281 281 280 281 282 280 280 277 277 279 280 281 281 280 282 282 283 284
291 289 289 290 290 292 292 291 291 291 292 287 286 287 286 285 285 285 285 284 283 283 282 282 281 281 281 280 280 280 279 279 279 277 276 278 279 280 280 281 281 282 284
287 286 287 288 289 290 291 291 291 291 285 286 284 286 285 284 284 283 284 283 283 282 281 282 281 281 280 280 280 280 279 278 278 277 276 276 276 278 279 280 280 281 283

GFSSE_sfc_thetae_015.txt.gz
Theta_e
328 336 349 352 350 351 349 349 348 347 348 349 349 350 350 350 350 349 350 351 350 348 346 346 346 346 346 347 346 344 342 340 342 344 343 346 352 352 352 351 350 350 351
330 337 347 350 351 351 350 350 348 347 348 349 350 349 349 348 347 347 347 347 348 347 345 343 341 342 342 341 342 341 339 337 336 338 339 340 346 350 349 350 350 349 350
329 337 346 349 350 351 351 350 349 348 348 349 349 348 347 347 345 344 344 345 346 345 342 338 337 337 336 337 337 335 332 329 327 326 328 332 340 348 349 349 348 345 345
331 337 344 346 349 350 351 350 349 348 349 349 348 347 346 344 343 342 340 340 341 340 338 333 332 331 331 331 329 328 328 323 321 318 320 324 330 342 346 347 345 344 345
332 337 341 345 349 350 350 350 349 349 349 347 345 343 341 340 337 336 335 337 338 336 332 330 327 326 326 325 325 324 322 319 318 317 321 327 333 342 345 346 344 344 345
331 336 339 345 350 350 350 350 350 349 349 346 344 340 339 338 335 333 331 333 331 330 328 326 324 324 323 322 321 319 318 316 312 314 319 324 331 339 341 343 345 344 344
330 333 338 343 346 346 346 347 348 347 347 342 340 336 339 335 333 330 328 329 327 325 324 323 323 323 320 320 319 317 314 312 308 311 314 320 330 335 336 337 338 340 342
328 329 333 336 340 342 344 344 344 344 343 340 337 338 336 334 330 327 326 325 324 323 323 323 321 320 319 318 316 314 311 307 304 308 312 317 326 329 331 332 333 335 335
325 326 329 334 337 334 338 339 341 341 341 340 338 337 334 330 327 325 324 324 323 323 322 320 319 318 317 315 313 310 308 305 302 307 309 315 322 325 327 327 328 330 330
321 324 325 328 332 333 335 332 334 336 337 336 336 332 328 327 326 324 324 324 323 322 319 318 317 316 314 312 309 306 304 302 300 304 308 313 318 320 322 324 325 326 326
316 318 321 323 326 328 329 329 329 331 332 331 329 325 321 319 319 318 317 323 322 319 317 315 314 312 310 308 306 303 299 298 298 300 305 310 315 318 319 320 321 323 323
314 316 317 320 322 322 322 326 329 328 328 325 321 318 313 312 312 311 314 320 321 318 314 312 309 305 299 298 298 297 297 296 297 297 303 308 312 315 317 319 320 321 322
315 315 315 316 318 319 319 320 321 321 320 318 315 310 308 307 309 310 310 308 308 306 305 304 299 297 297 297 296 295 295 296 296 296 302 308 312 315 316 318 320 321 320
310 314 314 314 314 316 316 317 317 317 315 313 311 307 304 303 305 305 304 303 302 300 298 296 296 296 295 295 295 294 295 295 295 296 299 305 310 314 317 318 318 319 320
307 310 312 313 314 314 312 314 314 314 312 311 307 304 303 301 303 302 300 297 296 295 295 295 295 294 294 294 293 293 294 294 294 295 298 306 310 313 316 317 318 319 319
306 308 311 311 313 313 313 312 313 312 311 307 306 304 300 300 301 300 296 294 294 294 294 294 293 293 293 293 292 292 293 293 294 295 296 303 307 311 313 315 316 318 319
302 305 308 310 311 311 312 311 312 310 306 306 305 302 299 298 298 297 295 293 293 293 293 292 291 292 292 291 292 292 292 293 294 294 295 296 303 311 311 313 315 315 315
301 300 303 308 308 310 311 310 310 309 306 306 303 301 299 298 297 295 295 293 292 292 292 292 291 290 291 291 291 291 291 293 293 293 295 296 298 298 301 303 304 306 309
300 300 299 304 307 308 309 310 308 306 306 305 301 300 298 297 296 295 294 293 291 291 291 290 289 290 290 290 289 290 291 292 292 291 292 293 293 292 292 296 299 300 302
299 300 299 299 304 306 307 307 304 301 304 302 300 298 297 297 295 294 293 292 290 290 289 289 289 289 290 289 287 289 290 290 290 291 291 291 291 290 291 291 293 295 301
297 296 297 296 299 302 303 301 298 298 299 297 299 298 296 296 295 294 293 291 290 290 289 289 289 289 288 288 288 288 289 289 289 290 290 290 289 289 290 290 291 292 296
297 296 296 296 296 299 301 301 301 301 299 298 297 296 296 295 294 293 292 291 289 289 288 288 289 287 287 287 289 288 286 288 289 289 289 288 287 288 288 289 289 290 292
296 295 294 295 295 297 299 299 290 292 290 292 292 292 293 294 293 293 292 291 289 289 288 288 289 289 287 286 286 290 284 287 286 287 287 288 287 287 288 288 288 289 290
295 295 294 294 294 296 297 296 295 295 293 293 295 294 293 292 292 292 291 290 289 289 288 288 288 288 288 286 286 286 286 287 286 283 285 286 287 286 286 287 287 288 290
291 291 292 292 293 295 295 295 295 295 295 293 295 293 291 291 291 290 290 289 289 288 288 288 287 287 288 287 287 285 285 285 284 285 284 284 285 286 286 286 287 288 289
290 289 290 290 290 292 293 294 294 294 292 291 291 291 290 289 288 288 289 288 288 288 287 287 287 287 287 287 287 286 286 285 284 284 283 283 284 284 285 286 286 287 288

GFSSE_sfc_thetae_018.txt.gz
Theta_e
334 341 349 353 352 351 350 349 349 350 349 350 349 348 348 349 349 350 350 351 349 347 346 346 347 347 346 346 343 341 341 340 342 343 345 351 352 351 351 350 351 351 352
334 342 347 352 353 351 350 350 349 348 349 350 351 350 350 349 348 348 348 348 347 346 345 343 341 342 342 340 341 339 336 335 335 336 338 348 350 348 347 347 347 346 349
332 343 349 350 352 352 351 350 348 348 349 350 350 349 348 347 346 346 346 346 346 344 342 340 338 338 337 337 335 333 331 329 327 326 333 342 347 348 348 346 346 344 345
333 343 347 347 351 352 351 350 348 347 348 349 349 348 348 346 345 343 342 342 342 341 339 335 334 333 332 330 329 328 326 324 323 324 334 336 339 344 348 345 343 343 343
333 341 345 346 350 351 351 350 349 348 349 350 348 347 346 344 340 339 337 337 339 337 334 331 329 328 326 326 324 323 321 320 319 329 331 334 340 344 346 345 343 342 344
333 337 342 346 349 350 351 350 349 348 349 348 347 344 340 339 337 333 334 337 335 333 330 327 325 325 323 322 320 319 317 315 319 323 328 331 337 340 341 345 344 344 344
333 337 341 344 348 349 350 350 350 350 349 349 346 339 340 339 336 333 331 332 330 328 326 325 325 322 321 319 317 315 313 312 313 317 323 330 335 335 336 337 339 340 341
333 338 340 339 343 345 348 349 349 349 349 345 342 336 340 337 334 332 329 329 327 325 324 324 323 320 319 317 316 313 310 308 312 314 319 325 328 330 331 332 333 334 335
335 336 339 341 341 337 340 341 343 344 343 342 341 339 338 336 333 329 327 326 325 324 324 322 321 319 317 315 312 310 308 306 309 312 313 319 321 325 326 327 328 329 330
333 335 337 340 340 341 342 334 336 339 339 339 337 335 332 331 330 328 326 326 324 324 321 320 319 317 315 312 309 306 304 306 306 308 312 315 319 321 323 324 325 326 327
328 332 335 336 338 338 338 335 332 333 333 333 333 328 325 330 326 323 322 326 324 322 319 318 316 314 311 308 305 302 301 303 303 305 309 312 316 318 319 320 321 322 323
324 327 331 333 334 336 335 337 338 338 338 336 335 329 330 327 324 321 319 322 324 321 317 316 313 308 302 304 302 300 302 302 302 303 307 310 313 315 317 318 319 321 323
323 325 327 329 331 333 333 334 335 337 337 334 332 330 328 323 320 319 319 320 320 315 314 311 307 303 303 303 302 302 301 302 302 302 305 309 313 314 316 318 320 320 320
319 323 325 326 328 330 332 331 332 333 334 331 330 327 322 320 318 316 317 318 317 314 311 307 303 303 302 300 301 300 300 301 301 302 304 306 311 314 317 318 319 320 321
316 319 322 325 325 327 329 329 329 330 330 329 327 323 320 318 315 313 315 315 314 310 306 302 302 301 300 299 299 299 299 300 300 301 306 307 312 314 317 318 319 320 320
313 316 319 321 323 325 326 327 327 327 328 328 325 321 318 316 313 311 312 311 309 306 303 302 301 300 300 299 298 298 298 299 300 301 305 308 310 313 313 316 317 319 321
311 313 315 318 321 322 323 325 325 325 325 325 322 320 316 313 310 308 309 307 305 302 301 300 299 299 298 298 297 297 298 298 299 299 302 305 311 311 314 316 318 317 317
310 310 312 314 317 319 321 323 323 323 322 321 321 318 314 311 308 307 306 304 302 300 299 299 298 297 298 297 297 296 297 298 298 299 300 305 307 307 305 306 307 309 310
310 309 309 311 313 316 319 320 321 321 320 319 319 317 314 310 307 305 305 303 300 299 298 298 297 297 297 296 296 296 297 297 296 297 299 299 297 299 300 301 300 302 303
309 309 309 309 310 313 315 317 318 318 318 318 317 315 312 309 306 304 303 302 299 298 297 297 296 296 297 296 292 294 296 297 296 296 296 295 295 295 296 296 299 301 303
307 306 306 306 306 309 311 312 313 313 314 314 315 313 311 309 305 304 303 301 298 297 297 297 296 295 294 295 295 293 293 294 294 295 295 295 293 294 294 295 296 299 302
304 304 304 304 305 306 309 311 311 311 311 312 312 311 310 308 305 303 302 300 298 297 297 296 296 294 295 295 295 295 291 291 293 293 294 292 292 293 292 293 294 295 299
300 300 300 301 303 303 306 308 308 306 307 306 307 307 306 306 304 302 301 300 298 298 297 297 296 295 294 293 295 297 291 293 291 292 292 292 291 292 292 292 292 293 297
297 299 299 300 300 301 303 304 304 302 301 302 303 304 304 303 303 302 301 300 299 298 297 297 296 297 297 293 292 292 293 295 293 288 291 291 291 290 291 291 292 292 296
296 297 298 298 298 299 300 302 301 301 303 303 301 302 301 301 301 300 300 299 298 297 298 297 295 296 296 297 294 292 292 292 292 294 289 288 290 291 290 291 292 292 294
297 296 296 296 296 297 298 299 299 299 300 300 299 299 299 299 298 299 298 298 297 297 296 296 295 295 295 296 296 294 293 291 291 291 291 290 289 288 289 290 290 292 292

GFSSE_sfc_thetae_021.txt.gz
Theta_e
336 343 349 352 352 352 351 350 349 350 350 350 349 348 348 348 349 349 351 350 349 348 347 347 347 348 346 344 342 341 339 342 343 345 352 352 351 350 348 349 351 349 352
337 344 348 353 353 353 351 350 350 350 350 349 348 349 349 349 349 350 349 348 347 346 344 343 343 343 342 342 340 337 336 335 336 336 340 351 350 348 346 347 347 347 350
335 343 348 351 353 352 351 351 349 349 349 349 351 350 349 348 347 348 348 347 346 344 342 340 339 339 339 336 334 333 331 329 328 329 336 343 346 349 346 345 346 345 346
334 343 347 348 352 352 351 351 349 348 349 350 350 349 348 346 346 345 344 345 343 341 339 337 335 333 332 330 330 328 326 325 325 329 333 337 339 347 347 344 343 343 344
333 343 346 348 351 352 352 351 349 348 349 350 349 348 347 346 343 340 339 338 339 338 335 332 330 329 327 326 324 323 321 319 321 329 333 335 339 345 346 344 343 342 344
332 340 345 347 351 352 351 350 349 348 348 350 349 347 346 341 338 335 334 338 337 335 331 329 327 326 324 321 320 319 317 315 322 326 330 332 339 341 342 344 344 343 344
331 337 344 345 348 350 351 351 349 349 349 350 349 347 343 341 338 333 333 334 333 331 328 326 325 322 321 319 316 314 313 314 315 319 325 332 333 336 337 339 340 341 341
332 334 337 339 343 346 349 349 349 349 350 349 347 342 341 340 337 333 331 332 330 327 325 326 322 321 319 317 314 312 310 313 314 315 321 326 329 331 331 333 333 335 336
334 334 337 340 341 338 343 344 346 348 348 347 342 340 340 338 335 333 330 329 327 325 325 324 321 320 318 315 312 310 308 312 311 313 315 320 322 325 326 327 329 330 331
333 334 336 338 340 342 344 336 339 342 342 341 338 335 334 333 333 331 328 328 325 324 323 322 320 318 315 312 309 306 304 309 308 309 313 315 320 322 323 324 325 326 327
330 333 335 337 338 339 340 339 333 334 335 335 333 330 327 332 331 327 324 327 326 325 322 320 319 316 312 308 305 302 305 305 305 307 309 313 316 318 319 320 321 323 324
326 330 333 335 337 338 336 338 341 340 340 339 337 335 334 332 330 324 321 323 326 323 321 319 316 312 308 306 303 303 304 304 304 304 308 312 314 315 317 318 319 321 323
323 327 329 333 335 337 337 337 337 337 337 340 339 337 334 331 328 323 322 321 323 317 316 315 310 305 306 306 304 304 303 304 303 304 306 310 315 315 316 319 321 320 320
318 322 327 329 332 334 336 335 336 336 336 337 337 336 333 330 325 322 320 321 323 318 316 314 308 308 305 303 303 303 303 303 303 304 305 309 314 316 317 318 319 320 321
315 319 324 329 329 331 333 334 333 334 335 336 335 334 331 327 323 320 318 320 320 317 314 310 307 305 304 302 302 301 301 302 302 303 307 309 313 316 316 318 319 320 321
314 318 321 324 328 328 330 332 332 333 333 333 333 331 330 326 322 318 317 318 317 315 311 307 305 304 304 303 301 300 300 301 301 302 306 309 314 316 314 316 317 319 319
314 315 318 321 325 326 328 330 331 331 330 331 331 330 327 325 320 316 315 315 314 312 308 305 304 304 302 301 300 299 300 300 301 301 304 309 311 310 315 319 320 319 318
313 313 315 316 320 324 325 327 328 329 329 329 330 328 325 323 318 315 312 312 312 307 304 303 302 301 301 300 299 299 299 300 300 300 302 308 311 310 307 309 311 311 311
311 311 312 314 316 319 323 325 326 327 327 327 327 326 324 320 317 312 310 310 309 304 302 301 300 300 299 299 299 299 299 299 299 299 301 304 302 305 304 301 302 304 305
309 310 311 311 312 314 318 321 323 324 325 325 324 323 322 319 315 311 309 308 305 302 301 301 300 300 300 299 294 296 298 299 299 299 299 298 298 298 300 299 301 302 305
305 305 306 307 309 310 313 315 317 318 320 321 322 321 320 317 314 311 307 306 303 301 300 300 300 299 299 298 296 295 295 296 296 297 298 297 295 296 297 298 299 302 304
301 302 303 304 306 307 309 313 314 315 317 318 319 319 318 316 313 309 307 304 302 300 300 300 299 297 298 297 296 296 291 291 294 295 296 295 294 295 294 294 296 298 303
299 300 301 302 303 305 306 309 310 311 309 310 312 314 314 314 312 309 306 304 302 300 299 299 299 297 295 296 299 299 295 294 291 294 293 294 293 293 293 293 294 296 300
298 300 300 300 301 302 304 305 305 305 303 306 306 309 310 311 310 309 306 305 302 300 299 299 298 298 297 293 295 296 298 298 293 287 292 292 292 292 292 293 293 294 298
298 298 299 298 298 300 301 302 302 302 303 305 304 304 306 307 306 307 306 304 302 300 299 298 297 297 297 296 294 294 294 294 296 295 288 289 291 291 292 292 292 293 296
298 297 297 297 296 298 298 299 299 299 300 300 302 301 303 303 303 303 304 303 302 300 299 298 297 296 296 297 296 296 293 292 291 292 293 290 288 290 291 291 291 292 294

GFSSE_sfc_thetae_024.txt.gz
Theta_e
332 342 350 353 352 352 352 351 351 352 350 348 348 349 348 348 349 352 353 351 350 349 349 347 346 346 344 343 342 340 341 342 343 347 352 351 349 348 348 350 350 350 352
334 342 348 352 353 353 353 352 351 352 351 350 349 348 348 348 349 351 350 350 348 346 345 344 344 343 341 341 338 336 335 335 336 337 345 350 350 347 346 348 348 348 351
334 343 348 351 353 353 352 351 351 352 350 349 349 349 350 348 349 349 349 348 346 345 342 341 339 339 337 334 334 333 332 331 331 333 336 340 344 348 345 345 347 346 348
333 343 346 349 352 353 351 351 351 351 351 350 351 350 349 347 347 347 347 346 344 342 340 339 337 335 332 331 330 329 328 327 328 331 329 334 343 348 346 344 344 345 345
330 343 345 348 352 352 351 351 350 350 351 352 351 350 348 347 345 342 341 340 341 339 337 334 333 330 329 326 325 324 323 322 326 325 328 329 339 344 347 344 343 343 344
328 341 344 348 352 352 351 351 350 350 351 351 351 349 348 346 341 337 336 339 339 336 333 331 329 327 324 322 320 319 318 319 324 319 324 334 334 341 344 344 344 344 343
327 335 344 347 349 351 351 351 350 349 350 351 351 349 348 343 339 335 334 336 336 333 330 328 327 324 322 319 317 315 314 317 310 314 321 325 329 337 337 339 339 340 340
325 332 343 341 344 347 349 349 349 349 349 351 349 348 346 343 341 335 333 333 333 330 327 327 323 322 320 317 314 312 312 316 312 311 318 319 330 331 332 333 334 336 336
326 329 333 341 341 339 343 345 346 347 347 349 347 344 342 341 339 336 333 332 331 327 326 325 322 320 318 316 312 309 310 315 305 307 315 314 324 326 326 328 329 331 332
326 328 329 335 339 340 340 337 339 342 343 344 341 337 335 334 333 332 329 331 329 326 326 324 322 319 316 312 309 305 307 311 301 304 310 312 321 322 322 324 326 327 328
323 327 329 330 334 336 338 338 334 337 338 336 333 330 327 328 327 325 324 328 328 327 324 322 320 318 314 309 305 303 307 298 299 301 306 315 317 318 319 321 322 323 324
319 324 328 329 331 333 337 336 337 337 336 334 331 327 328 326 325 325 320 324 327 326 325 322 319 315 310 300 298 304 298 297 297 299 305 314 315 316 318 318 320 322 324
318 322 326 328 329 330 332 331 337 337 337 334 333 331 329 326 322 318 314 316 316 317 313 313 310 304 301 298 297 297 297 296 295 299 305 312 317 316 317 320 322 321 320
309 317 323 326 328 329 330 329 329 331 331 334 334 330 330 327 319 315 313 313 313 310 309 307 303 300 299 298 298 297 296 295 295 298 303 311 316 316 318 319 320 321 321
308 310 318 323 324 327 328 328 327 328 330 330 332 330 327 324 317 314 312 312 313 310 308 304 299 299 297 297 297 296 296 296 296 297 301 311 317 316 318 319 321 321 323
308 309 312 321 323 325 326 326 326 326 326 330 331 327 325 323 316 312 310 311 312 308 306 301 298 297 296 296 295 296 295 295 296 296 301 306 315 318 316 318 319 321 320
306 308 310 314 321 321 322 324 325 325 325 325 325 325 324 321 316 311 308 309 309 307 303 298 297 297 295 296 294 295 295 295 295 296 299 304 306 312 316 320 321 320 319
304 305 309 312 314 319 319 321 323 323 323 322 324 322 322 320 316 310 307 307 307 303 299 296 295 294 293 293 292 292 293 294 294 295 296 301 305 304 306 310 313 314 313
302 303 304 307 310 313 317 318 320 321 320 320 321 321 319 318 315 309 306 306 304 300 296 296 294 293 292 292 292 291 292 292 293 295 296 299 296 299 298 303 305 306 308
300 301 301 303 305 310 311 313 314 316 318 318 318 318 319 316 314 307 304 304 301 297 295 294 293 293 292 292 292 292 291 292 292 292 294 295 293 293 295 294 294 299 307
298 299 299 299 301 303 305 307 308 310 313 314 315 316 317 315 312 306 302 301 298 296 295 294 293 292 292 291 290 289 289 290 290 291 292 291 291 292 291 292 292 296 299
296 296 297 299 299 301 302 305 306 307 307 311 313 313 315 314 311 306 302 299 297 294 294 294 292 291 291 291 289 287 284 286 288 290 290 291 289 290 290 291 291 293 296
294 294 296 297 298 299 300 302 303 304 301 301 304 306 309 311 310 308 303 299 297 295 294 293 293 292 289 290 292 290 285 284 285 288 288 289 288 288 288 289 290 292 295
293 294 295 295 296 298 298 299 298 298 297 298 300 302 304 306 306 306 304 300 297 295 293 293 294 293 290 290 288 292 289 289 285 282 286 287 287 288 287 287 288 290 293
293 293 293 294 294 295 294 295 295 295 296 297 297 296 298 300 302 302 302 300 298 296 293 292 291 291 292 290 290 287 287 287 288 284 281 283 285 286 287 287 287 288 292
292 291 291 291 292 294 293 293 292 291 292 292 293 293 294 296 297 298 299 299 298 296 293 292 291 291 290 290 290 288 287 286 285 285 284 282 282 284 286 287 287 287 289

GFSSE_sfc_thetae_027.txt.gz
Theta_e
334 343 351 354 353 353 355 354 353 352 350 349 350 349 349 349 351 354 353 351 350 350 348 347 345 344 343 342 340 341 342 343 345 351 352 350 349 349 350 350 350 350 352
337 345 349 353 354 354 354 353 353 351 350 348 349 348 348 348 351 351 350 350 347 346 346 346 345 342 341 338 337 336 336 337 337 339 349 350 349 346 346 347 349 348 352
339 344 348 351 353 353 353 352 352 352 350 349 349 349 348 349 349 350 348 348 346 344 343 341 340 339 337 335 334 334 333 332 333 334 336 334 343 346 344 346 347 347 349
339 343 347 348 352 353 352 352 351 352 352 350 349 349 349 349 349 348 348 346 344 342 341 340 339 335 333 331 330 330 329 329 330 333 329 337 345 347 345 343 345 345 345
338 342 346 348 352 352 351 351 351 351 352 352 351 350 349 348 348 345 344 344 343 340 338 336 335 331 329 326 325 324 324 325 329 326 331 335 338 345 346 343 342 343 344
337 341 344 348 352 352 351 351 350 351 351 352 352 350 348 347 344 342 341 342 340 338 335 333 331 328 324 322 320 319 319 322 322 320 327 332 334 341 344 344 343 343 343
328 339 344 347 350 351 351 351 350 350 351 352 352 351 349 345 340 337 336 338 339 335 333 331 328 324 321 319 316 315 317 320 311 318 321 323 331 338 337 340 340 340 340
325 339 343 341 344 347 349 349 349 349 349 350 351 350 349 344 339 336 335 335 335 333 330 329 325 322 320 317 314 314 315 318 311 315 316 317 332 333 333 334 335 337 337
324 336 340 342 342 340 343 344 346 347 347 348 348 348 344 342 340 336 335 334 334 331 329 326 323 321 318 315 312 312 315 317 304 311 314 314 326 326 326 328 330 332 333
322 326 335 338 340 340 341 337 340 342 343 344 343 340 336 336 335 334 331 334 332 329 328 325 322 320 317 313 309 307 311 311 300 307 309 313 323 323 322 324 326 327 328
320 323 325 333 335 337 336 336 333 336 338 338 336 332 330 328 328 326 325 330 330 328 327 324 321 319 314 309 305 306 307 296 298 304 306 317 317 319 320 321 322 324 325
314 320 324 326 332 334 340 337 335 336 337 337 334 332 330 325 324 324 321 325 328 327 326 323 321 317 308 298 296 303 296 295 295 301 307 316 315 317 318 319 321 323 324
313 317 323 326 327 330 333 332 335 338 335 332 332 329 327 324 322 319 316 318 317 318 315 316 312 305 302 299 295 295 295 294 294 298 307 313 317 316 317 320 323 322 321
307 316 320 324 326 327 331 329 334 335 334 333 332 329 328 326 322 314 313 312 312 310 308 306 304 301 298 296 296 295 294 294 294 298 305 313 316 317 320 320 320 322 322
304 307 317 322 325 328 326 326 330 332 332 330 332 331 330 326 322 315 311 311 310 308 306 304 301 297 296 295 295 295 294 294 294 299 300 313 318 318 319 321 322 322 323
302 304 309 321 324 325 327 325 324 325 327 326 325 328 330 326 321 315 310 311 310 308 305 302 298 296 295 294 294 294 293 293 294 296 301 306 316 318 318 321 323 324 323
300 302 305 315 319 322 323 324 323 323 324 324 326 324 324 324 319 313 310 309 310 307 304 299 296 295 294 294 293 293 293 293 294 295 300 304 305 314 319 318 320 323 322
298 299 301 305 317 319 320 320 323 322 321 321 322 322 321 322 318 311 308 307 307 305 301 296 295 293 292 292 290 291 292 293 293 294 295 302 302 302 309 314 318 317 316
297 298 299 300 302 314 316 317 319 320 319 319 320 321 322 320 316 312 307 306 305 301 297 296 292 292 290 290 290 290 290 291 292 294 294 298 299 299 298 306 307 309 311
296 297 298 299 300 306 309 311 313 314 315 316 317 321 321 320 315 310 307 305 303 299 295 293 292 291 290 290 292 290 289 290 290 290 293 295 293 295 295 293 294 299 308
294 295 296 297 298 300 301 305 306 308 311 312 316 319 319 318 315 309 306 305 300 298 296 293 291 291 290 289 288 287 288 289 289 289 291 291 291 291 291 291 292 295 298
293 293 294 295 296 298 300 300 303 302 302 306 310 311 315 315 314 309 304 302 298 295 293 292 291 289 290 289 287 285 283 285 287 289 289 290 288 289 290 291 290 293 295
291 292 293 294 294 295 297 299 299 300 299 298 301 304 308 311 310 309 305 302 299 298 295 293 291 291 289 289 288 288 283 283 283 286 287 288 288 287 288 289 289 291 295
290 291 292 293 293 294 294 294 293 293 293 294 295 296 299 303 304 307 305 303 299 297 295 292 292 291 289 287 287 290 288 287 283 282 285 286 286 287 286 286 287 289 293
289 288 289 290 291 292 292 292 291 291 292 292 293 293 294 297 299 300 301 302 300 298 295 293 292 291 289 289 288 286 286 286 286 283 281 282 284 285 287 286 287 287 291
288 287 288 288 289 290 291 290 290 289 289 289 289 290 291 292 294 296 297 297 297 298 295 294 293 292 292 290 288 287 287 287 285 285 282 281 281 283 285 286 286 287 288

GFSSE_sfc_thetae_030.txt.gz
Theta_e
332 341 352 354 354 355 355 354 353 352 351 350 351 350 350 350 353 353 352 351 351 349 348 345 344 342 342 341 341 342 343 344 348 351 351 350 349 350 349 350 350 349 352
335 344 349 353 355 355 355 354 352 351 350 350 349 348 349 350 352 351 350 348 347 345 345 345 343 342 339 338 337 337 338 339 339 340 346 349 347 346 346 348 349 348 350
338 345 348 351 354 354 354 353 352 351 349 349 348 348 348 349 350 350 349 347 345 344 343 342 341 339 336 335 334 334 334 334 334 335 336 334 340 344 345 345 346 348 348
339 344 347 348 353 354 353 352 352 352 351 349 348 348 348 348 349 348 348 346 344 342 341 339 339 335 333 331 331 330 329 330 331 334 334 339 343 345 344 345 345 344 344
338 343 346 347 352 353 352 351 351 352 352 351 349 349 349 349 348 347 346 344 342 341 338 337 334 331 328 327 326 326 325 327 330 334 334 335 338 344 344 342 342 343 343
337 341 344 348 352 353 351 351 351 352 352 351 352 350 349 347 346 344 344 343 340 338 336 334 331 328 324 322 320 320 322 326 329 325 326 333 334 342 343 343 342 342 342
334 338 343 347 350 351 351 351 351 350 351 352 352 351 349 347 344 341 341 341 340 337 333 332 328 324 320 318 315 317 320 322 319 320 321 326 331 338 337 341 341 340 340
333 336 342 341 344 347 349 349 349 349 350 351 350 349 349 345 341 339 337 337 336 334 332 330 325 322 319 315 314 316 318 318 316 315 315 318 333 334 335 335 336 337 337
326 335 338 342 342 340 343 344 345 347 348 348 349 348 346 343 340 337 337 336 334 333 330 327 323 320 317 314 313 314 319 315 309 310 314 314 328 327 328 329 331 333 333
320 333 335 337 340 342 343 337 339 341 342 343 343 341 337 336 336 334 332 335 334 332 329 326 322 320 317 312 309 311 313 310 305 307 310 314 324 323 323 325 327 328 329
318 322 331 335 338 339 338 338 335 337 337 337 337 333 331 332 330 328 327 332 333 330 329 325 322 320 315 308 307 309 304 296 302 303 306 317 318 319 320 321 323 324 325
312 318 324 330 334 335 340 336 338 339 340 339 336 333 334 329 325 325 322 327 330 328 329 325 322 318 307 295 295 302 294 294 298 300 306 316 315 318 319 320 321 323 324
309 314 321 326 331 333 336 336 335 338 337 334 331 330 330 327 324 320 318 319 318 319 317 319 315 306 299 296 294 294 293 293 296 297 306 314 318 317 318 320 323 324 323
303 310 316 322 326 329 332 332 335 337 336 335 329 326 328 326 323 320 316 314 313 312 310 308 305 302 298 296 295 294 293 293 295 296 302 313 316 319 321 323 321 321 322
298 300 307 318 324 327 327 328 331 334 333 333 331 326 328 326 324 320 317 314 311 308 307 304 303 299 295 294 294 294 293 292 293 298 300 312 317 319 321 321 323 323 323
298 298 300 314 322 324 327 324 329 332 333 330 329 327 327 327 324 319 315 311 309 308 305 304 302 296 294 293 293 293 293 292 293 297 300 305 316 318 320 322 323 324 326
296 297 298 301 317 320 324 323 323 326 325 326 324 324 324 325 325 318 314 312 311 307 305 302 298 294 293 292 292 292 292 292 293 295 300 303 304 315 320 321 324 325 324
295 296 298 301 304 316 318 320 321 321 321 322 322 322 322 322 323 317 314 313 312 309 304 300 296 293 292 291 289 290 290 291 292 293 296 301 302 304 310 316 322 323 323
294 295 296 299 299 309 315 317 318 318 318 318 319 324 323 323 320 317 314 313 310 309 301 299 293 293 291 290 290 289 289 290 291 293 293 299 300 300 300 308 309 311 315
293 294 295 297 298 300 307 310 311 313 314 314 317 321 322 320 316 314 312 310 308 305 298 295 293 291 291 290 291 289 288 289 289 289 291 296 296 298 297 296 296 299 308
292 293 293 294 294 298 298 301 304 305 306 311 314 317 319 319 315 313 311 309 305 304 302 297 292 291 289 288 287 287 287 288 288 288 290 292 291 292 293 293 293 294 298
290 291 292 292 293 294 296 297 299 299 298 300 304 307 309 314 315 311 309 307 305 300 298 295 294 289 289 288 287 284 283 286 287 288 288 290 289 289 290 291 290 293 294
287 288 291 292 292 292 293 295 295 296 295 295 296 297 301 304 307 308 307 304 302 300 298 296 294 293 291 288 287 287 281 282 283 285 286 287 288 287 288 288 289 290 293
286 287 289 290 291 291 291 291 290 290 289 290 291 292 294 296 296 299 302 303 301 299 297 296 295 293 292 290 287 289 287 285 283 282 284 285 286 287 286 286 287 288 290
286 285 286 288 288 289 289 290 289 288 289 289 289 289 290 291 291 291 292 295 298 299 297 295 294 292 292 292 289 286 285 285 285 283 282 282 284 285 287 287 287 287 288
284 284 285 286 286 287 287 286 286 286 286 285 286 286 287 288 289 289 289 289 291 292 294 295 294 293 292 292 291 290 289 286 285 284 282 282 282 284 285 286 286 287 287

GFSSE_sfc_thetae_036.txt.gz
Theta_e
331 334 351 354 354 354 353 352 351 352 351 350 351 353 352 352 352 352 352 350 350 346 344 344 343 342 341 343 344 344 347 347 347 349 349 349 349 349 351 349 349 347 350
331 336 349 353 355 355 354 354 352 351 350 350 349 350 352 353 352 351 349 347 346 343 343 341 342 340 339 339 340 343 343 340 339 341 345 346 347 346 347 348 349 346 349
333 340 347 351 355 355 354 354 352 351 350 349 349 349 351 351 351 349 347 346 345 342 342 340 340 339 336 336 336 337 337 335 338 339 342 337 339 345 345 345 346 344 345
334 342 345 348 353 355 354 353 352 351 350 349 347 348 349 350 349 348 346 344 343 342 340 340 337 335 333 332 332 332 332 336 340 339 336 339 340 344 344 343 343 343 342
334 340 344 347 352 355 354 352 351 351 351 349 348 347 347 348 348 348 345 343 342 340 339 337 334 331 329 328 328 328 330 338 337 334 332 334 336 342 342 341 341 340 341
334 339 343 348 353 354 353 352 351 351 350 350 349 347 347 348 348 346 344 342 339 338 336 334 331 328 325 322 321 326 331 335 330 325 327 331 332 342 342 342 341 341 340
330 335 339 346 351 352 352 352 351 351 351 351 350 350 350 349 346 345 344 340 337 335 333 332 328 325 321 318 319 322 329 329 321 321 322 326 331 339 338 339 340 340 337
330 334 338 338 344 347 350 350 350 350 350 351 350 350 349 346 345 343 342 339 336 333 331 330 326 323 319 316 317 320 324 323 317 316 316 319 332 334 335 336 337 338 337
325 331 334 337 339 339 343 344 346 347 347 347 348 347 346 345 344 342 340 339 335 332 331 330 324 321 317 315 316 319 319 319 310 311 314 314 326 328 329 331 333 333 333
320 327 330 333 341 339 339 336 337 341 343 344 342 340 337 338 338 337 333 336 336 333 330 329 323 320 317 313 313 315 316 314 306 307 309 312 325 324 324 326 328 329 330
314 317 326 330 338 340 342 335 332 335 337 337 337 334 329 333 332 328 328 332 336 334 331 329 323 320 316 310 311 309 305 300 300 302 305 317 320 321 320 321 323 325 326
299 307 315 325 334 337 339 340 339 336 339 339 338 336 333 331 330 328 324 327 331 330 331 328 323 318 305 293 292 299 293 295 297 298 302 317 319 319 320 320 321 322 324
295 297 298 304 324 335 336 337 337 339 335 337 337 335 333 330 327 326 325 325 325 321 318 319 312 306 298 292 292 292 291 291 294 295 299 313 318 321 320 319 320 322 324
294 296 297 297 300 327 335 336 336 336 333 329 332 333 331 328 326 324 322 322 321 318 316 312 308 304 300 296 294 292 291 291 292 294 296 308 313 319 323 321 323 324 322
293 295 296 297 298 313 329 333 333 333 334 333 331 330 329 327 325 323 322 320 319 316 315 312 308 304 300 295 293 292 291 291 291 293 295 304 313 317 322 325 324 323 323
293 294 296 298 301 307 321 326 330 331 331 332 331 329 326 326 324 322 321 317 317 316 314 309 306 303 300 294 293 292 291 291 290 291 295 298 310 315 320 325 324 324 325
292 293 295 298 301 312 317 320 326 329 328 328 328 328 327 326 324 322 319 317 317 315 312 308 306 303 299 294 292 291 291 291 290 291 292 297 301 308 313 321 324 324 326
291 292 294 297 300 311 316 317 320 320 320 321 323 325 325 325 325 322 320 317 317 314 311 308 306 303 300 297 292 290 289 289 290 290 291 294 298 301 306 312 318 321 325
290 291 292 294 296 305 309 310 309 308 309 308 309 312 316 318 320 321 319 318 316 313 309 308 304 302 300 297 295 291 289 288 289 290 289 291 293 299 299 305 310 308 315
289 290 291 293 294 297 302 302 301 300 300 301 299 301 303 306 311 313 313 311 312 310 307 305 303 298 296 295 294 292 289 288 288 288 288 290 291 294 297 298 298 299 307
288 289 290 291 292 294 294 296 296 293 294 295 295 296 296 297 301 304 305 305 307 305 303 301 299 298 297 293 293 293 291 291 288 288 288 288 289 291 293 296 296 295 297
285 287 288 289 290 292 292 292 292 292 291 291 293 293 293 293 294 296 299 300 301 301 301 300 298 296 295 293 292 289 289 289 287 287 287 288 287 288 290 291 292 293 293
283 283 285 286 288 289 291 291 291 290 289 288 288 288 288 288 289 290 291 293 295 297 297 297 297 296 294 294 291 292 289 286 285 286 286 286 286 287 288 289 290 290 290
282 283 284 284 285 286 288 287 286 285 283 284 285 285 285 285 285 286 287 288 289 290 289 292 295 294 293 292 292 291 289 288 287 286 286 287 285 286 286 286 287 288 289
282 281 282 283 283 283 284 284 283 282 282 282 282 283 283 284 284 284 284 284 284 285 286 287 288 289 290 290 291 290 289 288 288 286 286 287 287 286 286 286 287 287 287
281 281 281 281 281 282 282 282 281 281 280 280 280 280 281 282 282 282 283 282 283 283 283 284 284 286 286 288 288 289 289 289 288 287 286 288 286 287 286 286 285 286 287

GFSSE_sfc_thetae_039.txt.gz
Theta_e
336 339 352 356 355 355 353 352 352 353 352 353 353 353 352 352 351 351 351 350 348 345 344 343 342 342 343 344 344 347 346 345 347 348 349 348 349 350 350 349 349 350 350
335 340 350 354 356 356 354 353 352 353 352 351 352 353 353 352 352 350 348 347 344 342 342 341 341 340 339 340 342 343 340 340 341 345 344 346 347 346 348 347 347 347 349
336 341 350 352 355 355 354 353 353 352 351 350 350 353 353 352 351 348 347 345 344 343 342 341 340 338 336 336 337 337 336 339 340 343 343 344 344 345 345 344 345 344 345
337 343 349 348 353 354 354 353 352 352 351 349 349 350 351 350 349 347 345 344 343 341 340 339 337 334 333 332 333 333 336 341 341 341 344 344 343 343 343 343 342 342 342
337 344 348 347 353 355 354 353 352 352 352 349 348 348 349 349 349 347 345 343 342 340 339 337 334 331 328 327 329 331 337 339 337 340 342 344 344 342 341 341 340 340 340
337 344 345 348 353 354 353 352 352 352 351 350 348 347 347 348 348 347 344 341 339 338 337 335 332 328 325 323 324 329 336 335 333 337 338 339 341 341 341 341 341 339 339
337 341 345 346 351 353 353 352 351 351 351 351 350 349 349 350 348 345 343 339 337 335 334 333 329 326 322 320 322 325 332 329 330 331 333 335 339 340 339 339 340 340 337
335 339 342 339 343 348 350 351 351 350 351 351 350 349 348 347 345 344 343 339 336 334 332 332 327 324 320 319 321 323 326 323 323 325 326 329 332 334 335 336 337 338 338
334 336 339 342 342 337 343 344 346 348 348 348 347 347 345 345 345 343 342 340 335 334 332 331 326 322 319 317 319 321 321 319 319 319 320 323 328 328 330 331 333 334 334
319 329 334 338 341 344 347 337 339 341 343 343 342 340 337 337 339 337 334 337 336 334 332 329 325 322 318 314 315 314 313 312 313 315 317 320 325 325 324 326 328 330 330
303 305 313 329 337 340 343 341 332 334 337 337 338 334 331 342 340 336 330 333 335 334 331 328 324 322 314 307 309 308 305 307 308 309 312 318 321 322 322 322 322 325 326
299 301 302 304 318 336 339 342 340 339 343 344 343 341 342 341 338 332 326 328 332 330 330 328 324 317 308 300 300 302 301 301 305 305 308 315 320 321 321 321 321 322 323
297 299 300 301 303 314 337 339 340 340 343 340 339 338 337 334 331 329 328 328 328 322 324 322 319 316 308 302 301 301 300 300 301 303 303 310 315 320 323 321 321 322 324
296 298 299 301 302 306 328 337 338 337 336 337 337 339 334 331 330 328 326 326 325 323 320 319 316 314 310 304 301 301 300 300 300 301 303 305 313 316 321 325 323 324 324
295 297 298 300 303 307 319 334 335 336 336 335 334 332 332 331 328 327 326 324 324 321 319 317 315 315 312 307 302 300 299 299 299 300 302 303 309 316 320 324 326 324 324
294 295 297 300 305 311 322 331 332 332 331 332 331 330 330 330 329 326 324 322 321 322 319 317 313 313 313 307 303 300 299 299 298 298 299 302 306 311 316 322 327 325 325
293 294 296 302 310 320 323 326 327 326 324 323 323 323 325 326 325 324 323 322 321 318 317 313 310 308 306 302 302 300 299 298 298 298 298 300 303 306 310 317 322 326 326
292 293 296 300 311 314 314 314 312 311 311 311 311 313 315 317 321 321 320 318 318 317 314 312 309 309 307 302 300 300 299 298 297 297 298 298 300 303 306 309 315 318 321
291 292 295 298 303 306 305 304 303 303 302 303 303 304 307 310 314 313 312 312 313 312 309 308 305 303 302 301 300 300 298 298 298 296 297 297 298 300 303 306 307 308 313
290 292 294 296 297 301 302 301 300 299 298 297 297 298 299 302 307 307 306 307 309 307 305 305 303 301 299 297 297 296 298 297 298 298 297 296 296 297 299 302 305 307 306
289 290 291 293 294 297 298 298 297 294 294 294 293 293 294 296 298 302 303 303 305 303 302 302 301 300 299 297 296 299 299 297 295 296 296 296 296 296 297 298 301 304 304
286 287 288 290 291 294 295 295 295 293 291 290 289 289 290 291 293 294 295 296 298 299 299 299 299 300 300 296 295 294 294 299 295 294 295 294 295 295 296 296 297 298 301
284 284 286 287 288 289 292 293 292 291 289 287 287 286 287 288 288 289 290 291 292 292 293 294 296 296 296 298 297 296 295 292 292 299 296 294 294 295 295 295 295 296 297
283 284 285 285 286 286 288 287 287 285 283 284 285 286 286 286 286 286 287 287 287 288 288 290 291 293 295 293 296 295 294 292 291 290 294 297 295 293 295 296 295 295 295
283 283 283 284 284 284 285 286 285 283 284 284 284 284 285 285 285 285 285 285 285 286 286 286 287 287 289 290 291 292 293 293 292 288 288 291 295 296 296 295 295 295 295
283 282 282 283 282 283 283 283 283 283 283 283 283 283 283 283 283 283 284 284 284 284 284 284 285 285 285 286 286 288 289 289 290 289 288 290 290 294 295 295 294 295 295

GFSSE_sfc_thetae_042.txt.gz
Theta_e
339 348 352 356 355 354 353 352 352 353 353 352 351 351 352 352 351 350 349 347 347 344 343 343 342 342 344 345 345 345 344 344 346 348 348 348 349 350 349 348 349 349 350
341 347 350 355 355 355 353 352 352 353 352 353 353 352 351 351 350 348 346 345 344 343 343 342 341 339 340 342 342 342 341 341 344 344 346 347 346 346 346 345 347 347 349
340 347 352 353 355 355 354 352 352 352 351 351 352 352 351 350 349 347 346 344 343 342 342 340 338 337 336 336 337 337 340 341 342 344 344 342 343 344 344 343 343 344 345
341 348 351 349 354 354 354 353 352 352 351 350 351 352 350 350 348 346 345 343 342 341 340 338 335 333 331 332 333 335 341 342 342 342 342 341 340 342 342 342 341 341 341
341 347 350 348 353 353 353 353 352 352 352 349 349 351 349 348 348 346 344 342 341 340 339 337 334 330 327 327 331 335 339 339 338 341 341 342 341 341 341 339 338 338 339
341 346 347 349 353 354 353 352 351 351 350 349 348 348 348 348 348 345 343 341 339 338 337 335 332 328 324 324 327 333 336 335 337 339 339 339 339 341 342 341 338 338 339
341 345 349 347 350 350 351 352 352 351 351 349 348 347 347 347 347 344 341 339 337 335 335 333 330 325 321 322 324 330 331 329 334 336 337 338 338 338 339 339 340 338 338
340 344 346 341 344 347 348 348 348 349 349 349 349 348 347 345 345 344 342 339 336 335 333 331 328 324 320 320 323 325 325 324 328 329 331 332 331 332 333 335 336 337 337
340 342 345 346 346 336 343 344 346 347 346 347 347 346 345 344 344 343 342 339 336 334 334 330 327 323 319 318 320 321 319 318 321 323 322 325 328 328 329 330 332 333 333
316 324 335 343 343 345 350 337 339 341 343 344 342 340 338 338 339 337 334 337 336 334 333 329 326 323 318 316 315 312 311 316 316 317 320 322 324 325 324 324 327 329 330
310 311 313 319 334 340 344 343 335 334 336 337 338 335 334 345 343 339 331 334 335 334 332 328 325 320 313 306 308 307 309 310 311 312 313 317 322 323 323 323 323 324 326
307 309 310 311 315 323 339 342 343 342 344 345 346 345 343 342 341 339 328 329 331 330 332 328 324 317 316 310 306 309 307 307 308 309 309 312 317 323 324 322 322 323 324
306 308 309 310 311 316 335 341 344 344 343 346 343 342 341 340 338 335 333 332 332 324 328 326 324 327 320 315 309 307 306 306 307 307 308 309 314 318 322 326 323 323 324
305 307 309 311 313 314 329 339 340 341 342 344 343 342 341 339 336 334 331 332 329 328 325 323 322 325 322 315 311 309 307 307 306 306 308 305 310 316 320 324 328 325 325
304 306 309 313 316 316 319 338 339 338 339 339 338 335 334 336 338 337 332 331 329 327 325 329 323 320 323 319 314 310 307 306 306 306 307 306 307 312 317 321 326 328 325
303 306 310 312 317 317 325 335 335 332 329 327 326 328 329 330 329 329 329 328 325 324 324 322 320 316 315 312 314 311 309 308 306 305 305 306 304 308 312 317 323 328 329
303 307 304 308 320 322 321 318 318 318 318 317 317 318 321 325 325 324 323 321 321 320 320 316 313 313 313 311 310 306 306 309 308 306 305 305 306 308 308 312 316 321 325
303 301 303 309 311 310 310 310 308 309 309 309 310 313 315 317 318 319 316 316 316 314 313 312 310 310 309 307 305 305 305 309 308 307 306 305 305 304 308 308 311 315 318
301 300 302 305 306 306 305 304 303 304 305 307 308 307 309 312 312 313 312 311 311 311 310 310 307 309 308 308 304 305 306 303 304 307 307 306 305 304 304 306 306 308 311
301 302 302 302 303 303 303 303 304 303 303 302 302 303 305 306 311 312 310 308 310 310 309 310 308 305 304 302 301 302 305 303 302 305 307 304 304 303 303 303 305 306 307
299 301 301 301 303 306 308 306 303 300 298 297 297 298 300 301 302 304 305 306 307 306 306 306 308 307 306 304 306 309 309 306 304 304 305 305 303 301 302 303 303 304 305
296 298 299 300 301 302 303 302 300 296 294 294 294 293 294 295 296 297 299 299 300 301 300 301 303 305 305 304 301 304 304 306 303 305 306 303 302 303 303 301 301 302 303
293 294 295 297 298 299 299 297 296 295 294 292 291 291 291 292 292 292 292 293 293 295 294 296 298 299 299 301 301 299 298 298 298 304 304 302 303 302 302 304 303 303 302
291 292 293 294 294 295 296 296 296 293 289 289 289 290 290 291 290 291 291 291 291 291 291 291 291 293 294 293 299 298 300 297 294 294 300 301 300 300 302 302 302 302 303
290 291 291 291 291 292 292 293 291 289 289 289 289 289 289 289 289 289 289 289 289 289 289 289 290 290 290 289 289 290 292 294 297 292 290 293 294 295 298 299 299 300 301
288 289 289 289 288 289 290 290 290 289 288 288 288 288 288 288 288 288 288 288 288 288 288 288 288 288 288 288 288 289 288 287 286 286 285 286 288 290 293 295 296 298 300

GFSSE_sfc_thetae_045.txt.gz
Theta_e
341 350 354 355 354 353 352 352 352 353 352 350 350 352 352 350 349 349 347 345 344 343 343 342 342 344 344 345 345 344 344 345 346 347 348 347 348 348 348 348 348 348 351
343 349 352 355 354 354 352 351 352 353 353 353 353 352 351 350 349 346 345 344 344 342 342 341 340 340 341 341 341 342 343 343 344 345 347 347 346 345 345 344 346 346 349
342 350 352 353 353 354 353 352 352 352 351 352 352 351 350 349 347 346 345 343 343 342 340 338 337 336 336 336 337 341 343 342 343 344 345 340 341 344 344 343 343 343 346
342 348 351 350 353 354 353 352 352 352 351 351 351 350 349 348 347 345 344 343 342 341 340 337 334 331 330 333 335 340 342 342 342 343 338 338 338 342 342 341 340 340 341
342 348 351 350 352 353 353 352 352 352 351 350 350 349 349 348 346 345 343 341 340 339 338 336 333 329 327 329 333 338 340 340 340 339 337 339 340 342 342 341 338 338 340
341 347 347 349 352 352 352 352 351 350 350 349 349 349 348 348 346 344 342 340 338 337 336 334 331 326 325 326 330 335 335 336 336 335 335 336 338 341 342 342 338 338 339
339 345 350 348 351 351 350 349 348 349 349 348 348 347 347 346 345 343 340 338 337 336 335 332 329 324 323 325 327 330 330 329 331 332 333 334 334 336 338 339 339 339 338
340 344 347 342 342 348 349 348 348 349 348 346 347 347 345 346 344 343 340 338 337 336 333 331 327 323 321 322 324 324 323 324 324 326 327 329 331 331 333 333 335 336 336
341 342 344 345 345 337 341 344 345 347 346 346 346 345 344 344 344 343 342 338 336 335 332 329 326 322 319 319 317 316 317 320 318 319 319 323 327 328 327 327 331 333 333
323 328 336 341 344 345 349 338 338 342 343 344 343 341 339 339 339 336 335 338 336 335 331 328 326 322 316 313 313 311 313 317 313 315 317 317 324 326 326 326 326 327 329
314 316 318 323 335 339 343 340 335 334 337 338 339 335 334 344 342 336 332 335 336 334 331 329 325 320 312 309 309 310 313 309 310 311 312 315 319 325 327 325 324 325 326
310 312 313 315 319 330 338 342 345 345 345 343 344 344 343 342 342 339 329 329 331 331 331 328 324 320 320 315 309 312 308 309 309 310 309 312 316 320 323 327 325 324 326
309 311 312 314 315 318 333 340 344 345 343 343 343 343 342 342 340 340 336 332 332 325 331 328 326 328 324 319 314 311 309 310 309 309 308 309 314 318 322 324 328 326 326
309 310 313 315 317 317 325 338 341 341 343 342 341 341 341 340 339 336 334 334 335 330 330 328 327 326 324 319 316 313 311 310 308 309 307 307 309 314 318 322 326 330 326
307 310 314 318 320 320 320 337 339 336 337 335 334 335 337 336 336 336 334 331 332 330 327 329 326 322 322 321 318 314 313 312 310 309 310 307 306 309 313 317 322 328 330
308 311 313 315 322 318 328 331 328 328 325 325 325 328 331 331 329 329 328 324 323 323 322 322 319 319 317 314 316 314 313 313 312 311 310 310 307 306 309 313 317 321 326
309 308 308 314 320 320 316 316 317 318 317 316 318 320 321 325 327 324 323 323 321 320 318 318 315 314 316 314 315 315 313 313 312 311 311 310 310 309 306 309 313 316 320
307 305 307 311 311 309 307 308 308 310 312 312 313 314 317 318 319 317 315 314 314 314 313 312 310 310 309 310 312 313 310 310 313 312 311 310 311 308 311 307 308 310 312
304 304 305 307 306 305 304 304 305 306 306 308 310 311 313 315 316 315 314 314 312 312 312 311 311 310 311 311 308 309 310 308 307 307 310 311 309 308 306 309 306 307 309
304 305 304 305 304 304 305 304 303 302 303 304 304 305 306 308 310 311 311 312 311 311 309 311 311 311 308 307 306 307 310 311 308 307 308 305 306 305 305 306 307 306 308
303 303 304 305 305 307 307 306 304 301 300 299 298 300 300 301 303 304 304 305 306 304 304 305 307 308 306 305 308 307 310 309 306 306 308 307 305 305 306 304 304 304 304
303 304 304 305 308 309 307 305 302 299 297 296 295 295 296 296 296 297 298 298 300 299 298 299 301 303 303 303 299 303 303 305 304 306 306 305 305 304 304 305 305 304 305
301 302 302 304 304 304 303 300 298 297 296 294 293 292 293 294 294 294 294 294 294 294 293 293 294 295 295 299 299 298 296 295 296 304 303 303 302 301 301 301 302 303 303
297 298 300 300 301 301 302 301 299 295 291 291 291 292 292 293 292 292 293 293 293 292 292 292 292 292 292 290 294 293 297 295 292 290 296 296 293 293 294 299 295 297 301
295 295 296 295 295 296 297 297 295 292 292 291 290 290 290 291 291 290 291 291 291 291 291 291 291 291 291 289 290 290 290 290 294 286 284 286 290 292 294 292 294 297 298
292 293 293 292 292 293 294 294 292 291 290 290 290 290 289 289 289 289 289 289 288 289 289 289 290 289 289 289 288 288 287 285 285 284 283 284 285 287 290 290 295 294 297

GFSSE_sfc_thetae_048.txt.gz
Theta_e
340 349 353 355 353 352 352 352 353 352 352 351 352 352 350 349 347 347 346 345 343 343 343 343 343 343 344 344 344 345 345 345 346 348 348 347 347 346 347 348 348 347 350
344 349 352 354 355 354 353 353 354 354 353 353 352 351 350 349 347 346 345 343 342 341 341 340 339 339 340 341 343 344 343 344 345 345 347 346 346 345 344 344 346 346 349
345 349 352 353 354 354 353 353 353 353 354 352 352 351 350 348 346 345 344 343 341 341 339 337 335 334 336 337 342 343 344 343 345 344 344 338 339 344 343 342 342 344 346
345 348 350 349 351 353 352 353 352 352 352 352 351 350 349 347 346 345 343 342 340 339 339 336 333 331 332 335 339 341 343 343 343 342 335 338 339 343 343 341 340 341 342
341 347 349 349 351 350 352 352 352 352 352 352 350 349 348 347 345 343 341 340 339 337 337 334 330 328 328 332 337 338 338 339 339 335 332 335 335 341 343 342 338 339 340
340 348 346 349 351 350 352 351 351 350 349 350 349 349 348 347 345 342 340 339 338 336 335 332 328 326 328 329 332 333 333 333 335 329 331 332 330 339 340 340 340 339 339
335 346 347 348 349 349 350 350 349 349 349 349 349 348 347 346 344 341 340 338 337 335 333 330 326 324 325 326 326 327 326 326 322 323 325 324 326 333 334 336 337 338 337
337 343 346 341 343 347 348 347 347 347 346 347 348 348 346 344 344 341 339 338 337 335 332 329 325 322 321 321 321 320 321 324 317 315 319 320 330 329 329 330 332 334 334
336 339 340 344 341 338 340 344 345 345 346 346 346 345 344 343 343 342 340 338 337 334 332 329 325 320 318 317 315 316 319 320 309 313 316 317 328 328 328 327 327 329 330
316 319 323 334 339 342 344 337 339 341 342 343 342 340 338 338 338 336 334 337 337 334 332 329 326 319 314 313 312 315 316 315 305 307 308 313 323 327 328 326 326 326 327
310 310 312 316 330 335 339 339 334 336 337 337 337 333 331 338 335 331 332 335 336 334 331 329 325 319 314 314 313 313 312 302 303 304 305 316 320 323 326 328 326 325 327
304 306 308 309 312 322 334 338 342 341 339 339 340 337 339 337 337 332 327 330 332 331 331 328 324 322 320 308 304 309 302 301 302 302 304 314 317 322 324 325 329 327 327
303 306 308 310 311 312 328 336 337 339 337 336 338 336 335 335 331 331 327 328 326 324 326 324 322 321 316 311 309 305 303 301 300 301 307 311 314 318 321 324 327 330 327
304 307 310 313 314 312 314 334 336 337 335 334 334 335 334 332 332 330 328 330 329 327 325 324 320 319 317 313 310 308 306 304 302 301 303 309 309 313 316 320 324 329 330
303 308 310 313 316 315 313 334 332 330 329 328 328 330 331 329 329 329 329 327 325 326 323 321 319 318 313 314 313 310 308 307 305 304 302 308 309 310 313 315 319 322 327
306 306 308 315 318 319 321 324 322 320 320 321 320 321 326 327 325 324 323 322 320 321 319 317 315 315 313 312 312 310 309 308 308 306 304 303 311 308 310 314 317 318 321
305 307 309 313 314 313 314 315 315 315 316 315 315 317 318 318 316 316 315 314 315 316 315 314 313 312 312 312 313 311 308 308 308 307 306 305 305 309 310 312 312 314 315
303 305 308 310 308 307 309 310 310 311 311 312 313 312 313 314 313 312 311 311 312 313 313 311 310 310 310 308 306 306 305 306 306 304 305 305 304 303 306 310 310 311 312
303 305 306 306 304 304 305 305 305 306 306 306 307 306 307 311 312 310 308 308 308 307 308 307 305 304 302 301 301 302 304 304 302 304 304 302 301 300 300 307 309 308 309
304 305 305 304 304 304 303 302 302 301 300 301 299 300 302 304 304 303 303 302 303 301 300 300 304 303 299 298 301 302 303 303 301 300 300 302 299 301 300 299 299 300 308
303 304 304 304 304 305 304 302 299 296 294 294 294 295 295 296 298 298 298 298 297 295 295 296 298 298 297 297 296 297 301 299 298 299 299 298 299 300 299 300 299 299 301
302 302 303 304 305 306 303 300 295 293 292 291 291 291 292 292 292 293 291 291 291 290 290 290 290 294 293 292 292 294 293 297 295 299 297 296 294 295 295 293 297 292 295
300 301 303 303 301 299 296 295 293 292 290 289 288 288 290 290 290 290 290 290 289 289 288 287 287 287 286 288 288 291 288 287 289 293 290 289 288 288 288 291 290 291 294
296 297 298 298 297 297 296 293 291 289 286 286 287 287 288 288 288 288 288 288 287 287 286 286 287 286 285 284 286 288 285 284 285 284 285 286 287 287 286 287 287 289 293
293 292 292 293 293 293 293 292 290 287 287 287 287 286 286 286 286 287 286 286 286 286 285 285 284 284 284 283 283 283 283 282 282 279 277 280 283 284 285 286 286 288 291
289 289 289 289 289 290 290 289 287 287 287 286 286 285 284 285 285 285 285 284 284 284 284 284 283 283 283 283 282 282 282 280 279 279 277 278 278 281 284 284 285 286 289

GFSSE_sfc_thetae_051.txt.gz
Theta_e
339 349 351 354 353 353 352 352 353 353 353 353 351 350 349 347 346 347 344 343 342 342 342 342 343 343 344 346 345 344 345 345 347 347 347 346 345 345 346 347 347 347 350
345 350 349 354 355 354 354 354 353 353 353 352 351 350 348 346 345 344 343 342 341 340 339 337 338 339 341 343 344 344 344 345 345 345 344 345 345 344 343 342 346 346 349
347 350 350 352 354 352 353 353 353 353 353 352 350 350 348 346 344 344 342 340 340 340 338 335 334 336 338 341 342 343 344 343 343 343 342 336 338 343 342 340 341 343 346
347 350 351 347 353 352 351 352 352 353 353 351 350 349 347 345 344 343 341 339 338 338 336 334 332 331 335 338 339 340 340 339 340 339 336 336 338 343 342 340 340 341 341
345 349 348 347 352 352 352 352 352 352 351 350 349 348 347 345 343 342 340 338 337 336 334 331 330 330 333 334 335 336 336 335 335 333 330 330 331 338 341 341 339 339 339
344 348 346 348 351 351 351 351 351 350 351 350 349 348 347 344 342 341 339 338 336 334 331 329 327 328 328 329 331 331 330 331 328 323 323 326 326 336 337 338 338 337 338
343 346 347 346 348 349 350 350 349 348 349 350 348 348 346 344 342 340 339 338 336 333 330 326 325 324 324 324 324 325 326 328 316 319 319 320 324 331 331 334 334 334 335
343 344 346 340 343 346 347 347 347 348 348 348 348 347 346 344 342 340 339 338 336 334 331 326 323 321 320 319 320 321 323 322 315 314 315 317 330 330 330 329 330 332 332
321 333 340 342 339 339 343 342 344 345 345 345 345 345 343 342 342 341 340 338 336 334 332 328 321 318 316 316 317 319 321 318 308 308 313 314 330 330 329 327 328 328 329
310 313 315 327 341 341 340 336 338 340 341 342 340 338 336 337 337 336 334 337 336 334 332 328 321 318 315 315 318 319 315 312 304 304 308 314 324 326 330 329 327 328 328
307 307 308 310 317 335 338 337 334 336 337 336 335 331 330 335 335 333 332 335 335 334 331 328 324 318 314 315 318 316 309 300 301 301 306 320 322 325 327 329 329 328 328
301 304 306 308 309 314 333 339 339 338 338 339 337 334 337 336 333 331 327 329 331 331 330 328 326 323 315 306 304 308 300 299 299 301 304 316 318 321 324 326 330 329 328
301 305 308 309 309 310 322 334 337 336 334 333 335 336 333 333 330 326 325 324 324 324 325 323 320 316 311 309 306 304 303 300 299 301 306 313 315 318 320 322 326 330 330
303 307 309 312 314 310 312 332 334 332 330 328 331 335 334 331 331 329 330 330 325 326 324 322 319 318 314 311 309 307 306 303 302 300 302 311 313 316 318 320 321 323 327
304 305 307 311 314 315 312 330 328 324 323 324 327 330 329 328 329 328 326 324 323 321 319 318 318 316 312 313 312 309 308 307 305 303 302 308 313 314 317 320 320 320 321
304 304 307 314 314 318 323 321 320 321 320 320 320 321 324 324 322 322 319 319 318 319 317 314 313 311 312 310 311 310 308 307 307 305 303 303 313 313 315 316 317 318 318
303 304 307 311 312 313 315 316 316 316 316 315 315 316 315 315 313 314 314 313 314 313 312 312 312 310 308 309 309 308 306 306 305 304 304 303 302 309 312 313 314 315 316
302 303 306 308 307 309 311 311 311 312 312 312 311 311 312 312 311 310 310 311 311 311 310 306 306 303 301 301 300 301 304 304 303 303 301 300 300 300 304 310 310 311 314
302 304 305 305 305 305 306 306 305 304 304 304 305 303 304 307 307 305 304 303 302 301 301 304 301 299 296 296 298 300 302 300 300 300 299 300 300 299 298 303 305 301 305
301 302 304 304 303 303 303 302 300 299 298 298 297 297 299 300 301 300 298 297 297 296 295 298 297 296 293 293 299 299 300 296 298 297 297 295 295 295 291 294 296 291 302
301 303 303 303 303 302 302 299 297 294 293 292 292 292 293 294 294 294 293 291 291 290 289 292 295 291 289 290 295 296 296 295 297 293 293 289 289 292 289 292 291 289 292
300 302 304 304 305 304 302 298 295 292 290 289 290 290 290 291 291 291 290 289 288 288 287 287 287 288 287 286 290 291 290 294 291 290 288 287 285 287 287 290 288 287 289
298 301 304 304 303 299 296 294 291 290 288 287 287 287 288 289 289 289 288 288 287 287 286 285 285 285 283 285 285 288 283 281 286 291 285 284 284 284 284 286 286 287 289
297 302 302 300 297 295 295 292 290 288 286 284 285 286 286 287 287 287 287 287 286 285 285 285 285 284 283 281 283 285 282 282 280 279 281 282 283 283 283 284 284 286 287
295 297 297 296 296 294 292 290 288 286 286 286 285 285 285 285 285 285 285 285 285 285 283 283 282 282 282 281 281 281 281 280 280 277 276 277 280 281 282 282 283 284 286
291 292 292 290 289 290 290 288 287 286 285 284 284 283 283 284 284 284 284 283 283 283 282 282 282 281 281 281 281 281 280 278 277 277 276 276 276 278 281 282 281 283 284

GFSSE_sfc_thetae_054.txt.gz
Theta_e
338 345 350 352 352 351 353 353 353 353 352 351 350 348 346 345 344 343 342 341 341 340 340 342 342 344 344 345 345 345 345 345 345 345 345 344 344 344 345 346 347 345 349
342 346 348 353 353 352 352 353 353 351 352 351 349 347 345 344 343 342 341 341 340 338 337 337 340 342 343 344 345 345 342 343 345 343 343 343 344 342 342 341 345 345 348
346 347 348 349 353 353 353 353 352 351 351 350 349 347 345 343 343 341 340 339 339 337 336 334 335 339 340 341 342 340 342 343 343 342 341 336 337 341 340 340 340 343 345
347 349 348 348 351 352 352 352 352 351 350 349 348 345 344 343 342 340 338 338 337 335 334 333 333 336 336 338 339 337 339 338 336 334 331 331 334 340 341 339 339 339 339
345 348 347 348 351 351 351 352 352 351 351 349 348 346 344 343 341 340 338 336 334 332 331 330 330 330 332 334 334 333 335 333 330 326 324 327 328 334 337 339 337 337 337
345 347 345 348 351 351 351 351 351 351 350 349 348 346 344 342 341 340 338 335 333 330 328 327 327 327 327 329 328 331 330 329 324 319 320 324 323 333 335 335 335 335 336
342 345 345 346 349 350 350 350 350 350 349 348 347 346 344 342 340 340 338 336 334 331 327 325 324 323 323 325 325 326 326 323 314 315 317 319 324 331 331 331 333 333 333
342 345 345 339 342 345 347 347 346 348 348 348 347 345 343 342 341 340 338 336 335 333 328 322 320 319 320 321 321 322 322 317 310 310 313 316 332 331 330 329 329 330 331
328 331 340 341 340 339 341 341 343 344 345 345 346 345 343 342 341 340 338 336 335 333 327 322 319 318 318 318 318 318 318 313 302 307 312 314 329 331 331 329 329 330 330
309 312 316 334 339 340 341 335 337 339 340 341 340 338 336 336 337 336 334 336 334 332 327 323 320 318 317 317 317 315 312 310 300 303 308 317 327 328 330 331 330 330 329
306 306 308 314 322 336 341 336 334 335 336 336 334 331 330 334 335 333 332 334 334 332 329 326 322 318 315 317 316 312 307 299 299 301 305 320 322 325 327 328 331 330 329
301 305 307 308 310 317 333 339 338 338 339 339 335 333 334 335 333 331 326 328 331 330 331 328 324 319 312 305 304 306 299 299 300 300 306 318 319 321 323 324 327 330 332
300 305 309 311 310 309 323 334 339 336 336 335 334 334 335 332 330 327 323 323 322 322 321 320 315 311 308 307 305 303 302 300 298 300 307 317 319 322 323 324 324 324 325
303 304 307 309 311 310 313 330 333 332 330 329 331 335 333 330 328 327 328 326 325 320 318 317 315 313 312 309 308 307 306 304 302 301 303 314 317 322 323 323 323 322 321
304 303 306 309 312 314 311 329 327 325 324 324 328 330 332 331 329 327 324 323 322 320 316 316 316 311 310 311 310 308 307 306 304 303 304 312 316 317 320 321 321 322 322
304 303 306 312 315 317 324 322 321 321 321 321 321 323 324 325 323 320 318 318 317 317 314 311 311 309 308 309 309 308 305 305 304 302 301 303 312 313 315 317 316 319 320
303 305 306 309 314 313 316 317 317 317 317 316 316 316 316 317 317 316 314 313 313 313 313 312 310 308 304 305 304 305 304 303 302 300 300 300 299 305 309 308 307 311 314
302 303 305 309 310 312 313 313 313 313 313 313 313 313 312 311 311 312 311 310 311 310 307 305 303 298 297 298 299 301 300 300 299 298 298 297 294 294 300 304 301 307 309
301 302 302 304 307 307 307 306 305 305 305 305 307 306 305 306 305 303 301 300 301 300 301 298 294 294 294 296 299 299 297 297 296 294 292 293 290 289 292 296 297 300 304
301 301 302 304 304 303 302 301 300 298 297 299 300 299 299 300 299 297 295 294 295 296 295 294 290 289 290 294 297 295 295 294 292 288 287 289 289 287 289 289 287 289 299
299 300 300 303 302 303 301 299 298 293 294 294 294 293 294 294 294 292 291 290 290 290 290 291 290 286 287 287 295 294 293 290 287 287 285 285 286 286 286 286 286 286 289
299 300 300 301 302 303 303 297 294 292 291 291 290 290 290 291 290 289 288 287 287 287 285 285 287 285 284 284 291 291 289 292 289 285 284 284 282 283 284 285 285 286 287
298 299 301 301 302 300 295 293 291 290 290 289 286 287 288 289 288 288 287 286 286 285 284 283 284 284 282 283 283 287 281 280 282 288 282 282 281 281 282 283 284 285 285
297 299 301 305 298 295 295 292 291 290 287 285 285 285 286 286 286 286 286 285 284 284 283 283 284 283 282 280 282 284 281 281 278 277 279 280 281 281 281 281 282 283 285
298 301 299 297 295 294 294 293 291 286 286 285 284 284 284 284 284 284 284 284 283 283 282 282 282 282 282 281 280 280 280 279 278 277 275 277 279 279 280 281 281 281 283
294 297 297 296 294 293 293 291 289 286 284 284 283 282 282 282 282 283 283 283 283 283 282 282 281 281 280 280 280 280 280 278 277 276 275 275 275 278 279 279 279 280 281

GFSSE_sfc_thetae_057.txt.gz
Theta_e
336 341 348 351 353 353 353 352 352 352 352 348 347 346 344 343 342 342 341 340 339 340 342 343 344 344 344 345 344 343 344 344 344 344 343 342 342 343 344 344 346 344 348
341 344 348 350 351 351 352 352 352 351 351 348 346 345 344 342 341 341 341 339 338 337 337 340 342 343 342 341 343 345 344 343 343 342 341 341 341 340 341 341 344 343 345
342 346 347 351 352 352 352 352 351 351 350 348 346 344 343 342 340 340 339 338 337 336 335 337 339 340 341 339 343 344 342 339 338 337 336 331 334 339 339 338 339 341 342
344 346 346 347 352 353 352 352 351 350 350 347 345 344 343 341 339 338 337 335 334 333 333 333 335 336 337 336 340 338 336 334 333 331 327 327 329 337 337 337 337 338 338
344 346 345 347 348 351 352 351 351 350 350 348 345 344 342 341 339 337 335 332 331 329 329 330 330 332 333 334 336 335 333 330 328 323 321 323 324 333 336 336 335 335 336
343 345 344 347 350 351 351 351 350 349 348 348 345 343 342 341 339 338 336 333 329 327 327 326 327 329 329 330 331 331 328 326 322 316 318 323 322 332 333 333 333 333 334
341 343 344 345 348 349 350 350 350 348 348 347 346 343 342 341 339 338 337 335 331 326 324 324 324 325 325 326 328 326 322 321 312 313 314 318 324 331 331 331 331 331 332
340 343 344 339 342 345 347 348 348 348 347 346 346 343 342 341 339 338 336 335 332 326 322 321 321 322 322 323 323 320 316 314 309 309 312 316 331 332 332 332 331 331 331
332 338 343 341 339 337 341 342 344 344 345 344 344 343 342 341 340 338 337 335 332 328 324 321 320 320 319 320 320 318 314 312 303 308 313 316 330 331 333 331 331 330 330
314 317 327 337 338 338 340 334 336 339 341 342 340 338 336 336 337 335 333 335 332 328 325 322 320 319 319 318 316 314 311 308 300 304 308 317 328 329 330 332 331 330 330
307 308 310 324 329 339 340 335 332 334 335 335 334 331 329 332 335 333 331 333 332 330 327 324 320 318 315 315 313 310 306 298 300 302 307 323 324 326 327 327 329 331 333
303 308 307 310 315 322 336 337 336 336 338 338 334 333 333 334 333 332 326 328 329 328 330 325 321 316 309 303 303 305 299 299 299 301 310 324 326 327 327 325 325 325 326
300 305 309 310 310 311 322 335 336 335 335 337 332 333 334 331 329 328 325 322 321 319 318 315 311 309 307 306 305 304 302 300 299 303 314 322 324 326 326 326 325 325 324
302 305 307 309 311 311 311 328 334 331 333 333 334 334 331 329 326 325 325 324 322 318 315 313 311 310 309 309 307 306 304 302 302 305 311 316 320 323 324 324 324 323 323
302 304 305 307 310 312 309 330 329 327 328 328 331 333 332 329 328 327 324 322 321 319 315 312 311 310 309 309 308 306 304 302 300 302 306 311 316 314 315 318 320 321 321
302 303 305 309 311 312 318 324 323 323 323 323 323 326 328 327 324 321 319 318 317 316 314 313 311 308 307 310 308 305 302 300 300 298 297 298 309 308 308 313 314 317 318
302 303 305 310 315 313 319 318 318 319 319 319 318 319 320 321 319 317 316 314 314 314 312 309 306 305 304 304 303 301 299 298 296 295 293 293 294 300 303 307 309 310 312
301 302 304 311 313 314 315 315 314 315 315 315 315 315 315 315 316 314 312 310 310 308 306 304 301 300 298 299 298 297 296 294 292 291 290 290 290 290 293 301 303 304 307
300 302 302 305 310 310 309 308 307 307 308 309 310 310 309 308 309 309 306 305 305 302 297 295 293 295 297 297 296 294 292 289 286 288 287 287 287 287 287 293 295 298 303
300 301 301 305 306 306 304 302 301 300 299 301 303 303 302 301 301 301 299 300 298 294 291 290 291 290 292 294 294 291 289 288 285 284 284 286 285 285 285 285 285 288 299
299 299 300 303 304 303 302 301 301 296 296 296 296 296 297 295 293 293 292 292 292 291 289 289 288 292 287 288 289 289 288 285 284 283 282 282 283 284 284 284 285 286 288
298 299 299 301 303 303 303 296 296 294 291 292 293 293 293 291 290 291 290 288 287 287 286 286 286 284 283 283 291 289 286 289 286 283 282 283 281 282 283 284 284 285 284
298 298 300 301 303 304 294 293 291 291 291 290 290 290 289 289 288 288 286 286 285 285 284 283 283 283 281 282 282 287 281 284 281 286 281 280 280 280 281 282 283 284 283
299 299 301 300 302 296 295 294 294 294 292 290 289 288 286 286 285 285 285 284 283 283 283 282 283 282 282 280 282 282 280 280 277 276 279 279 280 280 279 280 280 282 281
299 299 300 301 297 295 295 295 294 293 288 288 287 286 283 284 284 284 283 283 283 283 282 282 282 282 282 280 280 280 279 278 278 276 275 276 278 278 279 279 279 279 279
297 299 300 300 296 293 294 293 291 288 286 286 285 284 282 282 282 282 282 282 282 282 282 282 281 281 281 281 280 280 279 277 276 275 274 275 275 277 278 278 278 278 278

GFSSE_sfc_thetae_060.txt.gz
Theta_e
334 339 348 351 350 351 351 351 351 351 349 346 345 344 343 342 342 340 339 338 340 341 343 344 345 344 343 346 346 345 344 344 343 342 341 341 342 343 344 344 345 342 347
339 343 346 350 352 351 351 351 350 351 349 345 344 343 342 341 340 340 339 338 337 338 341 342 342 342 344 346 344 342 341 340 339 338 337 338 340 340 340 339 342 341 346
340 344 345 349 351 352 352 352 351 351 348 346 344 343 341 340 339 338 337 336 336 337 338 340 341 340 343 341 340 339 337 336 334 334 334 327 330 336 338 337 337 339 342
342 344 345 346 350 351 352 349 351 351 348 345 344 343 341 339 337 336 334 333 332 333 334 337 339 338 340 339 337 335 334 332 331 329 324 324 328 336 336 336 336 336 336
342 344 344 347 350 351 351 351 350 350 348 345 343 343 341 340 337 335 332 330 329 330 330 334 335 337 337 337 334 332 331 330 327 323 321 322 322 332 335 335 333 333 334
341 343 343 347 351 351 351 350 349 349 348 345 343 342 341 340 338 336 333 329 328 327 328 330 331 332 333 331 329 328 328 327 321 315 318 324 322 333 334 333 332 332 333
340 341 342 345 347 349 350 349 349 348 348 346 343 342 341 340 338 337 335 330 326 325 325 327 328 328 329 326 323 322 323 322 312 313 315 320 325 333 334 333 332 332 331
340 341 342 339 342 345 347 348 348 346 346 346 344 342 341 339 338 336 335 331 326 323 323 324 324 324 325 322 319 319 319 317 310 310 313 319 332 333 333 333 332 331 331
336 338 340 340 339 338 340 342 344 344 345 344 344 343 341 340 339 337 336 332 329 326 323 322 321 322 321 320 317 315 314 314 304 308 313 317 331 333 336 335 333 333 331
322 327 333 336 337 338 338 334 337 339 341 341 340 337 335 335 335 334 332 333 330 327 324 323 321 321 319 317 315 313 311 310 304 308 311 321 329 329 329 329 330 331 333
311 314 317 330 335 337 340 335 332 334 336 335 334 331 328 333 333 330 329 332 331 329 325 322 319 316 315 314 312 310 306 300 305 309 313 327 328 328 328 327 327 326 327
307 309 310 313 325 329 339 337 335 336 337 338 335 331 331 333 333 331 325 326 327 326 324 321 318 314 308 303 303 305 300 302 307 312 319 326 328 329 329 328 327 327 326
305 306 311 310 312 318 325 335 333 332 333 333 332 332 334 331 328 328 325 322 319 317 313 312 309 308 307 306 304 302 302 304 306 310 316 321 322 325 326 326 325 325 325
302 304 308 309 310 311 314 324 334 332 333 332 332 332 332 330 327 325 323 323 318 315 312 310 309 309 308 306 304 302 301 302 305 306 310 313 316 321 323 323 323 323 322
300 303 306 306 309 311 310 322 330 331 331 332 333 332 330 328 326 324 324 322 319 315 312 309 310 308 307 306 304 302 299 297 296 297 301 306 310 314 317 318 318 320 320
300 302 304 306 309 310 310 326 326 326 326 327 328 331 330 328 326 322 320 318 316 316 314 313 311 309 308 305 301 299 296 294 293 292 292 294 304 307 310 312 313 316 317
299 301 303 306 309 311 314 321 320 321 322 321 321 324 326 325 323 320 317 315 314 314 311 308 306 307 304 300 297 295 292 291 289 289 289 288 289 299 302 307 309 311 314
299 301 303 310 310 315 316 316 316 317 317 317 317 317 319 320 319 317 314 312 312 309 307 304 304 302 299 296 293 291 288 288 287 286 286 287 286 286 293 301 305 308 310
299 300 302 305 310 313 310 310 309 310 311 312 313 313 312 314 314 312 310 308 306 303 301 300 297 298 295 292 288 286 285 284 284 285 284 285 285 284 285 294 297 299 301
298 300 301 303 307 308 305 304 303 302 302 304 307 307 307 307 307 307 305 302 298 296 295 294 295 292 294 289 287 285 284 283 283 282 282 284 284 283 284 284 284 286 295
297 299 299 303 303 305 304 304 303 299 299 298 299 300 301 301 301 302 300 297 294 292 292 295 294 292 288 288 286 285 285 282 281 281 281 281 282 283 283 284 283 283 284
297 299 299 305 302 305 307 301 299 296 293 294 295 295 296 296 296 296 295 290 289 289 290 290 291 284 283 284 287 286 284 286 284 281 281 282 280 281 282 283 282 281 281
296 298 300 304 303 304 298 294 293 294 293 293 292 292 291 292 291 290 289 287 286 287 289 286 285 286 282 281 283 289 283 285 282 284 279 279 279 279 279 281 281 280 280
297 299 300 301 304 303 296 295 297 296 294 293 291 290 289 289 288 287 286 285 284 283 283 283 282 282 282 280 280 281 279 280 278 276 277 277 278 279 278 279 278 278 278
297 298 300 300 302 297 297 297 298 295 289 290 288 287 287 286 286 284 284 283 282 282 281 282 281 281 281 280 280 279 278 277 277 275 274 275 277 278 278 278 278 277 278
297 298 299 299 297 295 297 297 297 290 289 288 287 286 285 285 282 282 282 281 281 281 281 280 280 281 280 280 280 279 278 277 275 275 274 274 275 277 278 278 277 277 277

GFSSE_sfc_thetae_063.txt.gz
Theta_e
339 343 349 349 350 351 350 351 350 350 348 345 344 343 342 342 341 339 339 341 342 344 345 345 344 346 347 345 344 343 342 341 340 341 340 340 341 343 342 342 344 344 346
342 344 347 351 352 353 351 351 351 349 348 344 343 342 341 341 340 339 338 338 341 341 343 342 345 346 343 341 340 339 338 338 337 337 337 339 339 339 339 339 342 341 343
342 344 347 350 352 353 351 350 350 348 345 344 342 341 340 339 338 337 336 337 338 340 342 340 344 343 340 339 337 335 334 334 334 333 335 333 334 337 338 337 337 338 339
344 345 347 346 351 352 350 349 350 348 346 344 342 341 339 337 335 334 333 334 334 338 340 341 342 340 339 336 335 333 333 333 332 331 330 330 331 335 336 335 335 335 335
344 345 346 346 350 351 351 349 350 348 346 344 342 341 339 337 335 332 331 330 331 334 337 339 339 337 335 333 332 332 332 331 329 329 329 330 331 333 335 335 333 333 334
344 345 345 347 351 350 350 349 350 348 346 344 342 341 340 339 336 332 329 329 329 331 333 335 336 333 329 328 329 330 329 328 326 327 329 331 331 334 335 334 333 333 333
343 344 346 346 347 350 350 349 349 348 346 344 342 341 340 339 337 333 329 327 327 329 330 330 330 327 324 324 326 326 325 323 323 326 329 330 331 334 334 333 332 332 332
342 343 345 339 342 346 348 348 347 347 346 345 342 341 340 338 337 334 330 326 326 326 326 326 326 323 321 321 323 323 321 319 320 323 326 330 335 337 337 336 334 332 332
342 342 343 344 341 338 341 342 344 345 345 344 343 342 340 339 338 335 334 330 326 325 324 324 323 321 319 318 320 320 320 319 321 323 324 327 330 331 333 332 332 333 334
338 340 341 341 343 344 345 335 337 340 341 341 340 337 334 334 334 332 330 330 327 326 324 322 321 319 318 317 318 317 316 319 322 324 326 326 329 329 329 328 328 329 330
323 329 338 339 340 342 342 338 333 334 336 335 334 330 329 335 333 332 329 330 328 325 321 320 320 318 316 315 316 314 315 317 321 324 325 329 331 332 332 330 329 328 328
319 320 327 331 336 339 340 338 341 340 341 340 339 337 337 335 334 330 325 325 325 324 322 320 317 313 309 308 310 312 313 315 316 316 319 326 328 329 329 329 328 329 329
318 315 316 319 319 331 335 338 338 337 340 341 338 337 335 333 331 330 325 322 319 315 315 314 313 311 309 308 309 310 311 311 311 310 315 322 324 326 326 325 325 324 324
311 313 313 315 316 318 322 329 338 338 338 337 337 337 333 331 330 326 324 321 318 317 316 315 313 310 308 307 307 305 305 306 306 306 310 315 318 320 322 322 322 321 321
309 310 311 312 315 315 316 321 331 337 338 337 335 336 336 332 329 326 326 323 318 316 316 314 311 309 306 304 301 299 300 299 299 300 305 308 311 314 317 319 320 319 319
306 307 309 310 313 314 315 321 329 332 332 334 334 334 333 332 327 325 324 320 318 316 316 313 311 306 303 300 298 296 294 293 293 293 295 300 305 308 312 315 317 317 316
303 305 306 308 313 314 314 321 326 328 328 328 328 331 330 329 326 323 321 317 316 315 311 310 307 303 299 296 295 293 291 291 290 290 290 291 295 304 307 310 310 311 311
302 303 305 309 313 313 316 321 322 321 323 324 323 325 326 325 325 322 319 315 315 311 309 308 304 299 296 293 291 290 290 290 289 289 289 290 290 293 299 302 303 306 308
301 303 304 309 312 314 316 316 318 316 317 318 318 319 321 321 320 319 316 312 310 308 306 304 301 297 291 289 288 288 288 288 288 288 288 288 288 288 289 294 297 299 303
300 302 304 307 310 312 311 308 309 307 307 311 312 313 314 315 315 315 312 308 306 302 302 301 298 295 291 289 286 286 286 287 287 287 287 287 287 287 287 286 287 290 297
299 301 303 305 308 308 308 307 307 305 303 303 305 307 309 310 310 310 308 302 303 301 301 299 297 291 289 289 287 286 285 286 286 286 286 287 286 286 286 285 286 286 287
298 300 302 305 307 308 310 307 305 301 298 299 299 300 302 304 306 305 302 298 297 298 298 298 295 291 289 290 289 290 285 287 285 285 285 285 285 286 285 284 284 284 285
297 299 302 305 306 307 308 299 296 296 297 295 295 296 296 300 300 300 297 294 296 300 298 298 295 292 289 288 291 295 289 290 288 286 283 284 284 285 284 283 283 283 283
297 300 302 304 305 306 300 302 301 302 299 297 297 294 293 295 295 296 292 293 295 299 297 296 294 293 291 289 285 284 286 290 287 282 283 283 283 283 284 283 282 282 283
297 299 302 304 304 303 300 303 302 301 298 295 293 292 290 290 291 291 290 290 292 294 295 293 289 289 291 288 286 284 284 283 283 283 280 281 282 283 284 283 283 282 282
296 299 301 302 304 299 299 301 302 300 293 292 291 291 289 288 287 287 287 288 288 289 290 289 288 288 287 286 286 285 284 284 282 282 281 280 281 282 283 283 282 282 282

GFSSE_sfc_thetae_066.txt.gz
Theta_e
341 343 348 348 349 350 350 349 349 348 345 343 343 342 341 341 340 341 343 343 345 344 346 347 347 345 342 342 341 340 340 339 339 340 340 340 341 342 342 343 343 342 345
343 344 346 350 350 350 350 350 349 348 345 343 342 342 341 340 339 339 341 342 343 343 346 347 345 342 340 338 336 337 337 337 336 339 340 340 338 338 339 338 341 339 342
343 344 346 348 351 351 349 350 348 347 343 342 341 340 339 338 338 338 338 340 342 342 345 345 342 340 338 336 335 334 335 334 335 337 337 332 334 336 337 336 336 337 338
344 345 346 347 351 350 349 350 348 347 343 342 340 338 337 336 335 335 335 338 339 340 344 343 341 338 336 334 333 334 334 333 335 335 331 331 331 335 336 335 335 335 334
344 345 346 347 351 350 349 348 348 347 345 342 341 339 337 334 332 332 332 335 337 339 341 339 336 333 332 332 333 333 333 332 334 331 331 332 332 334 335 334 333 333 334
345 346 345 348 351 350 349 348 348 347 345 342 341 340 339 335 331 330 330 332 334 336 337 334 331 329 330 331 331 331 331 333 333 330 330 332 331 334 334 333 333 333 334
344 345 345 346 348 349 349 348 348 347 345 343 342 340 339 336 331 329 329 330 331 332 332 328 327 327 327 328 329 328 328 332 331 333 334 335 335 337 337 335 334 333 334
344 345 344 340 342 344 346 347 347 347 345 343 341 340 338 336 332 328 328 328 328 329 329 326 324 324 326 326 327 326 326 328 327 328 328 329 333 335 335 335 335 334 334
344 344 345 346 343 338 341 341 343 344 344 343 342 341 339 337 335 333 330 327 326 327 326 323 321 321 324 325 326 325 327 326 325 325 324 326 330 330 330 330 331 331 331
344 343 344 345 345 345 347 335 338 340 341 341 339 336 333 333 332 330 328 328 326 325 323 321 320 321 323 324 323 323 325 327 328 329 330 330 332 334 333 332 330 329 330
341 343 344 343 344 345 345 340 334 335 336 335 334 329 328 334 332 330 326 327 325 323 322 321 320 321 320 319 319 322 323 323 324 325 327 328 330 332 332 332 330 329 327
337 341 343 343 343 344 343 344 345 344 344 343 340 337 337 335 334 330 324 324 323 322 320 319 316 315 318 320 320 320 320 320 321 321 324 327 328 329 328 327 326 325 323
337 339 341 343 344 344 343 341 345 345 343 343 341 340 338 334 332 330 325 322 322 319 318 317 316 315 317 317 318 317 316 317 318 317 317 322 323 325 325 324 323 322 322
335 336 338 337 331 337 338 341 344 345 344 342 341 341 336 334 332 330 326 320 320 321 320 319 315 314 315 315 314 313 312 312 314 313 312 316 320 321 323 322 321 320 319
331 333 331 331 327 328 336 334 337 344 342 343 342 341 339 335 330 329 326 322 319 319 320 317 314 313 310 308 309 308 306 307 309 308 309 311 316 318 320 320 319 317 316
329 329 327 325 328 327 330 335 335 337 341 342 342 340 338 338 334 327 327 325 321 318 319 315 309 305 302 303 302 300 299 300 302 303 305 308 312 313 314 315 315 315 315
327 327 323 323 324 325 327 329 334 337 338 341 340 340 339 338 335 330 326 324 319 318 316 310 305 300 298 298 298 296 296 296 295 296 298 303 304 306 308 310 311 312 312
324 321 321 317 319 322 324 326 330 334 335 338 339 338 338 337 333 330 322 320 316 312 312 307 304 297 296 296 296 295 294 294 294 294 294 296 298 299 302 305 307 308 308
319 318 317 316 317 319 320 322 326 330 330 332 333 333 332 329 327 325 321 318 317 312 313 307 300 296 293 294 294 294 293 293 292 292 292 292 292 294 296 299 300 302 304
314 313 313 313 315 317 318 319 320 323 324 322 322 323 326 325 324 323 318 315 314 310 307 304 297 294 293 293 291 291 291 292 292 292 291 290 291 291 291 292 294 297 299
311 310 310 311 313 316 316 315 314 314 315 312 313 315 318 320 319 318 314 311 311 308 305 302 294 292 292 293 291 289 289 290 290 290 291 290 290 289 290 290 291 291 293
307 308 309 310 312 315 315 315 315 315 313 314 308 308 311 314 315 315 312 310 310 308 303 299 294 292 293 294 294 291 287 288 288 289 290 289 289 289 288 288 288 289 291
306 307 308 309 311 314 315 315 312 310 307 302 302 303 304 308 309 311 310 307 307 304 300 298 297 298 293 294 296 299 292 292 287 287 287 288 288 288 288 287 287 287 288
307 308 308 309 310 313 314 312 310 311 310 307 304 304 300 302 303 305 303 302 301 303 301 300 300 301 297 294 295 295 295 297 292 284 286 287 287 287 288 286 286 286 287
306 306 307 308 309 311 313 312 312 313 314 307 307 299 297 297 298 300 300 298 300 302 304 305 302 302 300 299 297 292 291 291 294 289 284 283 286 287 288 287 287 286 286
305 305 306 307 308 310 311 311 312 312 309 301 302 300 295 295 295 294 294 296 300 302 304 305 302 299 300 300 298 294 291 290 288 288 286 285 285 285 286 286 286 287 287

GFSSE_sfc_thetae_069.txt.gz
Theta_e
337 341 346 347 346 347 348 347 346 346 343 343 342 341 341 341 342 341 346 347 346 349 347 345 342 340 339 340 339 340 339 339 340 341 340 340 341 342 342 341 343 341 344
341 342 345 348 347 348 349 348 347 346 343 342 342 341 340 340 341 341 342 345 345 346 345 343 341 339 337 336 337 337 337 336 340 341 339 339 337 337 338 338 340 338 341
341 342 343 348 349 349 349 349 347 345 342 341 340 339 339 339 339 340 341 344 344 345 343 341 339 337 335 334 335 335 334 335 338 339 337 331 332 336 337 336 336 337 337
342 343 343 346 349 348 349 348 347 345 342 340 339 337 336 336 336 338 340 342 344 343 342 340 337 335 334 334 334 334 334 336 338 336 331 330 330 335 336 335 335 335 335
343 344 346 346 350 349 349 348 347 345 342 340 339 337 334 334 334 336 338 339 342 341 339 335 335 334 334 334 334 334 334 337 336 331 331 331 331 332 335 334 334 334 335
342 344 344 348 350 348 348 348 347 345 342 341 340 337 334 332 332 334 336 336 338 336 333 332 332 332 332 333 333 333 334 337 334 332 332 333 330 336 335 335 335 336 335
341 343 346 347 348 348 348 348 347 345 343 342 340 338 334 331 331 332 333 334 335 331 330 329 330 330 331 331 331 331 334 334 331 330 330 333 334 338 339 337 335 335 336
341 344 344 340 343 345 346 346 346 345 344 342 340 338 334 331 330 330 331 332 331 328 326 327 328 329 329 329 329 329 331 329 326 326 327 329 332 334 335 333 332 332 331
342 343 342 343 342 338 341 341 343 343 343 342 341 339 337 333 332 332 331 329 329 326 324 325 326 328 329 328 329 329 329 328 326 327 326 327 331 330 330 331 331 330 329
339 340 341 343 343 343 345 335 338 339 340 340 338 335 332 332 330 329 327 328 326 324 323 323 326 327 327 326 326 327 327 327 327 328 328 329 333 334 334 332 329 327 325
337 339 340 341 340 342 343 339 334 335 336 334 332 328 326 329 327 327 325 326 325 323 323 323 325 324 323 323 324 325 324 323 325 326 326 329 331 332 331 328 326 325 324
337 338 339 340 340 341 340 343 343 343 342 339 336 332 335 333 331 326 321 323 324 323 322 322 323 323 322 321 320 322 322 321 322 322 324 327 328 328 327 325 325 324 321
337 337 339 340 340 340 340 343 344 344 344 342 338 337 338 333 329 327 323 321 319 317 316 316 317 319 320 320 319 319 320 319 318 318 317 324 326 325 324 323 322 320 319
334 336 339 340 340 342 343 342 342 342 342 341 341 338 336 331 330 327 325 323 323 322 320 319 318 318 317 317 316 315 316 316 315 315 313 318 322 322 322 321 320 318 317
332 335 338 340 341 341 342 341 342 341 343 341 341 340 338 332 331 330 324 321 321 322 320 318 317 315 313 313 311 310 311 312 310 311 312 314 319 319 319 319 318 317 316
332 334 336 338 338 336 338 339 339 341 341 342 340 340 339 335 333 329 323 320 321 321 318 316 314 311 309 308 304 304 305 306 306 307 310 308 313 314 315 316 316 315 315
332 333 334 335 337 336 334 337 337 339 339 340 341 341 339 336 332 329 324 322 322 321 317 311 306 304 302 301 300 299 299 299 300 302 305 304 305 309 311 312 312 313 313
330 331 333 331 331 332 332 334 335 337 338 338 339 340 339 337 334 329 327 325 320 318 310 306 303 300 298 298 298 297 296 296 296 296 299 299 301 302 305 307 308 309 310
327 329 331 329 327 329 331 332 333 334 335 337 338 338 339 337 335 330 326 322 318 313 310 303 301 301 297 296 296 296 295 294 294 293 293 294 296 298 299 301 303 304 306
325 327 328 327 325 326 328 328 329 331 330 333 335 334 333 336 333 330 324 318 315 312 306 304 299 299 296 294 293 293 293 293 294 293 291 292 292 293 293 295 298 298 301
320 322 324 324 323 324 323 321 322 322 326 324 325 328 329 327 327 325 320 316 314 311 307 304 296 293 293 294 291 291 291 292 291 292 292 291 290 290 291 292 293 294 295
315 318 318 318 318 319 319 319 319 318 319 320 319 320 321 321 323 321 317 314 312 308 303 297 294 293 292 293 294 292 287 288 289 290 291 290 289 290 289 289 290 291 293
311 314 314 315 315 316 317 318 317 317 316 314 315 313 311 313 316 316 315 313 310 307 302 297 295 296 291 293 296 298 290 290 287 288 289 289 289 289 288 288 288 289 290
312 313 313 314 314 315 317 316 315 313 311 311 313 312 307 307 310 312 313 312 310 308 304 298 298 297 295 293 297 299 299 295 289 283 287 288 289 288 288 287 287 287 288
313 313 313 312 313 314 315 316 315 312 312 315 316 312 307 302 305 307 307 308 307 306 304 300 297 298 297 296 297 296 296 297 298 289 283 284 286 287 288 287 287 286 287
313 312 312 311 311 312 314 315 315 312 313 315 313 308 305 302 300 300 302 304 305 304 302 300 299 300 298 299 299 296 294 292 290 290 287 284 283 285 287 287 286 287 287

GFSSE_sfc_thetae_072.txt.gz
Theta_e
334 340 347 347 345 347 348 346 344 345 343 342 341 341 343 343 345 347 348 347 346 346 342 340 339 339 339 339 340 340 340 340 341 340 340 340 341 342 342 342 342 338 345
337 340 346 348 346 347 347 347 346 345 343 342 341 340 341 342 342 344 345 346 347 342 341 339 338 337 337 337 337 337 338 341 340 338 338 338 337 338 338 340 340 337 340
338 340 343 348 348 347 349 347 346 345 342 341 340 340 340 340 341 342 343 345 345 342 340 337 337 336 336 335 336 337 338 340 339 337 336 328 330 336 337 337 339 338 338
339 338 342 346 348 348 349 347 345 344 341 339 338 338 338 338 340 341 343 345 343 341 337 336 336 335 335 335 336 336 340 339 337 335 328 327 328 336 336 336 336 336 336
338 340 343 346 349 349 348 347 345 344 341 338 337 336 335 337 339 339 342 342 340 337 336 335 335 335 335 335 335 336 338 337 334 330 325 325 326 333 336 335 335 336 337
339 342 343 347 349 348 348 347 346 343 341 339 337 335 334 335 337 338 339 338 336 334 334 334 334 334 334 334 336 340 338 336 334 330 331 333 333 339 338 339 336 337 336
339 343 345 347 348 348 347 347 346 345 342 340 337 334 333 333 335 335 337 335 333 332 331 332 332 332 332 332 332 336 335 333 327 326 327 329 332 337 337 335 335 334 333
340 343 344 341 343 345 346 346 345 345 343 341 337 334 332 333 333 334 334 331 330 329 330 331 331 331 331 331 333 333 332 327 322 321 320 323 332 332 333 332 331 331 330
340 341 342 344 341 338 341 342 343 343 342 341 339 336 334 333 334 334 333 329 327 327 329 330 330 330 331 331 332 331 329 328 325 325 326 324 332 334 333 331 329 329 328
337 338 337 339 342 341 339 335 337 339 339 339 336 333 330 330 330 330 328 328 325 326 327 329 328 329 329 329 330 328 327 326 323 323 325 328 333 333 331 329 326 325 324
336 336 337 338 339 340 341 335 333 334 335 333 330 327 324 322 321 323 324 326 325 325 327 327 327 325 324 325 327 325 324 322 321 321 323 330 330 331 329 326 323 322 321
332 334 336 337 337 339 341 337 338 338 336 333 329 325 326 324 323 322 320 323 324 324 325 326 325 325 320 315 316 320 318 317 316 318 322 327 327 329 327 322 322 320 319
331 334 335 336 337 337 338 340 339 338 336 333 329 327 331 323 320 319 317 316 315 316 317 317 319 316 315 314 313 314 313 312 311 311 317 325 325 325 323 321 320 319 318
331 332 335 337 336 337 338 339 337 338 337 335 332 330 329 324 322 317 316 315 313 311 310 312 313 313 312 311 310 311 310 309 311 311 312 320 323 321 321 320 319 318 317
327 330 333 335 336 337 338 337 337 337 336 336 334 332 331 326 324 320 319 318 316 318 314 312 311 310 308 307 307 307 306 305 307 308 306 314 319 319 319 319 318 317 316
327 328 334 333 336 337 337 336 336 335 337 336 336 335 333 328 326 322 317 318 318 317 313 314 310 306 304 302 302 302 301 302 303 304 302 304 315 316 316 317 317 316 315
324 328 329 333 335 335 332 334 335 335 335 335 334 336 334 330 327 323 317 317 318 317 313 307 305 303 298 297 296 295 296 296 298 300 299 299 301 311 313 313 313 313 313
323 326 328 332 333 332 331 331 330 331 332 333 335 335 334 333 330 325 318 317 319 314 307 303 301 299 297 293 293 291 291 292 292 293 295 296 297 298 304 309 310 310 310
321 325 326 328 328 330 329 328 328 329 329 330 331 334 334 333 330 326 321 318 317 310 306 303 299 298 296 294 292 290 289 289 289 290 289 291 295 295 295 303 304 306 307
318 323 326 327 326 325 325 325 325 325 326 328 328 329 332 333 331 327 325 318 313 309 305 301 298 296 295 294 292 291 288 288 288 286 287 289 288 289 290 292 292 296 304
314 318 324 325 323 323 323 322 321 322 322 324 325 326 328 330 332 327 323 317 313 309 304 301 298 294 293 293 290 289 288 287 286 286 286 285 286 287 287 287 288 290 293
310 315 320 323 322 322 322 322 321 320 318 320 319 320 322 323 326 324 320 315 313 309 305 299 296 293 292 291 290 289 284 283 285 286 285 286 284 285 285 286 286 287 288
306 310 315 319 321 320 320 317 312 311 310 310 312 315 317 318 322 321 318 316 313 310 304 297 295 294 291 292 292 293 285 283 281 283 284 284 284 283 283 284 285 287 287
306 308 310 312 313 315 315 313 312 311 309 310 310 309 312 312 317 319 317 315 313 310 305 298 297 297 294 291 292 295 294 286 282 278 282 283 284 284 283 283 283 285 286
304 304 306 308 308 309 311 311 310 308 308 307 306 305 306 308 312 314 314 313 311 309 305 300 297 297 295 294 294 294 293 290 287 281 277 279 281 283 283 283 283 283 284
304 305 304 305 306 308 309 310 309 309 306 304 305 306 306 305 306 308 310 311 310 309 306 301 299 298 297 297 296 296 293 291 286 283 279 278 279 281 283 283 283 283 283

GFSSE_sfc_thetae_075.txt.gz
Theta_e
332 340 347 347 347 347 347 345 344 344 342 342 343 344 343 344 347 347 347 346 344 340 339 339 340 339 340 340 339 339 338 339 341 341 341 341 342 343 343 343 342 338 344
335 341 346 347 347 349 348 345 345 343 342 341 341 342 342 344 345 346 345 345 341 338 339 338 338 338 338 338 339 341 338 338 338 338 337 337 339 339 341 341 341 337 340
337 341 345 347 349 349 348 347 345 344 341 340 340 340 342 343 343 345 344 344 341 338 337 337 337 337 337 339 341 341 340 339 337 336 336 329 331 337 338 339 339 337 337
338 340 344 345 349 349 348 346 345 344 341 339 339 339 340 342 342 345 343 343 339 337 336 336 336 337 337 338 340 340 338 336 335 333 325 327 329 336 337 336 336 336 335
336 340 343 345 349 349 347 346 344 343 341 338 337 338 339 340 342 344 341 339 337 336 335 336 337 337 337 338 341 339 336 336 334 329 323 329 331 335 338 339 337 338 338
336 341 343 347 349 349 347 345 344 342 339 337 336 336 338 339 340 340 338 336 335 334 334 335 336 336 336 339 340 337 336 335 333 330 331 333 332 339 337 336 335 335 335
338 340 343 346 347 348 347 346 344 342 340 337 335 335 337 337 338 338 335 334 333 333 333 334 335 334 334 336 338 335 333 330 324 327 328 328 329 336 335 335 333 331 331
339 342 344 340 342 344 346 345 344 343 341 337 335 334 335 335 336 335 333 332 331 331 332 332 333 333 334 334 334 332 330 327 321 319 320 324 332 332 333 332 331 331 330
342 343 342 342 340 338 340 341 342 342 341 338 336 335 336 336 336 333 331 329 330 331 331 331 332 333 333 333 332 330 329 327 322 324 325 326 333 333 332 331 328 327 325
338 341 340 340 340 340 339 335 336 338 339 337 334 332 330 331 332 331 328 329 329 330 330 330 330 330 330 330 329 327 326 325 321 324 327 328 331 330 328 326 323 323 322
336 337 338 338 339 339 338 334 332 333 333 331 328 325 322 322 322 322 324 327 328 329 329 329 327 327 326 326 326 324 321 317 318 321 326 329 329 328 325 323 322 322 321
331 334 336 337 338 339 340 334 335 334 333 329 325 321 321 320 320 321 320 324 327 327 328 327 326 323 318 314 315 318 313 312 312 316 324 328 327 325 323 322 321 320 319
329 332 335 337 338 339 339 337 336 335 332 328 324 323 322 320 319 318 316 315 316 318 319 320 315 314 312 312 312 312 311 309 308 310 323 326 325 324 321 321 319 319 318
326 330 334 336 335 337 339 338 337 335 333 328 324 325 322 318 316 315 314 313 312 312 311 311 311 310 308 309 309 308 307 306 307 309 314 321 323 321 320 320 318 318 317
326 328 331 335 336 336 338 338 337 336 334 331 327 327 324 319 315 314 313 313 310 309 310 310 309 307 305 306 305 305 304 305 305 306 307 315 320 319 319 318 318 317 316
328 329 331 333 335 336 336 337 335 336 335 334 331 329 326 323 317 315 314 313 311 312 311 309 307 304 302 303 301 302 301 303 301 301 302 306 316 318 317 317 317 316 315
324 329 330 332 334 335 336 337 335 335 335 334 333 331 329 326 320 318 316 314 314 313 313 310 307 301 300 298 296 297 298 299 299 298 298 299 300 310 316 315 315 314 314
320 324 330 332 332 333 335 335 334 335 334 335 334 333 332 328 325 319 316 315 314 311 308 307 302 298 294 295 293 291 291 292 293 294 295 296 296 298 305 311 311 312 312
319 324 326 331 330 330 331 333 329 331 332 333 334 333 332 329 327 321 318 316 313 308 305 303 299 298 294 292 292 291 289 288 289 290 291 295 296 294 294 303 306 309 309
317 321 326 328 330 330 329 329 326 325 327 330 331 332 332 331 328 324 320 317 315 308 303 302 298 296 294 292 291 290 289 287 286 286 286 291 292 291 290 292 292 298 307
314 318 324 325 326 328 325 325 326 326 325 321 326 327 330 331 329 325 322 317 313 308 304 301 297 295 293 292 290 289 289 286 285 285 285 285 286 286 287 289 289 289 294
311 316 321 324 324 327 328 327 326 324 318 325 320 322 327 330 329 326 323 317 313 309 303 300 297 294 292 292 289 288 284 284 286 285 284 285 283 285 285 286 286 288 288
305 312 317 322 323 325 325 319 314 314 311 313 315 319 319 324 328 326 322 318 314 310 304 300 297 295 292 292 291 292 285 284 281 283 283 283 282 282 282 284 285 287 287
305 310 315 319 321 322 320 319 319 319 317 320 321 316 311 315 321 323 321 318 315 312 306 301 299 298 296 291 292 294 294 287 282 278 282 283 282 282 281 282 283 285 286
301 303 308 312 315 318 319 318 317 317 317 305 305 306 306 306 314 318 318 317 315 313 308 303 299 299 298 295 295 294 293 289 286 283 280 281 281 281 282 282 281 282 284
299 301 303 306 308 310 316 313 312 313 305 303 302 303 302 304 308 312 312 315 315 313 309 304 300 299 298 298 296 297 294 291 287 283 281 281 281 282 282 281 281 282 282

GFSSE_sfc_thetae_078.txt.gz
Theta_e
332 338 348 347 348 347 345 344 342 342 343 344 344 344 345 347 346 345 345 340 339 339 339 340 340 341 340 339 338 340 341 341 341 342 342 343 344 344 343 343 341 338 344
335 340 345 348 349 346 344 343 344 343 341 342 343 344 344 346 345 344 342 341 338 338 338 339 339 338 338 338 337 337 337 337 337 338 339 340 341 341 341 340 341 337 340
336 342 343 347 350 348 346 345 344 342 341 341 342 344 343 346 345 343 340 339 337 337 337 338 338 338 339 338 338 336 335 335 335 336 335 329 331 337 338 337 339 337 337
336 342 343 345 349 347 346 345 344 341 340 340 340 342 342 345 344 342 339 337 337 336 337 338 338 338 339 340 336 335 334 333 333 332 325 326 331 336 337 337 338 336 337
336 342 342 346 348 347 346 345 343 342 339 339 339 341 341 345 343 340 338 336 335 335 337 338 338 338 338 338 336 335 334 334 333 329 328 327 333 336 338 338 337 337 338
335 340 342 347 348 346 345 343 340 339 338 337 338 339 341 342 340 338 337 335 334 335 337 337 337 338 338 337 336 336 336 335 332 328 328 333 330 336 336 335 333 333 334
335 339 342 345 347 346 345 342 341 340 337 336 337 338 339 340 338 336 335 334 334 334 336 336 335 337 338 337 336 334 332 331 326 324 324 327 329 335 334 333 333 333 331
337 340 342 339 342 344 344 343 342 341 338 337 336 337 337 338 336 335 333 332 333 333 335 334 335 335 335 333 331 330 328 326 320 319 322 324 332 333 333 332 330 329 328
339 340 341 341 340 338 340 340 341 341 338 337 337 337 337 337 335 333 332 331 331 332 333 333 334 334 333 332 331 330 328 326 321 323 325 327 332 333 331 328 327 326 325
339 340 339 339 340 340 338 334 335 337 336 335 335 333 332 332 331 330 329 331 331 331 332 332 332 332 332 330 328 325 323 323 320 326 326 326 329 329 327 325 324 322 322
336 338 338 337 338 338 337 333 331 333 332 330 328 326 323 324 322 320 324 330 330 330 330 330 330 328 326 324 323 321 318 314 321 325 325 328 326 326 324 323 321 321 320
331 333 336 337 337 336 338 333 333 333 330 325 323 320 320 319 319 320 320 326 328 328 329 327 326 322 317 312 313 315 311 314 317 321 324 326 325 323 322 321 320 319 319
330 332 334 336 337 336 336 334 333 333 328 324 320 319 318 318 317 316 316 318 319 320 319 316 313 312 311 311 310 309 310 311 312 314 323 325 323 321 321 319 319 319 318
325 330 333 335 335 336 337 334 335 333 329 324 320 321 318 316 314 313 313 313 314 314 313 311 309 309 309 309 308 308 306 305 306 307 314 321 322 323 320 319 318 318 317
325 328 332 334 335 337 337 336 335 334 330 326 321 324 319 316 314 312 311 311 311 310 310 309 307 306 306 305 305 305 304 303 303 304 308 316 320 321 320 318 318 316 316
326 328 331 332 333 336 337 337 336 335 333 327 323 324 320 318 315 313 311 310 309 308 309 307 305 303 303 303 303 303 302 300 300 301 302 308 318 320 318 318 317 316 315
326 328 329 331 333 333 335 337 336 335 334 331 326 326 324 320 315 314 312 311 309 310 309 307 304 301 299 300 300 301 300 298 298 298 298 300 302 311 317 315 315 315 314
321 325 328 331 331 332 333 335 335 336 334 333 330 328 327 323 318 316 313 313 313 310 308 305 302 300 298 298 296 297 296 295 295 296 297 297 297 299 306 314 313 313 313
320 323 326 329 330 330 331 333 333 334 334 334 333 330 329 326 321 318 316 315 314 310 308 305 300 299 296 293 293 292 291 293 292 294 295 296 296 295 295 304 307 312 311
317 320 325 329 330 330 330 330 329 332 332 333 333 333 331 328 324 320 318 316 314 309 306 304 300 296 295 293 292 289 289 289 289 291 292 294 293 292 292 293 294 298 310
311 314 321 326 329 329 328 326 326 326 330 328 331 332 332 329 326 322 319 317 314 309 306 303 298 294 292 292 289 288 288 288 286 288 288 289 290 289 290 290 291 292 296
306 313 319 323 327 328 329 329 329 328 326 328 328 327 331 331 328 325 321 317 315 310 305 301 299 295 292 292 287 288 284 286 285 287 286 286 286 286 287 288 288 290 290
299 308 315 322 325 328 329 326 315 314 312 315 316 323 326 329 329 326 323 319 316 312 305 302 298 297 292 291 291 291 284 285 284 284 285 285 283 283 284 285 286 288 288
299 302 311 318 322 326 327 324 323 323 321 322 324 320 318 321 328 326 324 320 316 313 308 303 301 299 297 291 291 293 291 288 285 280 284 284 284 283 282 283 283 286 286
297 299 305 311 317 321 323 323 322 322 322 312 309 311 309 312 316 324 323 319 316 314 311 305 301 300 298 296 294 294 292 288 287 285 281 282 281 283 283 284 284 285 286
298 297 302 309 312 315 319 318 318 319 312 305 304 306 306 307 313 313 316 319 317 315 312 307 304 301 300 300 296 298 295 293 288 285 282 282 282 283 284 284 282 284 285

GFSSE_sfc_thetae_081.txt.gz
Theta_e
330 337 345 348 347 345 344 343 343 344 344 345 346 347 347 345 343 341 339 339 339 339 341 342 340 340 340 342 341 342 342 342 343 344 345 344 344 344 343 342 342 339 344
334 338 346 349 347 345 343 342 342 342 343 344 344 346 346 345 342 340 339 338 337 339 339 339 339 338 338 337 338 338 337 339 339 340 341 341 341 341 341 341 341 337 341
335 340 343 346 348 345 345 344 344 341 341 343 343 346 346 344 342 340 338 337 336 338 339 339 338 339 338 336 336 336 336 336 336 337 335 331 333 338 339 338 338 336 336
337 341 342 345 347 345 345 344 343 341 340 342 342 344 346 344 341 339 338 336 336 337 338 338 339 339 337 335 335 335 334 335 333 331 324 329 331 338 337 337 341 339 339
338 341 342 346 347 344 344 343 342 340 340 341 342 343 345 343 340 338 336 335 336 337 337 337 338 338 336 335 334 333 334 334 334 330 326 330 332 337 340 339 337 337 337
337 340 342 346 347 345 344 341 340 339 339 339 341 343 344 342 339 337 335 335 335 336 336 337 338 337 336 336 335 336 337 335 330 325 327 332 330 336 336 335 334 333 334
335 338 342 345 345 345 343 341 340 339 338 338 339 341 341 339 337 336 334 334 335 336 335 336 339 337 337 336 336 334 333 330 323 322 324 327 330 335 335 334 332 331 331
335 338 342 339 341 343 343 342 341 340 338 338 339 339 339 337 336 335 333 333 334 336 333 335 337 336 334 333 332 331 329 326 321 321 322 327 333 333 332 331 330 329 328
336 338 340 341 339 337 339 339 340 339 338 338 339 339 339 337 336 334 333 332 333 334 334 335 335 333 333 331 331 329 328 326 321 322 325 328 331 331 330 329 327 326 326
335 337 338 338 339 338 337 333 335 336 336 336 336 334 332 332 332 332 330 332 332 333 332 333 333 332 331 330 328 326 325 324 322 324 324 325 328 328 327 325 323 322 322
335 336 337 337 337 336 335 331 330 331 331 331 329 327 325 323 322 322 325 330 333 332 331 331 331 329 327 326 324 322 319 317 324 323 323 327 325 325 323 322 321 321 320
332 334 336 337 337 335 337 332 331 330 327 325 324 323 322 319 318 320 322 326 329 329 330 330 327 322 316 312 312 315 313 317 321 322 322 326 323 324 322 320 320 319 319
332 334 335 336 336 335 336 334 331 329 324 322 320 319 319 317 316 316 318 319 319 319 318 317 314 312 311 310 309 309 311 314 315 319 322 324 322 323 320 320 319 319 318
327 331 334 335 335 335 335 334 334 332 324 320 318 318 317 315 314 313 315 315 316 314 311 310 310 309 309 308 308 308 310 310 311 312 316 320 323 321 320 319 318 318 317
325 329 331 333 334 335 334 334 333 332 327 322 319 319 317 314 313 312 312 313 313 312 309 308 307 307 306 306 306 306 307 307 307 308 310 317 321 320 319 319 318 316 316
326 327 330 331 333 335 334 334 333 332 331 324 320 320 317 316 313 312 310 311 310 310 308 306 305 305 304 304 304 304 303 302 302 303 306 312 320 321 319 318 318 317 316
325 327 328 331 333 333 334 334 335 334 332 327 321 321 319 316 314 312 310 309 309 308 308 305 303 301 300 301 302 301 300 300 300 300 301 303 307 316 319 318 317 317 315
321 324 328 331 331 332 333 334 335 335 333 330 325 323 322 320 317 314 313 312 312 311 308 304 303 301 299 301 300 300 299 298 297 298 298 299 300 302 312 317 316 315 314
319 322 325 329 329 330 331 332 332 333 333 332 330 324 325 322 318 316 314 313 312 311 309 306 302 301 297 296 296 295 294 294 294 297 297 297 298 298 299 308 312 315 314
315 320 325 327 329 329 330 329 328 330 331 333 332 329 325 325 321 317 316 314 313 311 308 305 301 298 296 295 294 291 291 291 289 293 295 295 296 296 294 295 296 300 313
311 314 319 323 327 328 328 326 326 327 329 331 332 331 329 326 323 319 317 314 313 310 309 305 300 295 292 292 290 289 289 288 286 290 291 293 293 292 293 293 293 294 299
304 311 315 320 325 327 329 329 329 328 327 329 331 331 331 329 326 321 319 316 314 311 308 304 298 295 292 291 291 289 287 287 285 286 286 289 291 290 292 292 292 292 293
295 301 311 317 321 326 328 326 316 315 314 317 322 328 329 329 328 325 322 318 315 313 308 305 301 299 294 292 291 292 285 286 284 286 284 285 288 287 289 291 290 290 290
294 296 303 311 318 324 326 325 324 324 323 324 325 323 325 328 328 327 324 321 317 314 310 306 304 302 301 293 292 292 293 290 287 285 283 285 285 286 287 288 289 288 289
297 295 296 306 314 318 324 326 323 323 325 318 314 315 314 320 326 327 325 322 319 316 313 308 305 302 302 300 295 294 292 289 288 287 285 283 284 286 287 287 288 288 289
296 297 298 303 309 314 319 320 321 322 316 309 308 311 309 313 319 318 323 323 320 316 314 309 306 303 303 303 299 301 295 295 289 285 285 281 284 284 285 286 286 288 288

GFSSE_sfc_thetae_084.txt.gz
Theta_e
329 337 348 348 345 344 344 344 345 346 346 346 348 347 345 343 341 340 340 339 341 341 342 340 340 342 342 342 341 343 344 345 346 345 345 345 345 345 343 343 343 339 344
332 339 345 348 346 344 343 343 344 346 345 345 347 346 344 342 340 339 338 339 341 340 340 339 338 338 339 339 339 339 339 341 341 341 341 342 342 342 341 341 341 338 341
335 341 344 347 346 343 343 342 343 344 344 344 347 346 344 342 340 339 337 339 341 339 338 340 338 337 336 336 337 337 337 336 337 337 337 330 332 337 338 337 336 337 337
337 340 342 345 346 344 344 344 343 342 343 342 346 346 343 341 338 338 336 338 340 338 339 340 339 337 335 335 335 336 335 335 334 333 329 331 333 339 342 341 341 340 340
337 339 342 344 346 344 345 343 341 342 343 343 344 344 343 340 337 337 335 337 339 337 338 340 337 337 335 334 334 335 336 335 333 330 330 332 333 338 339 338 337 338 338
336 339 342 345 345 343 343 341 340 340 341 342 343 344 342 339 336 336 335 337 338 338 338 338 338 336 335 336 337 337 336 333 328 325 329 332 331 337 337 335 335 334 334
335 338 342 344 345 344 342 341 340 340 339 341 343 343 340 337 335 334 334 335 334 335 335 339 338 337 337 336 336 335 333 330 322 322 327 329 331 335 335 334 333 333 333
334 338 341 338 340 342 342 341 341 340 340 340 341 341 337 336 335 334 334 334 334 333 337 339 338 336 335 335 334 332 330 327 323 321 322 328 332 333 333 331 330 330 329
335 337 339 338 337 336 338 338 339 339 339 340 340 338 335 334 336 334 334 335 332 333 335 336 335 334 334 332 332 330 328 327 320 321 324 325 331 331 330 329 328 327 326
332 335 338 337 336 335 334 332 334 335 336 337 336 334 332 332 332 332 330 333 333 332 333 333 334 333 332 330 329 328 326 325 320 320 321 325 329 329 327 325 324 323 323
332 334 337 338 336 334 333 330 330 331 331 331 330 327 324 323 323 323 326 331 332 331 333 332 331 330 328 327 325 323 322 319 320 321 321 326 326 326 325 322 322 321 321
329 333 335 336 336 334 335 331 330 328 327 326 324 323 322 319 319 321 322 327 329 328 332 330 328 323 317 313 314 318 315 320 321 321 319 326 325 321 322 320 321 319 319
330 332 333 334 335 336 335 332 329 326 323 322 321 320 319 316 316 318 319 319 319 320 320 320 315 312 311 311 311 312 313 317 318 319 322 325 324 321 320 319 319 318 317
330 331 333 334 334 335 335 333 333 329 322 319 319 319 316 314 313 314 316 315 315 313 311 310 310 309 309 310 310 310 311 314 315 316 318 321 323 321 320 318 318 317 317
327 331 332 333 333 334 334 333 332 331 324 320 318 318 316 314 312 312 313 313 313 311 309 308 308 308 307 307 307 308 309 311 312 313 313 316 322 321 320 319 317 317 316
326 328 331 332 333 333 332 332 332 331 329 321 317 317 316 315 312 311 311 312 311 310 308 307 306 305 305 305 305 305 305 306 308 309 308 312 320 322 319 319 318 316 316
324 325 327 331 332 332 332 332 332 332 331 326 319 318 317 315 313 311 310 310 310 309 308 305 304 303 302 302 303 304 302 302 302 303 304 306 312 319 320 318 318 317 317
320 323 326 330 331 332 332 332 332 332 331 329 324 320 318 318 316 314 313 313 312 312 309 306 305 303 303 303 302 301 301 301 301 299 299 301 302 306 316 321 318 317 316
319 320 324 328 329 330 331 332 332 332 331 329 326 322 322 320 318 316 314 314 313 311 309 306 303 303 300 299 299 298 298 298 297 297 298 298 299 301 302 311 316 317 316
314 318 323 326 328 329 330 329 329 331 330 329 327 324 323 321 319 317 315 313 312 311 308 306 301 299 298 299 297 294 293 293 293 295 296 297 296 297 298 299 300 304 315
309 313 318 322 326 328 328 327 327 328 329 330 330 327 323 323 321 318 317 314 312 310 310 306 300 297 294 294 293 290 289 288 289 291 292 293 294 294 294 295 296 299 302
300 309 314 320 323 326 328 329 328 328 328 329 330 330 327 324 322 319 318 315 313 311 309 305 302 296 294 294 294 290 292 292 287 289 289 292 292 295 292 293 294 295 298
292 295 307 313 319 324 327 324 315 316 315 322 327 328 328 327 325 323 320 318 314 313 309 307 304 302 298 291 294 296 288 291 288 285 288 289 291 293 293 292 293 293 295
295 293 295 305 312 317 322 322 322 324 322 324 326 328 328 328 328 325 323 320 317 314 312 308 306 305 305 296 294 294 293 292 291 291 286 286 288 289 292 293 293 293 293
295 296 296 297 305 313 318 323 322 322 323 319 316 318 324 325 327 327 325 322 319 317 314 312 308 305 306 304 297 294 295 292 290 288 295 288 284 287 290 291 293 293 292
295 296 297 301 304 309 314 317 318 320 317 311 310 312 316 320 323 325 324 324 321 319 316 313 310 307 306 307 302 303 298 293 294 290 288 294 284 286 287 289 290 292 294

GFSSE_sfc_thetae_087.txt.gz
Theta_e
334 342 348 347 345 344 345 345 346 349 349 349 347 345 344 342 341 341 343 342 343 341 341 343 345 344 343 342 345 346 345 345 346 346 346 346 345 345 344 343 343 342 344
337 344 347 347 345 344 344 346 347 348 348 348 346 345 343 341 340 339 341 341 340 340 339 339 340 341 341 341 340 342 343 342 342 341 341 343 343 342 341 341 342 340 342
339 342 346 347 346 345 345 346 347 347 346 348 347 345 343 341 339 338 339 339 341 340 339 338 337 337 338 339 339 338 337 337 339 338 337 334 335 339 337 339 340 340 342
340 343 345 344 346 345 344 345 345 346 346 347 346 343 342 338 338 338 339 341 340 340 340 338 336 336 336 337 336 337 337 337 336 336 335 337 339 342 342 341 341 340 338
340 343 344 344 346 344 345 344 344 344 345 346 345 343 340 337 337 337 338 340 338 340 340 338 336 335 335 335 336 336 337 335 333 333 334 335 336 338 339 338 338 338 338
340 343 343 345 346 344 344 342 342 344 344 344 345 342 339 336 336 336 339 339 339 339 339 338 336 335 336 336 336 337 335 334 333 331 332 335 334 337 337 336 336 335 336
339 343 343 343 344 344 343 341 342 343 343 344 344 341 338 336 335 335 337 337 335 337 338 337 337 337 337 337 337 336 334 331 331 331 332 334 333 335 335 335 334 334 333
338 343 343 338 340 342 342 342 342 342 343 343 343 340 337 335 335 334 335 335 333 339 339 338 337 336 336 336 335 333 330 328 329 330 331 331 333 333 332 331 331 330 330
339 341 342 342 339 335 337 338 339 340 341 342 342 337 335 333 336 336 336 335 332 335 338 336 336 335 335 334 332 331 328 327 329 329 328 329 331 331 330 329 328 328 327
337 339 340 340 340 339 339 332 334 335 337 338 336 333 331 331 333 332 331 334 334 334 336 335 333 334 332 332 330 328 326 325 327 327 328 328 329 329 328 326 325 325 324
334 336 337 338 338 338 338 333 330 331 332 331 331 327 327 331 330 329 327 331 331 332 333 332 332 331 329 328 327 325 324 326 326 325 325 328 327 326 325 323 322 322 321
329 333 335 337 337 337 336 335 335 333 334 333 332 330 328 327 327 327 325 327 329 328 332 331 328 324 322 324 325 323 326 326 325 323 324 327 325 324 323 322 321 320 320
330 331 333 335 336 336 335 334 334 332 330 330 329 328 325 323 325 327 328 328 328 323 326 325 323 321 321 322 322 323 324 324 323 322 323 326 324 323 321 320 320 318 318
330 331 332 334 335 335 335 333 333 330 328 327 327 326 323 321 323 324 325 326 325 325 324 321 319 319 319 319 320 321 322 322 321 321 322 322 324 322 321 318 317 317 316
329 331 332 334 334 335 334 334 333 332 328 326 325 325 323 320 320 322 323 323 323 321 320 317 317 317 316 316 317 319 319 320 321 319 321 318 322 322 321 320 318 318 317
330 331 333 333 334 335 334 333 332 332 331 326 324 324 322 321 319 320 321 321 321 319 317 316 316 316 315 315 314 314 316 316 318 318 319 321 321 323 321 320 319 318 318
328 331 332 332 334 333 334 333 333 333 332 327 324 323 322 321 319 318 319 319 320 318 315 312 311 312 312 312 313 311 311 311 312 313 314 317 319 319 321 321 320 319 318
325 327 331 331 332 333 333 333 333 333 332 330 326 323 321 320 318 316 315 316 316 315 313 310 309 307 307 307 307 307 307 307 306 306 309 311 314 315 319 322 321 319 319
324 326 328 331 331 331 332 332 332 332 331 331 330 325 322 320 320 318 316 316 315 315 314 309 307 308 305 305 304 306 302 302 305 302 303 305 310 311 314 317 319 319 319
319 323 327 329 331 331 331 331 331 331 330 331 328 325 324 322 319 317 317 315 314 313 312 311 309 307 305 308 302 300 303 298 299 303 303 304 305 305 308 310 313 315 317
311 317 322 325 329 330 329 328 328 327 329 329 329 327 325 324 322 320 319 316 315 312 312 311 307 303 302 300 300 301 297 297 297 299 301 302 304 304 305 304 307 310 314
300 309 315 321 325 329 330 331 330 329 329 330 330 329 326 325 323 321 320 317 316 315 311 309 305 300 304 299 302 296 299 302 297 297 299 299 301 301 301 302 303 305 305
296 296 307 315 321 326 329 328 322 323 322 328 328 328 328 325 324 322 320 319 316 315 312 310 308 305 302 296 301 302 294 296 298 296 297 297 298 300 303 300 301 301 303
298 299 297 302 312 319 326 326 326 326 324 327 328 329 328 327 325 324 322 320 318 315 314 311 310 309 307 301 297 299 299 300 297 298 293 292 296 295 297 300 297 299 299
298 299 302 303 304 310 319 325 323 325 326 324 323 324 327 327 328 326 324 322 320 317 316 314 311 308 308 308 299 299 299 296 293 291 299 304 288 291 295 295 299 297 299
298 298 300 302 303 311 315 319 321 322 321 318 318 318 321 325 325 325 325 324 321 320 318 315 313 311 309 308 308 305 301 298 296 295 294 299 302 299 289 292 295 297 297

GFSSE_sfc_thetae_090.txt.gz
Theta_e
337 342 348 347 345 346 347 348 348 350 349 347 345 344 342 341 342 343 343 344 342 344 346 346 345 344 344 345 346 345 344 344 345 345 346 345 344 344 344 344 344 342 344
339 345 346 347 345 346 346 347 349 349 349 347 346 343 341 340 341 340 341 342 341 340 341 342 341 343 343 342 341 343 342 341 341 340 341 343 342 341 341 341 343 341 344
339 345 345 346 345 345 346 348 348 349 348 347 345 343 340 339 340 339 339 342 341 338 338 338 339 339 340 339 339 337 338 338 338 338 338 337 336 340 341 341 342 341 341
342 343 343 344 346 344 344 347 347 348 348 346 344 341 339 338 339 339 338 341 343 340 337 337 337 337 336 337 337 337 338 337 337 340 338 338 338 341 342 341 340 339 340
342 345 344 344 346 343 343 344 345 347 348 347 343 339 338 337 338 339 339 340 341 339 337 336 336 336 335 336 337 337 337 336 336 335 336 336 337 338 339 339 338 338 338
343 344 342 345 345 344 343 343 344 346 346 345 342 339 337 336 337 338 339 338 342 339 338 335 336 335 335 336 335 336 335 335 334 332 334 335 334 337 337 337 336 335 336
341 344 343 344 345 344 343 342 343 344 345 346 342 339 337 336 337 337 338 338 340 338 337 337 337 338 337 336 335 335 333 333 331 332 333 334 333 335 335 335 334 333 333
341 344 342 338 340 342 343 343 343 344 345 344 341 338 336 335 336 336 335 335 340 339 338 338 337 336 336 335 334 332 330 330 329 330 331 331 333 332 332 332 331 330 330
342 343 343 341 339 336 338 339 340 342 343 343 340 338 337 337 337 337 337 335 337 339 337 336 336 336 336 334 332 330 329 328 328 329 329 329 331 331 330 329 328 328 327
340 342 342 341 339 339 339 332 334 337 338 338 335 333 331 332 333 332 332 334 333 337 336 334 334 334 333 332 330 328 327 328 329 329 328 328 329 329 328 326 326 325 324
337 340 341 341 339 338 338 334 331 332 333 332 331 327 328 333 332 331 329 331 332 333 334 334 332 331 330 329 327 326 326 328 327 327 327 328 327 326 325 324 322 322 321
334 336 337 339 340 338 336 338 337 336 337 337 337 336 334 332 331 329 327 327 328 328 333 332 329 324 325 330 329 325 329 328 327 326 325 327 325 324 323 321 321 320 320
334 335 335 337 338 339 337 338 337 336 336 336 336 335 333 330 330 330 331 330 330 324 328 327 327 328 326 328 328 328 329 327 327 326 324 325 324 323 321 321 319 319 317
333 335 335 336 336 337 338 337 338 336 335 334 334 334 331 329 329 329 329 330 329 328 327 328 327 327 327 327 327 327 327 326 326 325 323 322 324 323 321 320 320 317 317
332 334 336 336 336 336 336 335 335 336 334 333 333 333 331 328 328 328 328 328 328 328 327 326 325 325 325 325 326 327 326 326 325 325 325 318 323 324 323 321 320 319 319
333 335 336 336 336 335 336 336 334 334 336 334 332 332 331 329 327 326 327 326 326 327 326 324 324 324 324 324 324 325 325 325 325 324 324 323 321 325 323 322 322 321 320
334 337 337 336 336 335 335 336 335 334 333 334 333 332 330 329 327 325 325 325 325 325 324 322 320 320 321 321 322 322 322 322 322 322 322 323 322 320 323 322 322 322 321
334 335 337 335 334 335 335 336 335 335 335 334 333 333 330 329 325 321 321 322 323 322 322 320 318 313 314 315 316 317 316 318 316 314 318 320 321 321 320 323 323 322 322
333 334 335 336 335 333 334 335 335 335 335 335 333 332 332 329 327 322 322 322 320 319 317 317 317 316 315 316 315 317 316 317 316 314 313 316 318 319 320 320 320 320 322
329 332 334 336 336 334 334 335 334 334 334 334 333 331 333 331 328 326 326 324 321 320 317 316 314 315 315 316 314 312 315 314 314 314 313 314 316 316 317 318 319 318 317
313 325 330 332 335 334 331 330 330 329 331 331 332 331 332 332 330 327 326 324 321 320 321 319 315 311 308 310 310 312 312 312 311 312 312 313 313 314 315 314 316 318 317
305 311 319 326 331 333 332 331 331 331 331 332 332 330 330 333 331 328 326 325 320 318 318 316 313 312 308 306 308 304 306 314 312 311 312 311 312 314 311 310 311 314 315
305 303 310 318 325 330 333 332 330 327 327 329 330 329 329 329 329 329 327 326 323 318 316 315 312 310 310 307 305 308 300 301 314 314 310 310 310 311 310 310 311 310 311
308 309 303 308 317 323 328 329 326 325 324 327 328 330 330 328 327 326 325 323 322 318 316 317 314 314 313 306 302 304 309 303 299 300 301 300 301 302 307 309 309 307 303
307 310 314 312 309 315 323 326 325 325 326 327 328 329 330 330 328 327 325 323 322 321 318 318 315 313 313 311 305 305 303 302 298 296 299 304 299 303 304 301 303 307 306
307 308 309 310 315 319 319 322 324 324 325 325 326 327 328 329 329 328 326 325 323 322 319 318 317 314 312 312 311 307 303 299 299 297 297 300 301 306 297 296 300 300 304

GFSSE_sfc_thetae_093.txt.gz
Theta_e
336 344 349 346 347 347 348 347 349 348 347 346 344 342 342 342 344 345 344 343 344 345 345 345 345 346 345 345 344 343 343 342 344 345 344 344 344 344 344 345 344 343 346
340 343 345 347 345 346 346 347 348 349 348 346 343 341 341 341 341 342 343 342 342 342 343 344 344 344 343 342 342 341 340 340 341 342 342 343 343 342 344 344 344 342 344
341 343 343 346 346 347 346 348 350 349 347 345 342 340 340 340 339 339 341 342 340 337 339 339 340 341 340 339 338 339 338 339 340 340 342 338 340 342 342 341 343 342 342
342 340 341 343 346 345 347 348 349 348 346 344 341 339 339 340 339 338 341 342 339 338 338 338 336 336 338 338 338 338 338 339 341 339 337 336 335 341 342 341 340 340 339
339 340 343 344 344 344 345 346 348 348 347 343 340 339 338 340 339 338 342 342 340 337 336 336 335 336 337 337 338 338 336 337 338 336 335 335 334 338 340 339 338 337 338
341 340 342 345 344 343 344 344 346 347 347 344 339 338 338 339 338 339 339 341 340 337 335 336 336 336 336 335 336 336 335 337 335 331 332 334 333 337 338 337 336 335 336
341 341 340 344 344 344 344 344 345 346 346 343 339 338 337 338 337 339 338 340 339 337 337 337 338 337 336 336 335 334 334 333 330 330 330 332 332 335 336 335 334 333 333
340 340 341 337 340 342 343 344 345 345 345 342 339 337 336 337 337 337 336 339 339 338 338 336 337 336 336 335 333 332 332 331 327 328 329 330 333 332 333 332 331 330 330
341 339 339 339 337 337 338 339 341 344 343 341 340 339 337 337 338 338 336 337 340 338 336 336 336 336 335 333 331 330 329 329 327 328 327 328 332 331 331 330 329 328 327
340 340 339 338 338 338 338 333 336 338 339 338 335 333 332 332 333 333 331 333 338 337 335 334 335 334 333 331 329 328 327 327 327 327 326 326 329 328 328 327 327 326 324
337 338 339 338 337 337 337 333 332 333 333 331 330 328 328 332 331 330 329 331 334 335 335 334 333 331 330 328 327 327 325 327 326 325 325 328 327 325 325 324 323 323 321
334 337 339 339 338 337 335 336 336 337 337 336 336 334 334 332 331 330 327 327 328 329 333 332 330 325 325 328 327 325 327 326 325 324 324 327 324 323 323 322 321 321 319
335 337 336 339 339 338 336 337 337 336 337 336 337 336 334 331 329 329 331 328 328 324 328 327 327 327 327 326 326 326 327 326 325 324 323 326 324 322 322 320 319 318 317
334 335 337 337 338 339 338 337 337 336 336 335 336 335 333 330 330 329 329 330 330 327 327 327 327 326 326 326 326 326 327 326 325 324 322 322 326 323 322 322 321 320 319
332 335 336 338 335 337 337 338 337 336 335 335 335 335 333 330 330 329 329 329 328 327 326 326 325 325 325 325 326 326 326 326 326 325 325 318 323 325 324 324 322 321 320
332 334 336 336 337 336 335 335 335 337 336 336 335 334 333 331 330 329 328 327 327 327 326 325 324 324 324 325 324 325 326 326 325 325 325 323 321 325 324 324 324 323 323
332 334 335 336 337 335 336 336 335 335 335 335 335 334 333 331 329 328 328 327 327 327 325 324 323 323 322 323 322 324 324 324 324 323 324 324 323 320 323 324 324 325 324
332 333 336 337 337 335 335 336 336 336 334 334 335 335 333 332 330 328 326 326 327 326 324 322 321 319 319 319 319 321 321 321 322 322 321 322 322 322 320 323 324 324 324
331 332 334 337 336 334 335 335 335 335 334 334 334 333 335 332 331 328 325 324 325 323 321 320 317 318 317 317 317 319 319 319 320 319 319 319 320 320 321 321 320 321 324
330 332 333 336 337 336 334 335 335 335 335 336 335 333 333 333 332 330 328 327 326 323 321 320 317 319 316 316 315 314 316 318 319 319 318 318 318 319 319 320 320 317 318
315 326 330 332 335 335 332 331 331 330 333 333 334 334 333 332 334 332 330 329 327 321 321 320 319 318 315 316 311 312 313 315 316 316 316 316 316 317 318 318 318 318 318
308 313 323 329 332 335 332 332 332 331 332 333 333 333 332 331 332 332 330 328 325 320 319 319 317 316 312 312 308 306 305 312 316 314 315 313 313 315 315 315 314 315 316
307 308 311 319 327 332 334 331 331 329 330 330 330 330 330 330 331 330 328 327 325 321 318 319 318 312 311 312 308 308 302 300 310 315 312 312 312 311 314 313 312 311 311
311 310 307 313 319 325 331 331 329 327 324 327 329 331 330 330 330 330 328 326 324 322 319 319 318 316 313 310 304 306 308 307 301 301 304 306 307 308 309 310 308 310 310
312 315 312 308 314 320 324 327 327 325 325 326 327 327 328 329 328 328 327 326 325 323 320 319 317 314 314 312 308 306 303 304 304 299 301 307 310 303 305 306 308 309 309
310 312 315 318 316 315 320 324 324 322 322 322 323 325 327 326 326 326 326 326 325 324 322 320 319 317 314 313 312 311 305 304 300 300 298 301 302 306 309 306 304 304 306

GFSSE_sfc_thetae_096.txt.gz
Theta_e
336 341 342 346 342 348 348 349 348 348 346 344 342 343 342 344 345 345 345 345 347 346 344 347 346 345 345 344 343 342 342 344 345 344 345 345 346 346 346 346 345 342 345
339 343 346 348 348 348 349 347 347 349 346 343 341 342 341 341 342 340 343 343 343 342 343 343 343 343 342 341 341 340 340 342 343 344 344 344 345 344 345 344 344 340 343
339 342 343 347 348 348 349 348 348 348 345 342 341 342 341 341 341 341 340 341 341 339 340 340 339 339 339 339 339 340 341 342 342 342 341 336 337 342 342 342 343 342 341
338 339 341 344 347 347 349 349 348 347 345 341 340 341 340 341 341 343 340 342 340 338 338 336 337 337 338 339 339 340 340 341 340 339 332 334 335 340 341 341 340 339 338
336 338 341 344 346 346 348 347 347 346 345 340 340 341 341 339 340 343 341 342 337 336 337 337 337 336 337 338 337 336 337 339 337 334 332 332 332 337 340 339 337 337 337
336 339 342 344 345 345 346 346 347 347 344 340 339 340 340 338 338 340 342 341 338 337 337 337 336 335 336 336 336 335 336 337 333 330 328 332 332 338 339 337 336 335 335
335 337 341 343 344 345 346 346 347 346 344 340 338 338 339 338 338 339 341 340 337 337 338 338 336 336 336 335 334 334 334 333 328 327 328 327 330 335 335 335 334 333 333
335 336 339 337 340 342 344 345 346 345 343 340 338 337 338 338 338 337 340 340 338 338 337 336 336 336 335 334 333 332 331 330 326 325 326 325 333 332 333 332 331 330 330
336 335 337 337 336 336 338 340 342 343 342 341 339 338 337 338 338 336 337 341 339 337 336 336 337 335 334 332 330 329 327 328 322 324 324 324 332 331 331 330 328 328 327
335 335 332 333 335 335 334 333 336 338 338 336 334 332 331 332 332 331 330 336 338 337 335 336 335 334 333 331 329 327 326 326 321 322 321 324 329 327 327 327 327 326 323
335 335 334 332 332 333 334 330 331 332 332 330 329 327 326 327 328 328 327 330 334 332 334 334 332 331 329 328 327 325 325 321 320 321 321 327 326 325 325 324 323 322 321
331 334 335 334 331 332 333 331 333 333 331 331 330 327 329 326 325 326 323 325 328 329 331 331 328 326 325 323 321 323 321 321 320 319 320 326 323 323 322 322 321 320 319
331 332 334 334 333 331 331 330 331 331 331 331 331 330 328 326 323 325 323 321 321 321 321 323 322 322 322 320 321 320 321 321 318 319 320 325 324 323 322 321 320 319 319
329 332 333 333 334 333 332 331 332 331 331 330 330 330 327 324 322 323 324 323 322 320 320 320 321 321 320 321 321 321 321 320 319 318 317 322 326 324 324 323 322 321 320
328 332 333 333 332 334 333 332 331 331 330 330 330 330 328 325 323 323 322 323 322 321 320 319 319 319 319 320 320 321 321 321 320 319 317 317 323 325 325 325 325 324 322
328 329 333 334 333 334 333 332 331 333 333 330 329 329 329 326 324 323 322 322 321 321 319 319 318 317 318 319 319 320 320 320 320 320 319 316 321 325 325 326 327 326 325
327 329 331 333 333 333 334 333 332 330 330 331 331 330 329 327 324 322 322 321 321 321 320 318 316 316 315 317 317 318 319 319 318 318 318 318 317 320 324 325 326 327 327
325 327 330 332 332 332 333 334 333 333 332 331 332 331 329 328 326 322 321 322 323 322 319 316 315 314 313 313 313 313 315 316 316 316 317 316 316 317 319 324 325 326 326
324 326 329 331 331 331 333 334 334 334 333 332 332 331 331 329 327 323 319 319 319 319 316 316 313 312 311 311 312 312 312 312 313 315 314 314 314 316 315 319 320 321 325
323 325 328 331 331 331 331 333 333 333 332 333 332 331 331 331 329 325 323 320 319 317 316 315 314 312 312 312 313 311 310 311 312 312 313 314 313 314 314 315 314 315 318
305 320 325 328 331 331 330 330 330 329 331 332 332 332 331 331 331 329 324 324 323 320 319 317 316 314 313 313 308 308 310 311 313 313 313 312 312 314 312 314 316 316 316
301 303 314 324 328 331 331 331 330 330 330 332 332 331 331 330 330 330 328 325 324 319 317 316 316 313 312 311 308 305 303 305 311 311 313 311 311 310 310 312 314 313 314
301 301 304 311 322 328 330 331 329 328 328 328 328 328 329 329 329 329 328 326 324 320 317 316 316 314 313 309 307 308 302 301 305 311 311 311 310 307 309 310 311 312 312
306 304 302 304 312 321 329 326 327 325 323 326 328 329 328 328 328 328 327 326 324 321 318 317 317 316 313 311 306 308 310 307 302 302 307 306 307 306 307 306 308 309 309
307 308 300 303 310 315 319 326 326 323 323 323 324 325 326 326 326 326 325 324 323 322 320 318 316 314 315 313 310 306 303 304 304 302 302 306 307 306 305 306 306 307 306
304 307 311 306 308 312 316 319 319 319 320 320 319 320 321 321 322 323 323 322 322 322 320 319 318 316 314 313 313 312 307 305 302 300 300 305 305 308 308 307 304 304 305

GFSSE_sfc_thetae_099.txt.gz
Theta_e
335 340 347 346 348 349 349 348 347 348 345 343 344 343 342 342 343 346 346 347 347 346 347 345 345 344 344 343 342 342 343 345 346 345 346 346 346 346 345 345 344 341 344
336 337 346 346 347 349 349 347 348 347 344 343 342 341 342 341 341 340 343 345 344 342 342 342 343 342 341 341 342 344 345 345 344 343 342 343 345 344 344 343 344 340 343
340 343 343 347 349 349 349 348 347 346 342 342 341 341 342 342 340 339 340 342 340 339 339 338 340 340 340 341 344 344 343 342 341 340 339 333 336 341 342 340 341 340 339
339 341 342 345 348 349 349 347 347 345 342 341 340 340 341 343 341 339 339 340 338 337 338 338 339 340 339 340 339 338 338 340 339 337 332 334 335 341 340 340 339 339 337
337 339 341 344 347 348 347 346 346 344 343 341 341 339 340 343 340 340 338 339 339 337 338 337 337 337 337 337 337 337 338 338 336 332 331 333 331 337 340 338 336 336 336
337 340 342 345 347 347 347 346 346 344 340 340 341 340 339 340 340 341 339 338 338 337 337 336 336 336 336 336 336 335 335 337 333 327 326 331 333 338 338 336 335 334 335
336 338 340 343 345 346 346 346 345 343 340 339 340 339 338 338 339 341 339 338 338 339 337 337 336 335 335 334 334 333 332 333 326 324 324 325 328 334 334 334 333 332 331
335 338 340 336 340 343 345 346 344 343 340 339 339 339 337 337 338 340 340 338 337 337 335 336 336 334 334 333 332 332 331 329 325 323 323 324 332 332 333 331 330 329 329
336 336 336 336 336 335 338 341 342 341 340 339 339 338 337 337 336 337 341 340 337 335 333 336 335 334 332 331 330 330 328 327 320 321 323 323 332 331 329 328 327 326 325
333 333 333 333 334 333 335 334 335 336 337 336 334 332 331 330 330 331 330 336 338 336 335 335 334 333 331 329 328 327 326 324 320 320 320 323 328 327 326 327 325 323 322
330 330 331 331 332 332 332 330 329 330 330 329 329 326 325 326 325 325 327 331 334 334 334 333 331 330 329 327 326 325 324 319 319 319 320 327 326 325 324 322 322 321 319
328 328 329 329 330 331 334 331 330 329 327 327 326 325 326 324 325 324 322 325 328 329 332 330 328 327 324 321 319 321 319 319 318 318 319 327 323 323 322 321 320 320 319
329 330 329 329 330 329 329 329 329 328 327 327 325 325 324 323 322 321 319 319 319 320 320 321 321 320 320 318 320 318 319 319 316 317 320 326 325 324 323 322 321 320 320
330 330 332 331 331 328 328 328 329 328 328 327 327 328 323 320 319 321 320 319 318 318 318 318 319 320 319 319 319 319 319 319 318 316 316 321 326 325 325 325 324 322 322
329 330 331 331 331 330 328 328 329 328 328 328 328 328 324 322 320 321 321 320 320 318 318 317 317 318 318 318 319 319 319 319 319 318 315 316 323 326 326 327 327 326 325
330 330 331 331 330 331 329 328 328 330 329 327 327 327 326 323 322 321 320 320 319 318 317 317 316 316 316 316 317 318 318 319 319 318 317 316 320 325 326 327 328 329 329
328 331 331 331 331 330 330 330 329 329 331 330 329 327 327 325 322 321 320 319 320 319 318 316 315 314 313 314 314 316 316 317 317 317 317 316 316 319 323 326 328 329 329
325 329 331 333 331 329 332 332 330 330 329 328 331 330 328 326 323 320 319 319 319 319 317 315 313 312 311 311 311 312 312 314 315 315 315 316 315 316 318 324 326 327 328
323 326 329 331 330 328 330 333 333 333 331 332 331 331 330 329 325 321 318 318 318 317 315 314 312 311 309 310 311 312 312 310 311 314 313 315 314 315 315 317 320 321 325
322 324 326 329 330 328 330 333 333 332 332 332 331 331 331 330 328 325 320 319 318 316 317 316 315 314 313 312 313 311 312 309 310 311 312 314 315 314 314 314 315 315 318
308 320 324 328 329 329 326 329 329 329 330 330 331 331 330 330 330 329 325 322 320 319 318 317 316 314 313 312 308 306 306 309 309 311 312 312 311 313 311 313 313 314 315
299 301 309 326 329 329 328 328 330 330 330 331 332 331 330 330 330 329 328 324 322 320 318 317 316 314 313 311 309 305 305 307 307 309 310 309 310 309 310 311 311 312 313
299 301 302 307 325 329 328 330 328 328 328 328 329 329 329 329 329 328 328 327 324 321 319 317 316 315 313 311 310 310 304 301 306 310 311 308 308 308 309 309 310 311 311
304 304 301 301 309 325 328 329 327 325 323 326 327 328 328 328 327 327 327 326 324 322 319 318 317 316 314 312 308 308 309 308 302 305 307 309 310 307 307 305 306 307 308
305 304 297 302 310 320 324 328 326 323 323 323 324 324 325 326 326 326 325 324 323 322 320 318 316 315 314 313 310 308 305 304 304 302 301 305 309 309 307 309 310 309 307
303 306 301 306 309 313 317 324 323 321 320 319 319 319 319 319 313 311 314 317 318 318 317 317 316 314 314 313 312 311 309 306 306 302 304 305 305 308 309 309 309 307 308

GFSSE_sfc_thetae_102.txt.gz
Theta_e
335 344 348 350 349 349 347 346 344 346 345 344 343 342 343 344 344 346 347 347 348 346 346 345 344 344 343 343 344 344 344 344 344 345 346 345 345 345 345 344 343 339 344
336 341 343 349 348 348 347 346 346 345 345 342 343 341 341 341 342 342 342 344 344 341 342 342 342 342 342 343 344 343 342 341 342 342 341 342 343 343 343 342 343 338 341
333 342 344 348 349 348 347 347 345 345 344 341 342 342 341 340 340 340 340 341 339 338 339 340 341 342 342 341 340 340 340 339 339 339 339 333 334 341 341 339 340 338 338
340 341 343 345 349 347 347 346 344 344 343 339 340 343 342 340 339 339 338 338 339 338 339 339 341 340 339 338 338 339 338 338 337 336 330 331 334 339 339 339 338 338 337
338 340 342 345 348 347 347 346 344 344 344 343 341 343 342 340 338 338 338 338 339 337 338 338 339 338 337 337 337 338 337 335 333 329 329 330 330 337 338 337 335 335 335
336 339 342 345 347 347 346 344 343 341 342 341 340 341 341 341 338 337 338 338 338 336 335 336 336 336 336 335 334 336 336 333 329 323 324 327 329 336 337 335 334 333 333
334 338 341 344 346 346 346 344 342 341 341 340 339 339 340 340 338 338 338 338 339 337 336 335 335 335 334 333 332 334 332 330 322 321 322 324 326 332 334 333 332 331 330
334 337 338 337 340 343 344 343 342 341 340 340 338 338 338 339 340 339 338 337 337 335 336 335 334 333 333 332 330 330 330 328 322 320 321 323 332 332 331 331 329 329 328
335 334 334 336 336 336 339 340 340 340 339 340 339 338 336 337 339 341 339 338 334 334 335 334 334 333 332 331 329 329 327 326 318 320 322 322 332 330 328 327 326 325 323
331 332 331 332 333 334 336 333 334 336 337 336 335 332 330 330 331 332 331 336 336 335 335 334 333 331 330 329 329 327 325 324 318 318 320 322 328 326 325 326 325 323 321
330 329 329 330 330 331 333 329 329 330 330 330 329 326 324 323 324 324 327 332 336 335 333 332 331 328 327 325 326 325 322 317 317 317 319 326 325 325 324 322 322 321 319
325 326 328 328 328 330 335 330 328 327 325 325 324 324 324 323 323 323 321 326 329 330 331 329 328 326 323 320 319 320 318 317 317 316 317 327 323 323 322 321 320 320 319
326 327 326 327 328 328 330 328 326 325 324 323 323 323 323 322 320 319 318 318 318 319 318 320 319 318 319 317 318 317 317 317 314 316 318 325 325 324 324 323 322 322 321
325 326 326 327 328 326 328 327 327 326 324 324 323 325 320 319 319 318 317 317 317 317 316 316 317 318 317 317 317 317 318 317 316 315 315 320 326 326 326 326 326 325 324
327 328 327 326 326 326 325 326 326 326 326 326 326 325 322 318 317 319 318 318 317 316 317 316 316 316 316 316 317 317 317 318 318 317 315 315 321 326 327 329 329 329 328
329 329 330 329 327 326 325 325 326 326 327 326 326 325 323 321 319 319 318 319 318 317 316 316 315 315 314 314 315 316 316 316 317 317 317 316 319 323 326 328 330 330 331
329 330 330 330 330 328 327 327 326 327 327 326 326 326 324 323 321 320 318 317 318 317 316 315 314 313 312 313 313 314 314 315 315 316 316 316 316 318 322 326 328 329 330
329 329 331 332 329 329 328 328 328 327 327 328 329 329 328 325 322 319 318 317 318 317 315 313 312 311 310 310 310 311 311 312 313 313 314 315 315 316 319 322 325 327 328
328 329 329 329 328 328 328 329 331 331 330 331 330 329 329 328 324 320 318 317 317 316 314 313 312 310 311 309 312 312 311 310 311 312 311 312 314 314 315 318 319 320 324
326 329 330 330 329 327 327 328 331 331 331 331 330 330 330 330 328 324 319 318 319 318 317 316 315 314 313 313 312 312 311 310 309 309 310 311 311 312 312 313 314 314 317
319 324 327 328 328 327 326 325 329 328 329 329 330 330 330 330 329 326 324 321 320 319 318 317 316 314 313 313 311 307 307 309 308 308 309 308 308 310 310 310 311 313 313
304 314 321 327 327 328 328 327 325 329 329 330 331 330 330 329 329 329 328 325 322 319 316 316 314 314 313 312 311 306 305 309 306 309 309 309 308 307 308 309 309 310 310
298 299 304 323 327 328 328 328 328 328 328 328 328 328 329 329 328 328 328 327 325 322 317 316 316 314 313 313 311 310 305 303 306 311 310 308 307 309 306 307 307 308 308
302 303 302 303 324 327 327 328 326 325 323 326 327 328 328 328 327 326 326 325 324 322 320 318 317 316 314 311 310 309 309 307 303 304 306 307 307 307 306 306 307 306 306
305 304 299 299 306 324 327 328 327 324 323 323 325 324 324 317 318 320 322 322 321 320 318 317 316 315 314 312 310 309 306 305 305 301 300 302 307 305 306 307 307 307 307
303 303 298 304 309 320 325 324 326 323 321 320 320 319 315 309 308 308 308 309 309 311 309 309 308 308 309 310 310 310 307 305 304 303 300 301 300 302 303 304 304 305 305

GFSSE_sfc_thetae_105.txt.gz
Theta_e
334 341 347 348 348 347 346 344 345 346 344 342 343 344 344 344 344 347 348 348 346 345 346 345 343 343 344 344 343 343 343 343 344 345 345 345 344 345 344 342 342 338 342
338 341 345 349 348 347 345 343 344 344 344 341 341 341 342 343 342 342 343 344 342 341 343 342 342 343 343 342 342 341 341 341 340 341 340 341 342 341 342 340 341 337 340
336 339 343 346 348 346 345 344 344 344 342 342 341 340 341 341 341 339 339 341 339 341 340 341 342 341 340 341 340 340 339 338 338 337 337 332 335 340 339 337 338 337 337
340 342 343 345 348 346 345 344 344 342 343 343 343 341 339 339 338 338 338 338 338 338 340 339 340 339 339 339 338 338 337 337 336 335 329 332 334 338 337 337 336 335 334
338 340 342 345 347 346 344 343 344 343 343 343 343 341 338 338 338 337 338 336 337 336 337 339 339 337 336 338 338 336 335 334 332 328 327 329 330 335 336 335 334 333 333
336 339 342 346 347 345 344 342 343 343 343 342 342 341 338 337 338 337 337 337 338 336 336 337 337 335 334 337 336 335 333 332 327 321 322 326 327 335 335 334 332 331 331
334 337 340 344 346 345 343 340 342 342 341 340 340 341 338 338 339 338 339 337 336 335 335 335 335 334 333 334 334 333 331 328 320 319 321 323 325 332 333 331 331 330 329
335 336 338 337 341 343 343 342 341 342 340 339 339 339 340 339 339 337 336 336 336 335 334 334 334 333 331 331 331 330 329 326 320 318 320 323 332 331 331 330 329 327 327
333 333 333 336 337 336 338 338 339 340 340 339 338 337 338 340 340 339 337 336 335 335 334 333 332 332 331 330 329 329 328 324 316 318 321 321 330 329 328 328 326 325 324
330 330 330 331 334 335 334 332 334 336 337 337 334 331 330 331 332 333 332 336 335 334 334 332 331 330 330 329 328 326 325 323 316 317 318 321 328 327 326 326 325 323 321
328 328 328 328 331 333 332 328 329 330 331 330 328 324 322 322 323 325 328 333 335 334 332 331 330 328 327 325 325 324 321 316 316 316 317 325 325 325 324 323 322 321 320
325 324 327 326 327 332 334 328 327 326 324 324 323 322 322 321 321 322 321 326 330 329 330 329 328 325 321 317 318 320 317 316 316 315 316 325 324 324 324 323 322 322 321
324 324 324 325 326 327 331 325 324 322 321 321 321 322 322 321 319 318 317 317 317 318 317 318 318 317 317 316 316 316 317 316 314 314 317 323 326 326 326 326 325 325 324
322 323 324 325 326 325 326 325 324 322 321 320 321 322 319 318 317 316 316 316 315 316 315 314 316 316 316 316 316 316 316 316 316 315 315 317 323 326 328 329 329 329 328
323 324 324 324 324 324 324 324 324 323 323 322 322 322 319 318 317 317 316 316 315 315 315 314 314 315 314 315 315 315 315 316 316 317 315 315 319 324 328 330 331 331 331
325 325 325 325 326 325 324 324 324 324 325 324 323 322 321 318 317 317 317 317 316 316 315 315 314 313 313 313 314 314 314 314 315 315 316 316 319 322 326 329 330 331 332
327 327 326 326 326 325 324 325 325 325 326 324 324 324 322 321 319 318 316 316 316 316 315 313 313 312 311 312 311 312 312 312 312 313 314 314 315 318 321 325 328 329 330
328 327 328 329 327 325 325 325 325 325 324 324 325 325 326 323 321 318 316 316 316 316 314 313 312 310 310 309 309 311 312 311 311 311 311 312 312 314 316 320 322 324 326
328 328 328 329 327 326 325 326 326 326 327 329 329 329 328 327 324 319 317 317 316 315 314 314 312 309 309 312 312 312 312 310 310 311 310 310 310 312 312 315 317 318 320
326 328 329 329 329 327 327 326 327 330 330 330 330 329 328 328 326 323 319 318 319 318 317 316 315 315 313 313 314 313 311 310 308 307 308 309 309 310 310 310 310 311 315
321 326 328 327 327 327 324 324 328 327 329 329 329 330 330 330 328 326 324 322 320 316 318 318 316 315 312 313 309 312 309 309 307 307 308 307 308 308 307 308 308 308 310
318 324 326 328 327 327 328 327 324 324 329 330 330 329 329 329 329 328 326 324 322 320 318 317 315 314 313 312 312 308 304 306 307 311 309 308 308 307 308 308 307 307 307
309 317 323 326 327 328 327 325 325 327 327 327 327 327 328 329 328 328 327 326 324 322 319 317 316 315 313 313 311 310 306 303 306 307 307 305 306 304 305 305 306 306 306
298 300 304 319 324 326 326 326 326 325 323 325 327 328 328 327 326 326 325 324 323 322 320 318 317 316 314 311 310 309 308 308 303 301 305 305 304 304 303 304 303 304 305
303 302 301 300 318 325 326 327 327 324 323 325 325 320 315 313 315 317 319 320 319 318 316 315 314 313 313 312 310 308 305 304 300 301 297 296 299 300 301 302 302 303 304
302 303 299 298 300 320 325 326 326 324 321 321 320 315 309 308 307 307 308 307 307 307 306 305 304 302 302 302 302 301 300 300 300 299 297 295 294 295 297 298 299 300 300

GFSSE_sfc_thetae_108.txt.gz
Theta_e
332 338 346 348 346 345 345 345 344 345 343 344 345 346 345 345 345 347 347 345 346 346 345 346 344 342 342 343 343 343 343 343 343 344 344 344 343 342 342 340 339 335 339
337 341 345 349 347 344 344 343 345 344 342 341 342 343 344 343 342 341 344 343 344 344 345 344 343 342 341 341 341 340 341 340 340 341 340 341 340 339 340 339 339 334 337
337 341 343 347 347 344 343 344 344 344 341 341 341 341 340 341 340 339 339 340 341 342 342 339 341 341 340 339 339 338 338 338 337 336 336 332 334 339 339 336 336 335 336
338 341 341 345 347 344 344 343 343 344 344 342 340 340 338 339 339 338 339 337 340 341 341 339 340 340 339 338 337 337 338 337 336 334 329 330 332 336 336 336 335 334 334
338 340 341 345 346 343 343 343 343 343 345 342 339 338 337 337 338 337 337 336 339 338 340 337 338 339 338 337 336 335 334 333 330 326 324 327 328 335 335 334 332 332 331
336 338 342 345 345 343 344 343 343 343 344 343 340 337 338 338 337 337 338 336 336 338 338 337 336 338 337 336 334 333 331 329 325 320 321 325 325 335 334 333 331 329 329
336 337 340 343 344 344 343 343 342 342 342 342 340 337 338 339 337 338 337 336 335 336 336 336 334 335 334 333 333 331 329 326 317 319 321 323 325 332 332 331 330 329 327
336 335 339 337 340 341 341 342 342 341 340 340 340 338 338 338 338 337 335 335 335 334 335 334 333 332 332 332 331 330 328 323 318 318 319 320 331 330 330 328 327 326 326
334 332 334 337 336 335 337 338 340 340 339 339 339 338 339 339 339 338 337 336 335 334 333 333 332 331 331 330 330 329 326 323 315 317 320 319 330 329 329 328 326 325 323
331 330 334 334 335 333 332 331 334 336 337 336 333 331 330 332 333 333 331 335 334 333 332 331 330 330 329 328 327 326 323 321 314 316 317 320 328 328 327 326 324 323 322
330 330 330 334 333 330 329 327 329 331 331 329 326 324 322 322 324 326 329 333 334 333 332 330 329 328 325 324 325 323 320 315 315 314 315 325 326 327 326 325 324 323 322
324 327 328 331 334 330 332 326 326 325 324 323 321 320 321 320 320 321 321 326 328 328 328 329 327 324 320 316 316 319 315 315 314 314 314 323 326 327 328 327 326 325 325
323 325 326 325 332 333 329 323 322 321 320 321 320 320 320 319 317 317 316 316 316 317 315 317 316 316 315 315 315 315 315 315 314 314 316 321 325 328 330 330 330 329 328
320 321 323 324 327 330 329 323 321 320 319 319 320 321 318 317 315 315 315 314 314 315 314 313 314 315 314 314 315 314 314 315 315 315 315 318 322 327 329 331 332 331 331
320 321 321 322 324 325 328 323 322 320 319 319 320 321 319 317 316 315 314 315 314 314 314 313 313 313 313 313 314 313 313 314 314 315 315 315 320 325 328 330 331 332 332
321 322 322 322 324 323 325 323 323 322 322 321 320 321 319 318 316 316 316 315 315 315 314 314 313 312 312 311 312 313 312 313 313 313 313 314 318 321 324 326 328 329 331
323 323 323 324 323 322 322 323 322 322 323 322 322 322 320 319 316 316 315 315 315 315 314 312 312 311 310 311 310 311 311 311 311 311 311 312 312 316 318 322 324 326 327
325 324 324 326 325 323 322 322 323 322 323 323 323 323 322 322 319 316 315 315 315 314 314 312 311 310 309 309 309 310 311 312 311 310 310 310 310 311 313 318 320 321 323
326 326 325 325 324 324 323 323 323 323 323 324 326 327 327 326 323 319 317 316 315 315 316 316 314 311 308 313 314 313 313 310 309 310 308 309 309 309 309 313 314 314 317
326 327 327 327 326 324 323 323 323 323 324 328 327 328 328 327 326 323 318 319 319 318 317 317 315 313 314 311 313 312 311 312 307 306 307 308 308 308 308 308 307 308 313
323 325 326 326 326 324 322 322 322 325 328 328 329 328 328 328 327 325 323 321 320 318 317 318 316 314 312 312 310 309 308 307 306 307 306 306 307 307 306 306 306 306 307
319 323 325 327 326 326 326 325 324 325 328 330 330 329 329 329 329 327 326 324 322 320 318 317 316 314 313 313 312 308 304 305 306 308 307 306 304 304 304 305 303 304 304
313 318 323 326 327 327 328 324 322 325 327 326 327 327 328 328 327 327 326 325 324 322 320 318 317 313 313 313 312 310 305 301 303 303 303 303 302 301 301 301 301 303 302
308 313 320 324 325 326 326 326 325 324 323 324 325 327 325 326 326 324 325 324 323 322 320 318 317 316 315 311 310 309 309 307 300 298 300 299 299 300 299 299 299 299 301
299 301 305 315 320 324 325 326 325 324 325 324 323 318 315 315 317 319 320 320 318 317 315 315 313 312 312 311 306 304 305 299 302 299 293 293 295 296 296 296 295 297 298
301 301 300 299 310 321 324 325 325 325 322 321 319 314 311 309 308 308 309 308 308 308 307 305 302 300 300 299 298 298 300 298 294 292 290 289 288 291 293 293 294 294 293

GFSSE_sfc_thetae_111.txt.gz
Theta_e
338 344 346 347 345 346 345 344 344 346 347 347 347 346 346 345 346 347 347 349 348 346 346 344 342 342 342 342 343 343 343 343 343 343 343 342 342 342 340 339 339 336 337
341 344 345 348 346 345 344 345 345 345 344 344 346 345 344 343 342 341 344 346 347 344 343 343 341 341 341 340 340 340 340 340 340 340 340 340 340 339 338 336 337 334 334
341 344 346 346 346 344 344 344 344 344 342 342 342 344 341 341 340 341 342 343 344 341 341 341 341 340 339 339 339 339 339 338 337 336 337 335 334 337 338 336 335 335 335
342 344 345 344 345 344 344 344 345 345 343 342 340 340 339 339 339 339 341 341 341 340 340 340 341 339 338 337 337 337 336 335 334 334 334 335 334 336 336 334 333 333 335
341 344 344 344 345 344 344 345 345 345 343 341 338 338 338 337 337 338 339 340 340 339 338 339 340 338 337 335 334 333 332 330 329 330 331 333 334 335 335 333 331 330 331
340 343 343 344 344 343 344 344 345 345 343 339 338 338 338 337 336 336 337 338 340 337 336 338 339 337 336 334 333 331 329 329 329 330 331 332 331 333 332 331 330 329 329
339 343 343 343 343 344 344 344 344 345 343 340 339 337 337 336 336 337 336 336 337 336 336 336 336 335 334 333 332 330 328 326 328 328 328 330 329 331 330 329 328 328 327
338 341 343 337 339 341 343 342 343 343 343 341 338 339 338 339 338 336 335 335 335 335 335 334 333 333 332 332 331 328 326 323 323 324 326 328 332 331 330 328 327 326 326
337 339 341 340 337 335 338 338 339 341 341 340 340 339 339 339 338 338 337 335 334 334 334 333 332 332 331 331 329 327 325 322 323 323 324 327 331 330 330 328 326 325 325
335 336 338 339 338 336 337 331 334 336 337 336 335 333 332 332 333 333 332 335 334 333 332 331 331 330 330 329 327 325 323 322 322 322 323 326 329 330 329 328 326 325 325
332 333 338 337 336 334 334 329 330 331 330 329 328 325 325 331 331 332 330 333 333 332 331 331 329 327 324 324 324 323 321 323 323 322 323 325 328 330 330 328 327 327 326
326 328 334 336 335 334 332 332 333 330 329 327 327 327 327 327 327 327 324 325 326 326 329 329 326 323 322 323 323 322 324 323 323 323 323 323 327 330 331 331 330 330 329
326 327 330 333 334 333 331 330 329 328 327 326 325 326 325 324 324 324 324 324 324 318 323 323 323 323 322 322 322 322 322 323 324 324 323 322 326 330 331 331 332 332 333
324 326 328 331 333 333 331 328 327 325 325 325 325 325 325 323 323 322 322 322 322 323 322 322 323 322 321 321 321 321 321 322 323 323 322 318 322 327 329 330 332 332 332
322 325 326 328 330 330 329 328 326 324 324 325 325 326 325 323 322 322 321 322 322 322 323 322 322 321 320 320 320 320 320 320 321 321 321 315 319 323 326 328 330 331 331
322 323 326 326 327 328 327 327 326 325 325 325 326 326 324 324 323 323 322 323 323 323 322 322 321 321 320 319 319 319 319 319 319 319 319 320 317 319 322 326 328 329 329
322 323 324 326 327 327 326 328 327 327 326 325 326 326 324 323 322 323 323 323 324 323 322 321 320 320 319 318 318 318 319 320 319 318 318 318 318 316 318 322 324 323 324
323 323 324 325 325 326 326 326 326 326 326 327 328 328 325 324 323 323 322 322 323 322 322 321 320 319 318 318 319 320 321 320 318 317 317 317 317 317 316 318 318 318 321
325 325 324 325 325 325 325 325 326 326 326 327 328 328 328 326 324 323 323 323 322 321 319 319 317 317 318 320 319 321 321 320 317 315 316 316 316 316 315 314 312 312 315
327 327 326 326 326 326 326 325 326 326 327 327 329 329 328 328 326 324 324 323 321 320 320 319 320 317 318 320 317 318 319 317 316 316 315 314 314 313 311 313 310 311 311
326 326 327 326 326 326 324 324 324 324 326 328 329 329 329 328 327 325 325 324 322 320 320 319 318 317 316 318 319 318 315 314 314 314 315 313 312 309 308 310 308 309 308
323 325 326 327 327 326 327 327 327 328 330 330 330 330 329 328 328 327 326 324 323 321 320 319 318 317 318 318 316 313 310 312 313 312 313 308 308 304 305 305 306 306 306
318 322 325 327 327 328 328 326 325 327 327 328 328 328 329 329 329 328 328 328 325 323 322 320 319 318 316 314 314 314 310 306 308 309 310 306 304 301 303 304 302 303 301
315 319 323 326 327 328 329 327 326 326 325 327 328 328 328 328 328 327 327 328 326 324 322 320 319 318 317 313 312 312 312 311 303 300 306 304 301 298 300 300 302 299 296
308 314 319 323 325 327 328 328 327 327 328 328 327 323 320 321 324 324 325 324 321 319 318 317 316 315 315 314 312 309 307 304 305 301 296 298 297 297 299 298 298 296 294
300 304 310 318 322 325 326 328 327 327 326 324 321 317 317 314 313 313 314 314 313 312 310 308 307 307 307 305 304 304 303 300 299 296 294 293 291 295 296 298 295 293 293

GFSSE_sfc_thetae_114.txt.gz
Theta_e
340 342 347 346 345 346 345 346 347 348 348 347 347 346 345 344 347 349 350 349 348 344 342 342 341 342 342 342 342 342 342 342 342 342 341 340 339 338 337 337 337 332 336
342 343 346 347 347 345 344 343 344 347 347 347 346 345 343 342 343 344 348 345 345 344 342 340 340 340 340 340 340 340 340 339 339 339 341 340 339 338 337 336 338 334 335
341 344 346 346 346 344 344 344 344 345 344 345 344 343 341 342 342 343 343 344 343 342 341 340 340 339 339 338 338 338 338 337 337 339 338 334 334 336 335 334 335 337 337
342 343 344 344 345 343 344 344 344 344 343 341 340 340 340 340 341 343 343 342 341 342 340 339 338 337 336 335 335 335 334 333 334 336 333 333 331 335 334 333 332 334 332
342 343 343 343 344 343 344 345 345 344 342 341 339 338 339 338 338 341 341 341 340 340 340 337 338 336 334 333 332 331 331 332 333 331 332 332 331 332 332 332 330 330 329
340 343 342 344 344 343 344 346 344 343 341 341 339 338 337 338 336 339 341 339 337 338 338 337 337 335 334 332 331 330 331 331 332 329 330 330 329 331 331 330 329 328 329
340 343 343 343 343 344 344 345 345 342 341 341 339 338 338 337 337 335 337 338 336 336 336 336 335 334 333 332 330 329 327 328 326 327 329 330 330 331 331 329 328 327 326
339 342 342 337 339 342 344 344 344 342 341 341 340 340 340 338 337 335 336 337 335 335 334 334 333 333 333 331 329 327 326 326 325 327 329 329 332 331 330 329 327 326 326
340 342 342 339 337 336 338 339 341 341 340 340 340 340 339 338 338 337 336 335 334 334 333 332 332 332 331 330 328 326 324 324 326 326 326 329 332 331 331 329 327 327 326
338 341 341 338 336 338 339 331 334 336 336 337 336 333 331 332 334 334 332 334 333 332 332 331 331 330 330 328 326 324 323 325 326 326 327 328 331 331 330 329 328 327 327
334 337 341 338 335 336 337 333 331 330 330 329 329 327 329 333 333 332 330 333 333 332 331 330 328 326 325 325 324 322 324 327 327 327 327 325 329 332 332 331 329 329 329
329 335 340 339 335 334 334 336 335 334 333 335 336 335 334 333 332 331 325 324 325 328 330 328 326 323 325 327 327 325 327 328 328 327 327 325 329 331 332 332 332 333 333
330 333 336 338 337 335 332 334 334 332 331 333 334 334 333 331 331 330 329 328 327 322 328 327 327 326 326 326 327 327 327 327 327 327 324 322 326 329 331 331 332 333 333
328 330 334 337 336 336 334 332 331 330 330 329 330 332 331 330 329 328 327 327 328 328 327 328 328 327 326 326 326 326 326 326 326 327 324 318 322 327 330 331 331 332 332
326 328 331 335 334 335 335 333 330 329 329 329 329 331 331 329 328 327 328 328 329 330 329 329 328 328 328 326 326 325 325 326 326 327 327 316 320 324 328 329 329 329 329
325 326 328 331 333 332 330 334 330 329 329 330 331 332 331 331 330 329 329 329 330 330 330 330 329 328 328 327 326 325 325 327 326 326 326 324 318 321 324 325 324 325 326
324 328 330 332 331 330 330 331 331 330 328 330 331 332 331 330 329 329 330 330 330 330 329 329 328 328 328 326 325 326 328 327 326 324 324 323 322 317 319 318 319 320 322
324 325 328 330 331 331 331 333 332 332 331 330 331 333 331 330 329 329 329 329 330 329 329 329 329 327 327 327 327 328 328 327 324 322 322 322 320 319 316 314 314 315 317
326 325 326 328 329 330 331 331 333 332 332 331 333 334 333 330 327 329 330 330 330 328 324 324 326 323 324 327 325 326 327 325 322 320 320 318 317 310 311 312 312 312 315
331 327 325 327 328 329 329 330 330 331 331 332 332 334 334 331 327 327 330 331 328 325 323 324 322 326 324 324 322 323 324 322 321 320 318 316 314 306 308 309 309 310 311
332 331 329 326 327 328 327 326 328 327 329 330 332 332 331 330 329 327 327 327 328 327 326 326 323 322 321 324 323 323 321 321 319 318 317 313 307 304 306 306 308 309 308
331 332 332 331 329 329 329 330 330 330 331 332 333 331 330 330 330 328 328 326 328 326 324 323 321 320 320 322 320 319 315 315 318 315 314 310 303 304 304 304 306 304 303
329 331 332 333 333 332 332 331 331 333 332 331 331 331 331 331 330 330 329 330 327 327 327 323 322 321 320 318 320 319 313 310 311 314 313 308 300 301 303 304 302 300 299
326 329 332 333 333 333 333 331 329 328 327 330 331 331 332 333 331 332 330 330 330 331 327 324 322 322 321 317 318 317 317 315 307 303 307 306 299 300 301 302 301 298 297
325 327 328 330 332 334 333 332 331 329 332 333 332 332 331 330 331 331 330 330 329 328 325 321 320 320 320 319 317 314 311 311 309 304 297 297 298 299 301 300 299 297 295
320 323 326 326 329 332 333 332 332 331 331 331 331 330 325 324 326 329 328 326 322 319 318 317 316 316 316 316 315 313 309 305 302 299 297 296 294 296 301 300 297 295 294

GFSSE_sfc_thetae_117.txt.gz
Theta_e
340 341 346 345 347 347 347 347 347 347 347 347 346 345 345 346 349 349 348 347 345 341 341 341 341 342 341 341 342 342 341 341 341 341 340 340 338 337 338 339 337 334 338
342 343 345 347 346 344 344 345 346 346 347 346 345 343 343 344 345 343 346 346 345 340 340 339 340 340 340 340 340 340 339 338 340 340 340 339 336 335 337 337 340 335 335
341 343 344 347 345 343 343 342 344 346 346 345 344 342 343 343 344 342 343 344 343 340 338 339 339 338 338 338 337 337 337 337 339 338 338 331 329 333 334 334 335 334 334
341 341 341 343 345 344 343 344 344 344 343 342 341 341 340 343 343 342 341 342 343 339 338 338 337 335 334 333 333 333 333 333 335 336 331 329 328 333 333 332 333 332 330
339 341 342 343 344 343 343 345 344 343 342 342 340 338 339 342 343 341 340 340 341 338 336 337 336 334 333 332 332 333 333 333 334 330 328 328 328 330 332 331 330 329 329
339 341 341 344 344 343 344 344 343 342 342 340 338 337 336 338 340 340 339 339 339 337 335 336 335 334 332 331 330 330 330 332 332 328 328 329 328 332 332 330 329 328 328
337 341 340 342 344 344 346 343 342 342 340 341 337 337 337 337 338 338 339 336 336 335 336 335 335 333 332 331 329 328 329 330 328 328 328 329 329 332 332 330 329 328 328
338 341 339 336 339 342 343 343 342 341 339 337 337 339 336 335 336 337 337 335 335 335 334 334 334 332 331 330 329 327 328 328 327 327 328 329 333 332 332 330 329 328 327
338 340 338 336 336 336 338 339 340 340 339 340 340 339 338 337 337 336 337 335 333 333 333 333 332 331 330 329 328 326 326 326 326 327 327 329 333 333 333 331 330 329 329
336 338 336 335 336 337 338 332 334 335 336 337 334 333 332 332 333 333 332 334 332 332 331 331 331 330 329 328 326 324 324 327 326 326 326 327 332 334 334 332 331 331 331
335 338 337 334 334 335 335 333 330 330 331 330 329 327 328 332 332 332 329 332 332 332 331 329 328 326 326 326 325 325 326 327 327 327 326 328 331 333 333 334 334 335 335
330 335 337 334 332 333 332 334 334 333 335 335 334 334 332 332 331 330 325 325 327 330 329 327 325 325 324 327 327 326 327 328 327 327 323 325 328 331 332 332 333 334 334
330 335 337 335 332 332 331 333 332 331 332 334 335 334 333 330 329 329 328 326 326 323 327 327 327 327 327 327 327 327 327 327 327 327 321 322 327 330 332 333 333 333 333
328 332 336 337 333 331 332 332 331 329 330 331 333 334 332 330 330 328 327 328 328 327 327 328 327 327 327 327 327 327 327 327 327 327 319 319 325 329 331 331 330 330 330
325 329 333 335 335 334 331 330 330 329 329 329 330 331 330 329 329 328 328 328 328 329 328 328 328 327 328 327 327 326 326 327 327 327 324 317 323 326 326 326 327 327 327
325 328 330 334 333 333 333 332 329 329 329 329 330 331 331 331 330 329 329 330 329 330 329 329 328 328 328 327 326 326 328 328 327 326 326 319 320 319 320 320 320 321 322
325 328 330 331 333 331 331 333 331 329 328 330 331 333 331 331 330 330 330 330 330 330 329 328 328 328 327 326 326 327 328 328 326 323 323 323 319 315 315 315 317 319 321
324 325 328 331 332 330 329 330 331 330 328 330 332 333 331 331 330 329 330 329 330 330 329 329 327 326 326 326 326 327 328 327 324 322 322 320 315 312 313 313 315 317 316
323 323 327 330 330 331 332 331 332 331 330 330 330 332 333 331 331 330 330 330 330 329 328 327 326 326 325 327 325 325 327 324 322 321 318 316 310 309 309 312 312 310 310
326 322 325 328 328 329 330 330 331 331 331 331 331 333 333 333 331 330 330 331 331 329 326 326 325 326 326 324 323 323 324 322 322 320 316 312 305 307 308 308 310 306 305
329 325 323 325 326 327 328 328 328 327 330 330 331 333 335 334 331 328 329 330 330 327 327 328 326 324 323 325 324 323 320 321 319 317 315 308 304 305 305 307 306 305 302
331 330 327 324 326 326 328 328 328 328 330 330 332 333 334 333 330 328 328 327 328 329 328 327 324 321 322 324 320 319 313 314 316 315 311 304 303 304 304 303 301 300 300
331 332 332 330 327 327 328 329 329 331 331 330 331 333 333 332 332 330 328 329 327 327 326 326 324 321 320 320 322 318 311 310 312 313 310 303 301 302 303 302 299 298 297
330 334 334 334 333 331 331 331 329 329 327 330 332 333 332 333 333 332 330 329 328 327 328 330 326 323 321 318 319 317 318 315 309 303 307 302 299 300 301 301 298 297 296
329 331 334 334 334 335 334 333 332 331 332 332 333 334 333 334 333 332 331 331 330 331 331 329 324 321 321 319 318 315 314 312 312 305 298 298 298 300 300 299 297 295 295
327 329 330 331 332 334 335 334 333 332 332 332 332 332 333 333 332 332 330 330 331 329 325 322 320 320 318 318 318 316 311 307 303 300 297 297 295 296 299 299 296 294 294

GFSSE_sfc_thetae_120.txt.gz
Theta_e
335 338 347 348 347 348 348 348 348 348 349 346 346 346 348 347 348 348 346 344 342 341 341 342 343 343 342 341 341 340 340 340 342 340 337 335 337 340 340 338 337 330 336
339 342 345 348 346 346 347 347 347 347 347 346 344 345 346 345 345 346 345 343 342 339 339 340 339 339 339 339 339 339 339 339 340 339 336 335 335 336 337 335 336 331 333
339 340 344 346 345 344 345 347 347 346 346 345 344 344 345 344 344 343 344 341 338 338 338 338 338 338 336 336 336 336 336 339 339 338 336 325 327 334 334 333 332 332 332
339 341 342 343 345 344 345 346 346 346 345 344 341 341 344 344 343 343 343 341 339 337 337 337 336 335 334 334 334 335 335 336 335 333 325 325 326 333 333 332 331 331 331
338 339 341 343 345 345 345 345 345 344 339 340 340 341 343 343 340 340 342 342 339 337 337 336 335 333 332 333 334 333 333 337 334 328 325 325 324 331 332 331 330 330 330
338 338 341 343 345 345 345 344 342 342 340 341 337 339 341 341 341 339 340 340 338 335 336 336 334 333 332 331 331 332 333 337 331 324 324 328 326 333 333 332 330 330 329
336 336 339 343 344 345 344 343 342 341 341 339 338 336 337 339 340 339 337 337 334 334 335 335 334 332 331 330 330 330 331 333 324 323 324 325 327 334 334 332 331 330 330
336 336 337 335 339 342 342 342 341 340 338 337 337 336 335 337 340 338 336 335 335 335 334 334 333 332 331 330 329 329 330 329 324 324 324 325 334 333 334 333 332 332 331
338 335 334 335 335 335 337 338 338 338 339 339 339 338 336 334 334 337 336 334 334 334 333 333 332 331 330 329 328 328 327 327 321 322 326 325 334 336 335 333 333 333 333
337 334 332 332 334 335 334 331 333 335 335 335 334 332 331 331 332 332 331 333 332 332 331 331 330 330 329 328 326 326 325 326 321 321 322 326 333 335 336 336 336 335 336
335 335 331 330 331 334 334 327 328 330 330 329 329 327 326 328 328 329 328 332 332 331 330 329 328 327 328 326 326 325 325 322 322 321 321 328 331 332 335 334 334 335 334
330 333 331 328 328 330 334 331 329 330 329 329 327 326 327 326 327 327 323 326 329 329 329 327 326 327 323 321 320 323 322 322 321 319 319 327 331 333 334 334 334 333 333
328 333 332 327 327 327 327 328 328 327 329 330 329 328 326 325 323 323 319 318 318 321 322 323 322 322 321 321 322 321 322 321 321 318 320 326 331 333 333 331 330 331 330
325 331 334 328 326 326 327 327 326 325 326 327 328 328 325 324 323 322 321 321 320 320 319 320 321 321 321 322 322 322 322 321 321 317 318 322 327 328 328 328 328 326 325
324 327 333 331 326 326 326 326 325 323 324 326 327 328 327 324 322 322 321 322 322 322 321 321 321 322 322 323 322 321 322 322 321 317 317 318 321 322 322 323 323 324 324
324 324 331 332 331 328 325 324 324 324 324 323 324 325 326 325 323 322 322 323 323 323 322 322 321 321 321 321 321 322 323 322 321 318 316 315 318 316 318 320 322 323 321
323 325 327 332 332 329 327 327 323 323 324 324 325 327 326 326 325 323 324 323 323 323 323 322 321 321 320 320 320 322 323 321 319 318 316 314 311 314 315 319 319 318 316
321 324 327 331 332 330 327 326 326 324 322 324 326 327 327 327 325 323 324 324 324 323 322 321 321 319 318 318 319 320 321 320 317 316 312 305 306 309 313 313 313 312 312
321 322 325 328 329 329 328 326 327 325 323 324 325 327 327 327 326 324 324 324 324 323 321 321 319 318 317 319 319 317 319 317 315 314 310 302 303 306 308 309 307 306 308
322 321 324 326 328 328 328 327 327 325 324 324 324 326 328 327 327 325 325 326 325 323 321 320 318 319 319 320 321 320 317 315 315 310 303 301 301 301 303 304 300 301 303
320 317 321 324 326 328 326 324 323 324 324 324 324 326 328 328 327 325 324 325 326 322 321 320 320 318 320 321 319 316 316 316 315 309 300 298 299 300 300 298 298 296 295
322 319 319 323 324 325 325 325 323 323 324 324 325 326 328 328 327 324 325 324 325 322 322 321 318 318 320 320 317 314 309 312 311 305 298 297 297 299 298 296 295 294 293
325 323 319 320 322 323 324 325 323 323 323 323 323 325 328 328 327 325 324 323 323 323 323 323 319 319 317 317 318 314 308 303 308 307 297 294 296 297 296 294 294 293 292
326 327 326 322 321 322 323 322 321 321 321 324 325 326 328 329 328 327 325 324 323 322 322 323 321 320 320 315 316 315 312 310 302 298 298 293 295 296 295 294 291 291 291
326 327 328 328 325 323 323 323 322 322 325 326 327 326 328 328 328 328 327 325 324 325 324 321 320 319 319 316 314 312 307 306 305 298 294 290 293 295 295 292 291 289 291
323 326 328 328 328 328 325 323 325 324 326 325 326 326 328 328 328 328 327 326 326 326 323 322 319 319 319 317 316 312 306 303 300 296 291 290 289 293 294 293 290 289 290